| time (UTC) | temp F | wind direction | speed MPH | gust MPH | rain 1hr in | rain 24hr in | rain mn in | humidity % | barometer mb |
| 20260509201204 | 70 | 79 | 2.0 | 4.0 | 0.79 | 0.79 | 0.79 | 1 | 1009.4 |
| 20260509201125 | 69 | 78 | 2.0 | 4.0 | 0.79 | 0.79 | 0.79 | 1 | 1009.4 |
| 20260509201004 | 69 | 76 | 2.0 | 5.0 | 0.79 | 0.79 | 0.79 | 1 | 1009.5 |
| 20260509200904 | 68 | 74 | 2.0 | 5.0 | 0.79 | 0.79 | 0.79 | 1 | 1009.5 |
| 20260509200804 | 68 | 72 | 2.0 | 5.0 | 0.79 | 0.79 | 0.79 | 1 | 1009.6 |
| 20260509200725 | 68 | 70 | 2.0 | 5.0 | 0.79 | 0.79 | 0.79 | 1 | 1009.7 |
| 20260509200625 | 67 | 67 | 3.0 | 6.0 | 0.79 | 0.79 | 0.79 | 1 | 1009.8 |
| 20260509200504 | 67 | 56 | 3.0 | 7.0 | 0.79 | 0.79 | 0.79 | 1 | 1009.9 |
| 20260509200404 | 67 | 39 | 3.0 | 9.0 | 0.79 | 0.79 | 0.79 | 1 | 1010.0 |
| 20260509200304 | 67 | 25 | 3.0 | 9.0 | 0.79 | 0.79 | 0.79 | 1 | 1010.1 |
| 20260509200204 | 67 | 10 | 3.0 | 9.0 | 0.79 | 0.79 | 0.79 | 1 | 1010.1 |
| 20260509200104 | 67 | 343 | 4.0 | 9.0 | 0.79 | 0.79 | 0.79 | 1 | 1010.1 |
| 20260509200025 | 67 | 327 | 4.0 | 9.0 | 0.78 | 0.78 | 0.78 | 1 | 1010.2 |
| 20260509195904 | 67 | 314 | 4.0 | 9.0 | 0.78 | 0.78 | 0.78 | 1 | 1010.2 |
| 20260509195804 | 67 | 315 | 4.0 | 9.0 | 0.78 | 0.78 | 0.78 | 1 | 1010.3 |
| 20260509195704 | 67 | 314 | 4.0 | 9.0 | 0.78 | 0.78 | 0.78 | 1 | 1010.3 |
| 20260509195625 | 67 | 313 | 4.0 | 9.0 | 0.78 | 0.78 | 0.78 | 1 | 1010.4 |
| 20260509195504 | 67 | 310 | 3.0 | 9.0 | 0.77 | 0.77 | 0.77 | 1 | 1010.5 |
| 20260509195425 | 67 | 317 | 3.0 | 9.0 | 0.76 | 0.76 | 0.77 | 1 | 1010.7 |
| 20260509195306 | 67 | 344 | 3.0 | 8.0 | 0.76 | 0.76 | 0.76 | 1 | 1010.8 |
| 20260509195204 | 67 | 26 | 3.0 | 8.0 | 0.76 | 0.76 | 0.76 | 1 | 1011.0 |
| 20260509195125 | 67 | 37 | 2.0 | 6.0 | 0.74 | 0.74 | 0.75 | 1 | 1011.1 |
| 20260509195004 | 67 | 53 | 2.0 | 4.0 | 0.71 | 0.71 | 0.71 | 1 | 1011.3 |
| 20260509194925 | 67 | 55 | 3.0 | 6.0 | 0.67 | 0.67 | 0.69 | 1 | 1011.3 |
| 20260509194804 | 67 | 52 | 3.0 | 10.0 | 0.64 | 0.64 | 0.64 | 1 | 1011.3 |
| 20260509194704 | 67 | 49 | 4.0 | 13.0 | 0.63 | 0.63 | 0.63 | 1 | 1011.3 |
| 20260509194604 | 67 | 49 | 5.0 | 16.0 | 0.62 | 0.62 | 0.62 | 1 | 1011.3 |
| 20260509194504 | 67 | 52 | 6.0 | 17.0 | 0.61 | 0.61 | 0.62 | 1 | 1011.3 |
| 20260509194404 | 68 | 52 | 7.0 | 17.0 | 0.60 | 0.60 | 0.60 | 1 | 1011.2 |
| 20260509194304 | 68 | 54 | 7.0 | 17.0 | 0.54 | 0.54 | 0.54 | 1 | 1011.2 |
| 20260509194204 | 68 | 54 | 7.0 | 17.0 | 0.52 | 0.52 | 0.52 | 1 | 1011.0 |
| 20260509194125 | 68 | 55 | 8.0 | 17.0 | 0.50 | 0.50 | 0.51 | 1 | 1011.0 |
| 20260509194004 | 68 | 56 | 8.0 | 17.0 | 0.47 | 0.47 | 0.47 | 1 | 1011.1 |
| 20260509193904 | 69 | 57 | 8.0 | 17.0 | 0.44 | 0.44 | 0.44 | 1 | 1011.1 |
| 20260509193804 | 70 | 60 | 8.0 | 17.0 | 0.40 | 0.40 | 0.40 | 1 | 1011.2 |
| 20260509193704 | 71 | 62 | 7.0 | 17.0 | 0.36 | 0.36 | 0.36 | 1 | 1011.4 |
| 20260509193604 | 72 | 65 | 6.0 | 17.0 | 0.32 | 0.32 | 0.33 | 1 | 1011.4 |
| 20260509193504 | 73 | 66 | 6.0 | 15.0 | 0.28 | 0.28 | 0.30 | 33 | 1011.4 |
| 20260509193404 | 75 | 67 | 5.0 | 15.0 | 0.26 | 0.26 | 0.26 | 33 | 1011.2 |
| 20260509193304 | 76 | 66 | 5.0 | 9.0 | 0.20 | 0.20 | 0.20 | 33 | 1011.1 |
| 20260509193204 | 76 | 67 | 5.0 | 9.0 | 0.15 | 0.15 | 0.16 | 37 | 1011.0 |
| 20260509193104 | 76 | 70 | 5.0 | 9.0 | 0.14 | 0.14 | 0.14 | 36 | 1010.9 |
| 20260509193004 | 77 | 68 | 6.0 | 15.0 | 0.13 | 0.13 | 0.13 | 36 | 1010.8 |
| 20260509192904 | 77 | 66 | 6.0 | 17.0 | 0.11 | 0.11 | 0.11 | 37 | 1010.7 |
| 20260509192804 | 78 | 65 | 7.0 | 19.0 | 0.10 | 0.10 | 0.10 | 38 | 1010.6 |
| 20260509192704 | 78 | 59 | 7.0 | 19.0 | 0.07 | 0.07 | 0.07 | 40 | 1010.6 |
| 20260509192625 | 78 | 57 | 7.0 | 19.0 | 0.05 | 0.05 | 0.06 | 40 | 1010.4 |
| 20260509192504 | 79 | 55 | 7.0 | 19.0 | 0.05 | 0.05 | 0.05 | 40 | 1010.4 |
| 20260509192404 | 80 | 56 | 7.0 | 19.0 | 0.04 | 0.04 | 0.04 | 40 | 1010.3 |
| 20260509192306 | 80 | 57 | 6.0 | 19.0 | 0.04 | 0.04 | 0.04 | 42 | 1010.2 |
| 20260509192204 | 81 | 55 | 6.0 | 19.0 | 0.03 | 0.03 | 0.03 | 42 | 1010.2 |
| 20260509192104 | 81 | 51 | 6.0 | 19.0 | 0.02 | 0.02 | 0.02 | 42 | 1010.3 |
| 20260509192004 | 82 | 43 | 5.0 | 19.0 | 0.01 | 0.01 | 0.01 | 40 | 1010.2 |
| 20260509191904 | 83 | 32 | 5.0 | 19.0 | 0.01 | 0.01 | 0.01 | 40 | 1010.1 |
| 20260509191804 | 83 | 12 | 4.0 | 12.0 | 0.00 | 0.00 | 0.00 | 39 | 1010.1 |
| 20260509191704 | 84 | 2 | 4.0 | 10.0 | 0.00 | 0.00 | 0.00 | 36 | 1010.0 |
| 20260509191604 | 84 | 353 | 4.0 | 10.0 | 0.00 | 0.00 | 0.00 | 36 | 1009.9 |
| 20260509191504 | 84 | 341 | 4.0 | 10.0 | 0.00 | 0.00 | 0.00 | 37 | 1009.7 |
| 20260509191404 | 84 | 332 | 4.0 | 10.0 | 0.00 | 0.00 | 0.00 | 38 | 1009.6 |
| 20260509191304 | 84 | 325 | 4.0 | 10.0 | 0.00 | 0.00 | 0.00 | 38 | 1009.6 |
| 20260509191204 | 84 | 319 | 4.0 | 10.0 | 0.00 | 0.00 | 0.00 | 39 | 1009.6 |
| 20260509191104 | 84 | 315 | 4.0 | 10.0 | 0.00 | 0.00 | 0.00 | 40 | 1009.5 |
| 20260509191004 | 84 | 313 | 3.0 | 10.0 | 0.00 | 0.00 | 0.00 | 41 | 1009.6 |
| 20260509190904 | 85 | 311 | 3.0 | 10.0 | 0.00 | 0.00 | 0.00 | 42 | 1009.5 |
| 20260509190804 | 85 | 304 | 3.0 | 10.0 | 0.00 | 0.00 | 0.00 | 42 | 1009.6 |
| 20260509190704 | 85 | 304 | 3.0 | 10.0 | 0.00 | 0.00 | 0.00 | 42 | 1009.6 |
| 20260509190604 | 85 | 299 | 3.0 | 7.0 | 0.00 | 0.00 | 0.00 | 42 | 1009.7 |
| 20260509190504 | 85 | 297 | 3.0 | 7.0 | 0.00 | 0.00 | 0.00 | 42 | 1009.7 |
| 20260509190404 | 86 | 302 | 3.0 | 7.0 | 0.00 | 0.00 | 0.00 | 42 | 1009.6 |
| 20260509190304 | 86 | 316 | 3.0 | 7.0 | 0.00 | 0.00 | 0.00 | 42 | 1009.6 |
| 20260509190204 | 86 | 329 | 3.0 | 7.0 | 0.00 | 0.00 | 0.00 | 43 | 1009.6 |
| 20260509190104 | 86 | 340 | 3.0 | 7.0 | 0.00 | 0.00 | 0.00 | 43 | 1009.6 |
| 20260509190004 | 86 | 349 | 3.0 | 7.0 | 0.00 | 0.00 | 0.00 | 43 | 1009.5 |
| 20260509185904 | 86 | 353 | 3.0 | 7.0 | 0.00 | 0.00 | 0.00 | 44 | 1009.5 |
| 20260509185825 | 86 | 348 | 3.0 | 7.0 | 0.00 | 0.00 | 0.00 | 44 | 1009.5 |
| 20260509185704 | 87 | 349 | 3.0 | 8.0 | 0.00 | 0.00 | 0.00 | 44 | 1009.6 |
| 20260509185604 | 87 | 360 | 3.0 | 8.0 | 0.00 | 0.00 | 0.00 | 44 | 1009.6 |
| 20260509185504 | 87 | 13 | 3.0 | 8.0 | 0.00 | 0.00 | 0.00 | 44 | 1009.6 |
| 20260509185404 | 87 | 21 | 4.0 | 8.0 | 0.00 | 0.00 | 0.00 | 44 | 1009.7 |
| 20260509185306 | 87 | 20 | 3.0 | 8.0 | 0.00 | 0.00 | 0.00 | 44 | 1009.7 |
| 20260509185204 | 87 | 13 | 3.0 | 8.0 | 0.00 | 0.00 | 0.00 | 44 | 1009.7 |
| 20260509185104 | 87 | 5 | 4.0 | 8.0 | 0.00 | 0.00 | 0.00 | 44 | 1009.8 |
| 20260509185025 | 87 | 5 | 4.0 | 8.0 | 0.00 | 0.00 | 0.00 | 44 | 1009.8 |
| 20260509184904 | 87 | 11 | 4.0 | 9.0 | 0.00 | 0.00 | 0.00 | 44 | 1009.9 |
| 20260509184804 | 88 | 19 | 4.0 | 12.0 | 0.00 | 0.00 | 0.00 | 44 | 1009.9 |
| 20260509184704 | 88 | 27 | 4.0 | 12.0 | 0.00 | 0.00 | 0.00 | 44 | 1009.9 |
| 20260509184604 | 88 | 29 | 5.0 | 12.0 | 0.00 | 0.00 | 0.00 | 44 | 1009.9 |
| 20260509184504 | 88 | 29 | 5.0 | 12.0 | 0.00 | 0.00 | 0.00 | 44 | 1009.9 |
| 20260509184404 | 88 | 25 | 5.0 | 12.0 | 0.00 | 0.00 | 0.00 | 44 | 1009.9 |
| 20260509184304 | 88 | 26 | 5.0 | 12.0 | 0.00 | 0.00 | 0.00 | 44 | 1009.9 |
| 20260509184204 | 88 | 34 | 5.0 | 12.0 | 0.00 | 0.00 | 0.00 | 43 | 1010.0 |
| 20260509184104 | 88 | 38 | 6.0 | 12.0 | 0.00 | 0.00 | 0.00 | 43 | 1010.0 |
| 20260509184004 | 88 | 41 | 5.0 | 12.0 | 0.00 | 0.00 | 0.00 | 43 | 1010.0 |
| 20260509183925 | 88 | 40 | 5.0 | 12.0 | 0.00 | 0.00 | 0.00 | 43 | 1010.0 |
| 20260509183804 | 88 | 42 | 6.0 | 12.0 | 0.00 | 0.00 | 0.00 | 43 | 1009.9 |
| 20260509183704 | 89 | 41 | 6.0 | 12.0 | 0.00 | 0.00 | 0.00 | 43 | 1009.9 |
| 20260509183625 | 89 | 40 | 5.0 | 12.0 | 0.00 | 0.00 | 0.00 | 43 | 1009.9 |
| 20260509183504 | 88 | 42 | 5.0 | 12.0 | 0.00 | 0.00 | 0.00 | 43 | 1010.0 |
| 20260509183404 | 88 | 46 | 5.0 | 11.0 | 0.00 | 0.00 | 0.00 | 43 | 1010.1 |
| 20260509183325 | 88 | 45 | 6.0 | 11.0 | 0.00 | 0.00 | 0.00 | 43 | 1010.1 |
| 20260509183204 | 88 | 43 | 6.0 | 11.0 | 0.00 | 0.00 | 0.00 | 43 | 1010.2 |
| 20260509183125 | 89 | 43 | 5.0 | 11.0 | 0.00 | 0.00 | 0.00 | 42 | 1010.2 |
| 20260509183004 | 89 | 40 | 5.0 | 11.0 | 0.00 | 0.00 | 0.00 | 43 | 1010.2 |
| 20260509182925 | 89 | 41 | 5.0 | 11.0 | 0.00 | 0.00 | 0.00 | 42 | 1010.2 |
| 20260509182804 | 88 | 42 | 4.0 | 11.0 | 0.00 | 0.00 | 0.00 | 43 | 1010.2 |
| 20260509182704 | 88 | 45 | 4.0 | 11.0 | 0.00 | 0.00 | 0.00 | 43 | 1010.2 |
| 20260509182604 | 88 | 48 | 4.0 | 9.0 | 0.00 | 0.00 | 0.00 | 42 | 1010.2 |
| 20260509182504 | 88 | 47 | 4.0 | 9.0 | 0.00 | 0.00 | 0.00 | 43 | 1010.2 |
| 20260509182404 | 89 | 43 | 4.0 | 9.0 | 0.00 | 0.00 | 0.00 | 43 | 1010.3 |
| 20260509182306 | 89 | 41 | 4.0 | 9.0 | 0.00 | 0.00 | 0.00 | 42 | 1010.3 |
| 20260509182204 | 89 | 40 | 4.0 | 9.0 | 0.00 | 0.00 | 0.00 | 42 | 1010.4 |
| 20260509182104 | 89 | 38 | 4.0 | 9.0 | 0.00 | 0.00 | 0.00 | 42 | 1010.3 |
| 20260509182003 | 89 | 35 | 3.0 | 9.0 | 0.00 | 0.00 | 0.00 | 42 | 1010.4 |
| 20260509181904 | 89 | 31 | 3.0 | 9.0 | 0.00 | 0.00 | 0.00 | 41 | 1010.4 |
| 20260509181804 | 89 | 27 | 3.0 | 9.0 | 0.00 | 0.00 | 0.00 | 42 | 1010.5 |
| 20260509181704 | 89 | 20 | 3.0 | 9.0 | 0.00 | 0.00 | 0.00 | 42 | 1010.5 |
| 20260509181604 | 89 | 14 | 3.0 | 9.0 | 0.00 | 0.00 | 0.00 | 42 | 1010.5 |
| 20260509181504 | 89 | 10 | 3.0 | 9.0 | 0.00 | 0.00 | 0.00 | 42 | 1010.5 |
| 20260509181404 | 89 | 3 | 3.0 | 9.0 | 0.00 | 0.00 | 0.00 | 42 | 1010.4 |
| 20260509181325 | 89 | 7 | 3.0 | 9.0 | 0.00 | 0.00 | 0.00 | 42 | 1010.5 |
| 20260509181225 | 89 | 5 | 3.0 | 9.0 | 0.00 | 0.00 | 0.00 | 42 | 1010.4 |
| 20260509181104 | 89 | 7 | 3.0 | 7.0 | 0.00 | 0.00 | 0.00 | 42 | 1010.4 |
| 20260509181004 | 89 | 14 | 3.0 | 7.0 | 0.00 | 0.00 | 0.00 | 42 | 1010.4 |
| 20260509180904 | 89 | 22 | 3.0 | 7.0 | 0.00 | 0.00 | 0.00 | 42 | 1010.4 |
| 20260509180825 | 88 | 27 | 3.0 | 7.0 | 0.00 | 0.00 | 0.00 | 41 | 1010.5 |
| 20260509180704 | 88 | 34 | 3.0 | 7.0 | 0.00 | 0.00 | 0.00 | 41 | 1010.5 |
| 20260509180604 | 88 | 40 | 4.0 | 7.0 | 0.00 | 0.00 | 0.00 | 41 | 1010.5 |
| 20260509180504 | 88 | 47 | 4.0 | 7.0 | 0.00 | 0.00 | 0.00 | 41 | 1010.5 |
| 20260509180404 | 88 | 54 | 4.0 | 7.0 | 0.00 | 0.00 | 0.00 | 41 | 1010.5 |
| 20260509180304 | 87 | 58 | 4.0 | 10.0 | 0.00 | 0.00 | 0.00 | 40 | 1010.5 |
| 20260509180204 | 87 | 61 | 3.0 | 10.0 | 0.00 | 0.00 | 0.00 | 41 | 1010.5 |
| 20260509180104 | 87 | 63 | 3.0 | 10.0 | 0.00 | 0.00 | 0.00 | 41 | 1010.5 |
| 20260509180004 | 87 | 69 | 3.0 | 10.0 | 0.00 | 0.00 | 0.00 | 41 | 1010.5 |
| 20260509175904 | 87 | 69 | 3.0 | 10.0 | 0.00 | 0.00 | 0.00 | 42 | 1010.6 |
| 20260509175804 | 87 | 72 | 3.0 | 10.0 | 0.00 | 0.00 | 0.00 | 42 | 1010.6 |
| 20260509175725 | 87 | 71 | 3.0 | 10.0 | 0.00 | 0.00 | 0.00 | 41 | 1010.5 |
| 20260509175604 | 87 | 70 | 4.0 | 10.0 | 0.00 | 0.00 | 0.00 | 41 | 1010.6 |
| 20260509175525 | 87 | 68 | 4.0 | 10.0 | 0.00 | 0.00 | 0.00 | 41 | 1010.6 |
| 20260509175404 | 88 | 68 | 4.0 | 10.0 | 0.00 | 0.00 | 0.00 | 40 | 1010.6 |
| 20260509175306 | 88 | 71 | 4.0 | 9.0 | 0.00 | 0.00 | 0.00 | 40 | 1010.6 |
| 20260509175225 | 88 | 69 | 4.0 | 9.0 | 0.00 | 0.00 | 0.00 | 40 | 1010.6 |
| 20260509175104 | 87 | 65 | 4.0 | 9.0 | 0.00 | 0.00 | 0.00 | 40 | 1010.6 |
| 20260509175004 | 87 | 60 | 5.0 | 9.0 | 0.00 | 0.00 | 0.00 | 41 | 1010.6 |
| 20260509174904 | 87 | 58 | 5.0 | 9.0 | 0.00 | 0.00 | 0.00 | 41 | 1010.7 |
| 20260509174804 | 87 | 58 | 5.0 | 9.0 | 0.00 | 0.00 | 0.00 | 41 | 1010.7 |
| 20260509174704 | 88 | 58 | 4.0 | 9.0 | 0.00 | 0.00 | 0.00 | 41 | 1010.7 |
| 20260509174604 | 88 | 58 | 4.0 | 9.0 | 0.00 | 0.00 | 0.00 | 41 | 1010.7 |
| 20260509174504 | 88 | 60 | 4.0 | 8.0 | 0.00 | 0.00 | 0.00 | 41 | 1010.7 |
| 20260509174404 | 88 | 59 | 4.0 | 8.0 | 0.00 | 0.00 | 0.00 | 40 | 1010.7 |
| 20260509174325 | 88 | 58 | 4.0 | 8.0 | 0.00 | 0.00 | 0.00 | 40 | 1010.7 |
| 20260509174204 | 88 | 56 | 3.0 | 8.0 | 0.00 | 0.00 | 0.00 | 39 | 1010.6 |
| 20260509174104 | 88 | 60 | 3.0 | 8.0 | 0.00 | 0.00 | 0.00 | 39 | 1010.7 |
| 20260509174004 | 88 | 61 | 3.0 | 7.0 | 0.00 | 0.00 | 0.00 | 39 | 1010.7 |
| 20260509173925 | 88 | 62 | 3.0 | 7.0 | 0.00 | 0.00 | 0.00 | 39 | 1010.7 |
| 20260509173804 | 88 | 62 | 3.0 | 7.0 | 0.00 | 0.00 | 0.00 | 38 | 1010.8 |
| 20260509173704 | 88 | 60 | 3.0 | 7.0 | 0.00 | 0.00 | 0.00 | 38 | 1010.8 |
| 20260509173604 | 88 | 59 | 3.0 | 7.0 | 0.00 | 0.00 | 0.00 | 37 | 1010.9 |
| 20260509173525 | 88 | 58 | 3.0 | 7.0 | 0.00 | 0.00 | 0.00 | 37 | 1010.9 |
| 20260509173425 | 88 | 57 | 3.0 | 7.0 | 0.00 | 0.00 | 0.00 | 37 | 1011.0 |
| 20260509173304 | 87 | 58 | 3.0 | 7.0 | 0.00 | 0.00 | 0.00 | 37 | 1011.0 |
| 20260509173204 | 87 | 57 | 3.0 | 7.0 | 0.00 | 0.00 | 0.00 | 37 | 1011.0 |
| 20260509173104 | 87 | 55 | 4.0 | 9.0 | 0.00 | 0.00 | 0.00 | 37 | 1011.0 |
| 20260509173004 | 86 | 53 | 4.0 | 9.0 | 0.00 | 0.00 | 0.00 | 36 | 1011.1 |
| 20260509172904 | 86 | 50 | 4.0 | 9.0 | 0.00 | 0.00 | 0.00 | 36 | 1011.0 |
| 20260509172804 | 86 | 50 | 4.0 | 9.0 | 0.00 | 0.00 | 0.00 | 36 | 1011.1 |
| 20260509172704 | 86 | 51 | 3.0 | 9.0 | 0.00 | 0.00 | 0.00 | 36 | 1011.1 |
| 20260509172625 | 86 | 50 | 3.0 | 9.0 | 0.00 | 0.00 | 0.00 | 35 | 1011.2 |
| 20260509172525 | 86 | 53 | 3.0 | 9.0 | 0.00 | 0.00 | 0.00 | 35 | 1011.1 |
| 20260509172404 | 86 | 58 | 3.0 | 9.0 | 0.00 | 0.00 | 0.00 | 35 | 1011.1 |
| 20260509172306 | 86 | 58 | 3.0 | 9.0 | 0.00 | 0.00 | 0.00 | 35 | 1011.1 |
| 20260509172204 | 86 | 61 | 3.0 | 9.0 | 0.00 | 0.00 | 0.00 | 35 | 1011.2 |
| 20260509172125 | 86 | 68 | 2.0 | 8.0 | 0.00 | 0.00 | 0.00 | 35 | 1011.1 |
| 20260509172004 | 86 | 80 | 2.0 | 8.0 | 0.00 | 0.00 | 0.00 | 34 | 1011.1 |
| 20260509171904 | 86 | 92 | 2.0 | 5.0 | 0.00 | 0.00 | 0.00 | 34 | 1011.1 |
| 20260509171804 | 86 | 95 | 2.0 | 6.0 | 0.00 | 0.00 | 0.00 | 35 | 1011.1 |
| 20260509171704 | 86 | 89 | 2.0 | 6.0 | 0.00 | 0.00 | 0.00 | 35 | 1011.2 |
| 20260509171604 | 86 | 87 | 2.0 | 6.0 | 0.00 | 0.00 | 0.00 | 34 | 1011.2 |
| 20260509171504 | 86 | 86 | 2.0 | 6.0 | 0.00 | 0.00 | 0.00 | 33 | 1011.2 |
| 20260509171404 | 86 | 87 | 2.0 | 6.0 | 0.00 | 0.00 | 0.00 | 32 | 1011.2 |
| 20260509171304 | 86 | 89 | 3.0 | 6.0 | 0.00 | 0.00 | 0.00 | 32 | 1011.2 |
| 20260509171204 | 86 | 94 | 3.0 | 6.0 | 0.00 | 0.00 | 0.00 | 32 | 1011.2 |
| 20260509171103 | 86 | 95 | 3.0 | 6.0 | 0.00 | 0.00 | 0.00 | 31 | 1011.2 |
| 20260509171004 | 86 | 99 | 2.0 | 6.0 | 0.00 | 0.00 | 0.00 | 31 | 1011.2 |
| 20260509170904 | 86 | 101 | 3.0 | 6.0 | 0.00 | 0.00 | 0.00 | 31 | 1011.2 |
| 20260509170804 | 86 | 106 | 2.0 | 7.0 | 0.00 | 0.00 | 0.00 | 30 | 1011.3 |
| 20260509170704 | 86 | 107 | 2.0 | 7.0 | 0.00 | 0.00 | 0.00 | 28 | 1011.3 |
| 20260509170604 | 85 | 108 | 2.0 | 7.0 | 0.00 | 0.00 | 0.00 | 28 | 1011.2 |
| 20260509170504 | 85 | 105 | 2.0 | 7.0 | 0.00 | 0.00 | 0.00 | 28 | 1011.3 |
| 20260509170404 | 85 | 103 | 2.0 | 7.0 | 0.00 | 0.00 | 0.00 | 27 | 1011.3 |
| 20260509170304 | 85 | 96 | 3.0 | 7.0 | 0.00 | 0.00 | 0.00 | 28 | 1011.2 |
| 20260509170204 | 85 | 87 | 3.0 | 11.0 | 0.00 | 0.00 | 0.00 | 26 | 1011.2 |
| 20260509170104 | 85 | 83 | 3.0 | 11.0 | 0.00 | 0.00 | 0.00 | 27 | 1011.2 |
| 20260509170025 | 85 | 81 | 3.0 | 11.0 | 0.00 | 0.00 | 0.00 | 27 | 1011.3 |
| 20260509165904 | 85 | 77 | 3.0 | 11.0 | 0.00 | 0.00 | 0.00 | 25 | 1011.2 |
| 20260509165804 | 84 | 73 | 3.0 | 11.0 | 0.00 | 0.00 | 0.00 | 26 | 1011.2 |
| 20260509165704 | 84 | 71 | 3.0 | 11.0 | 0.00 | 0.00 | 0.00 | 25 | 1011.3 |
| 20260509165625 | 84 | 70 | 4.0 | 11.0 | 0.00 | 0.00 | 0.00 | 25 | 1011.2 |
| 20260509165504 | 84 | 69 | 3.0 | 11.0 | 0.00 | 0.00 | 0.00 | 25 | 1011.2 |
| 20260509165404 | 84 | 69 | 4.0 | 11.0 | 0.00 | 0.00 | 0.00 | 24 | 1011.2 |
| 20260509165306 | 84 | 68 | 4.0 | 11.0 | 0.00 | 0.00 | 0.00 | 23 | 1011.2 |
| 20260509165204 | 84 | 67 | 3.0 | 9.0 | 0.00 | 0.00 | 0.00 | 24 | 1011.2 |
| 20260509165104 | 84 | 66 | 4.0 | 9.0 | 0.00 | 0.00 | 0.00 | 23 | 1011.2 |
| 20260509165004 | 84 | 67 | 4.0 | 9.0 | 0.00 | 0.00 | 0.00 | 22 | 1011.2 |
| 20260509164904 | 84 | 67 | 4.0 | 9.0 | 0.00 | 0.00 | 0.00 | 23 | 1011.2 |
| 20260509164804 | 84 | 68 | 4.0 | 9.0 | 0.00 | 0.00 | 0.00 | 23 | 1011.2 |
| 20260509164704 | 84 | 70 | 3.0 | 9.0 | 0.00 | 0.00 | 0.00 | 22 | 1011.2 |
| 20260509164604 | 84 | 71 | 3.0 | 9.0 | 0.00 | 0.00 | 0.00 | 21 | 1011.2 |
| 20260509164504 | 84 | 71 | 3.0 | 9.0 | 0.00 | 0.00 | 0.00 | 19 | 1011.2 |
| 20260509164404 | 84 | 71 | 3.0 | 9.0 | 0.00 | 0.00 | 0.00 | 19 | 1011.2 |
| 20260509164304 | 84 | 75 | 3.0 | 8.0 | 0.00 | 0.00 | 0.00 | 19 | 1011.2 |
| 20260509164204 | 84 | 77 | 3.0 | 8.0 | 0.00 | 0.00 | 0.00 | 17 | 1011.3 |
| 20260509164104 | 84 | 80 | 3.0 | 8.0 | 0.00 | 0.00 | 0.00 | 17 | 1011.3 |
| 20260509164004 | 83 | 79 | 3.0 | 8.0 | 0.00 | 0.00 | 0.00 | 15 | 1011.3 |
| 20260509163904 | 83 | 77 | 4.0 | 10.0 | 0.00 | 0.00 | 0.00 | 16 | 1011.3 |
| 20260509163825 | 83 | 73 | 4.0 | 10.0 | 0.00 | 0.00 | 0.00 | 16 | 1011.3 |
| 20260509163704 | 83 | 73 | 4.0 | 10.0 | 0.00 | 0.00 | 0.00 | 15 | 1011.4 |
| 20260509163604 | 83 | 74 | 5.0 | 10.0 | 0.00 | 0.00 | 0.00 | 16 | 1011.4 |
| 20260509163504 | 83 | 74 | 5.0 | 10.0 | 0.00 | 0.00 | 0.00 | 17 | 1011.4 |
| 20260509163425 | 83 | 73 | 5.0 | 10.0 | 0.00 | 0.00 | 0.00 | 16 | 1011.5 |
| 20260509163304 | 83 | 68 | 5.0 | 10.0 | 0.00 | 0.00 | 0.00 | 16 | 1011.5 |
| 20260509163204 | 83 | 65 | 5.0 | 10.0 | 0.00 | 0.00 | 0.00 | 17 | 1011.5 |
| 20260509163104 | 83 | 62 | 5.0 | 10.0 | 0.00 | 0.00 | 0.00 | 18 | 1011.5 |
| 20260509163004 | 83 | 59 | 5.0 | 10.0 | 0.00 | 0.00 | 0.00 | 18 | 1011.5 |
| 20260509162925 | 83 | 55 | 5.0 | 10.0 | 0.00 | 0.00 | 0.00 | 16 | 1011.4 |
| 20260509162804 | 83 | 53 | 5.0 | 9.0 | 0.00 | 0.00 | 0.00 | 14 | 1011.4 |
| 20260509162703 | 83 | 49 | 5.0 | 9.0 | 0.00 | 0.00 | 0.00 | 16 | 1011.4 |
| 20260509162604 | 83 | 43 | 4.0 | 9.0 | 0.00 | 0.00 | 0.00 | 12 | 1011.4 |
| 20260509162504 | 83 | 38 | 4.0 | 8.0 | 0.00 | 0.00 | 0.00 | 12 | 1011.4 |
| 20260509162404 | 83 | 35 | 5.0 | 8.0 | 0.00 | 0.00 | 0.00 | 13 | 1011.4 |
| 20260509162307 | 83 | 35 | 5.0 | 8.0 | 0.00 | 0.00 | 0.00 | 12 | 1011.4 |
| 20260509162204 | 83 | 38 | 5.0 | 8.0 | 0.00 | 0.00 | 0.00 | 11 | 1011.4 |
| 20260509162125 | 83 | 40 | 5.0 | 9.0 | 0.00 | 0.00 | 0.00 | 10 | 1011.4 |
| 20260509162004 | 83 | 42 | 5.0 | 9.0 | 0.00 | 0.00 | 0.00 | 10 | 1011.3 |
| 20260509161925 | 83 | 44 | 5.0 | 11.0 | 0.00 | 0.00 | 0.00 | 10 | 1011.3 |
| 20260509161804 | 82 | 46 | 5.0 | 14.0 | 0.00 | 0.00 | 0.00 | 7 | 1011.3 |
| 20260509161704 | 82 | 49 | 6.0 | 14.0 | 0.00 | 0.00 | 0.00 | 7 | 1011.3 |
| 20260509161604 | 82 | 51 | 6.0 | 14.0 | 0.00 | 0.00 | 0.00 | 9 | 1011.3 |
| 20260509161504 | 82 | 49 | 6.0 | 14.0 | 0.00 | 0.00 | 0.00 | 9 | 1011.3 |
| 20260509161404 | 82 | 50 | 6.0 | 14.0 | 0.00 | 0.00 | 0.00 | 8 | 1011.3 |
| 20260509161304 | 82 | 50 | 6.0 | 14.0 | 0.00 | 0.00 | 0.00 | 8 | 1011.3 |
| 20260509161204 | 82 | 50 | 6.0 | 14.0 | 0.00 | 0.00 | 0.00 | 8 | 1011.3 |
| 20260509161104 | 82 | 48 | 6.0 | 14.0 | 0.00 | 0.00 | 0.00 | 8 | 1011.3 |
| 20260509161004 | 82 | 47 | 6.0 | 14.0 | 0.00 | 0.00 | 0.00 | 9 | 1011.3 |
| 20260509160904 | 82 | 46 | 6.0 | 14.0 | 0.00 | 0.00 | 0.00 | 7 | 1011.4 |
| 20260509160804 | 82 | 46 | 6.0 | 13.0 | 0.00 | 0.00 | 0.00 | 6 | 1011.3 |
| 20260509160704 | 82 | 46 | 6.0 | 13.0 | 0.00 | 0.00 | 0.00 | 4 | 1011.3 |
| 20260509160604 | 82 | 47 | 7.0 | 13.0 | 0.00 | 0.00 | 0.00 | 3 | 1011.3 |
| 20260509160504 | 82 | 51 | 7.0 | 13.0 | 0.00 | 0.00 | 0.00 | 3 | 1011.3 |
| 20260509160404 | 82 | 52 | 7.0 | 13.0 | 0.00 | 0.00 | 0.00 | 3 | 1011.2 |
| 20260509160304 | 82 | 55 | 7.0 | 13.0 | 0.00 | 0.00 | 0.00 | 3 | 1011.2 |
| 20260509160204 | 82 | 56 | 7.0 | 13.0 | 0.00 | 0.00 | 0.00 | 1 | 1011.2 |
| 20260509160104 | 81 | 56 | 8.0 | 13.0 | 0.00 | 0.00 | 0.00 | 3 | 1011.2 |
| 20260509160004 | 81 | 59 | 8.0 | 12.0 | 0.00 | 0.00 | 0.00 | 3 | 1011.2 |
| 20260509155904 | 81 | 62 | 8.0 | 13.0 | 0.00 | 0.00 | 0.00 | 2 | 1011.2 |
| 20260509155804 | 81 | 62 | 8.0 | 15.0 | 0.00 | 0.00 | 0.00 | 1 | 1011.1 |
| 20260509155725 | 81 | 61 | 8.0 | 15.0 | 0.00 | 0.00 | 0.00 | 1 | 1011.1 |
| 20260509155604 | 81 | 58 | 8.0 | 15.0 | 0.00 | 0.00 | 0.00 | 1 | 1011.1 |
| 20260509155504 | 81 | 55 | 7.0 | 15.0 | 0.00 | 0.00 | 0.00 | 1 | 1011.1 |
| 20260509155404 | 81 | 54 | 7.0 | 15.0 | 0.00 | 0.00 | 0.00 | 1 | 1011.1 |
| 20260509155306 | 81 | 51 | 7.0 | 15.0 | 0.00 | 0.00 | 0.00 | 1 | 1011.1 |
| 20260509155204 | 81 | 50 | 7.0 | 15.0 | 0.00 | 0.00 | 0.00 | 1 | 1011.1 |
| 20260509155104 | 81 | 49 | 7.0 | 15.0 | 0.00 | 0.00 | 0.00 | 1 | 1011.2 |
| 20260509155004 | 81 | 45 | 7.0 | 15.0 | 0.00 | 0.00 | 0.00 | 1 | 1011.1 |
| 20260509154904 | 82 | 41 | 6.0 | 15.0 | 0.00 | 0.00 | 0.00 | 1 | 1011.2 |
| 20260509154804 | 82 | 40 | 6.0 | 11.0 | 0.00 | 0.00 | 0.00 | 1 | 1011.2 |
| 20260509154704 | 82 | 40 | 6.0 | 11.0 | 0.00 | 0.00 | 0.00 | 1 | 1011.2 |
| 20260509154604 | 82 | 39 | 5.0 | 11.0 | 0.00 | 0.00 | 0.00 | 1 | 1011.3 |
| 20260509154504 | 82 | 40 | 5.0 | 11.0 | 0.00 | 0.00 | 0.00 | 1 | 1011.3 |
| 20260509154404 | 82 | 40 | 5.0 | 11.0 | 0.00 | 0.00 | 0.00 | 1 | 1011.3 |
| 20260509154304 | 82 | 38 | 5.0 | 11.0 | 0.00 | 0.00 | 0.00 | 1 | 1011.3 |
| 20260509154204 | 82 | 36 | 5.0 | 11.0 | 0.00 | 0.00 | 0.00 | 1 | 1011.3 |
| 20260509154125 | 82 | 36 | 5.0 | 11.0 | 0.00 | 0.00 | 0.00 | 1 | 1011.3 |
| 20260509154004 | 82 | 34 | 5.0 | 13.0 | 0.00 | 0.00 | 0.00 | 1 | 1011.3 |
| 20260509153904 | 81 | 32 | 6.0 | 13.0 | 0.00 | 0.00 | 0.00 | 1 | 1011.3 |
| 20260509153804 | 81 | 32 | 6.0 | 13.0 | 0.00 | 0.00 | 0.00 | 1 | 1011.3 |
| 20260509153704 | 81 | 31 | 6.0 | 13.0 | 0.00 | 0.00 | 0.00 | 1 | 1011.3 |
| 20260509153603 | 81 | 34 | 6.0 | 13.0 | 0.00 | 0.00 | 0.00 | 1 | 1011.2 |
| 20260509153504 | 81 | 36 | 6.0 | 13.0 | 0.00 | 0.00 | 0.00 | 1 | 1011.2 |
| 20260509153404 | 81 | 36 | 6.0 | 13.0 | 0.00 | 0.00 | 0.00 | 1 | 1011.3 |
| 20260509153304 | 81 | 36 | 6.0 | 13.0 | 0.00 | 0.00 | 0.00 | 1 | 1011.2 |
| 20260509153204 | 80 | 37 | 6.0 | 13.0 | 0.00 | 0.00 | 0.00 | 1 | 1011.2 |
| 20260509153125 | 80 | 37 | 6.0 | 13.0 | 0.00 | 0.00 | 0.00 | 1 | 1011.2 |
| 20260509153004 | 80 | 43 | 6.0 | 12.0 | 0.00 | 0.00 | 0.00 | 1 | 1011.1 |
| 20260509152904 | 80 | 45 | 6.0 | 12.0 | 0.00 | 0.00 | 0.00 | 1 | 1011.1 |
| 20260509152804 | 80 | 47 | 5.0 | 12.0 | 0.00 | 0.00 | 0.00 | 1 | 1011.1 |
| 20260509152704 | 80 | 46 | 6.0 | 12.0 | 0.00 | 0.00 | 0.00 | 1 | 1011.1 |
| 20260509152625 | 80 | 45 | 6.0 | 12.0 | 0.00 | 0.00 | 0.00 | 1 | 1011.1 |
| 20260509152504 | 80 | 42 | 6.0 | 12.0 | 0.00 | 0.00 | 0.00 | 1 | 1011.1 |
| 20260509152404 | 80 | 42 | 6.0 | 12.0 | 0.00 | 0.00 | 0.00 | 1 | 1011.1 |
| 20260509152325 | 80 | 42 | 6.0 | 12.0 | 0.00 | 0.00 | 0.00 | 1 | 1011.0 |
| 20260509152204 | 80 | 44 | 6.0 | 12.0 | 0.00 | 0.00 | 0.00 | 1 | 1011.1 |
| 20260509152104 | 80 | 43 | 6.0 | 12.0 | 0.00 | 0.00 | 0.00 | 1 | 1011.1 |
| 20260509152004 | 80 | 41 | 6.0 | 12.0 | 0.00 | 0.00 | 0.00 | 1 | 1011.1 |
| 20260509151904 | 80 | 40 | 6.0 | 12.0 | 0.00 | 0.00 | 0.00 | 1 | 1011.1 |
| 20260509151804 | 80 | 38 | 6.0 | 12.0 | 0.00 | 0.00 | 0.00 | 1 | 1011.1 |
| 20260509151704 | 80 | 40 | 6.0 | 12.0 | 0.00 | 0.00 | 0.00 | 1 | 1011.1 |
| 20260509151604 | 80 | 40 | 6.0 | 12.0 | 0.00 | 0.00 | 0.00 | 1 | 1011.1 |
| 20260509151525 | 80 | 40 | 5.0 | 12.0 | 0.00 | 0.00 | 0.00 | 1 | 1011.1 |
| 20260509151404 | 80 | 42 | 6.0 | 12.0 | 0.00 | 0.00 | 0.00 | 1 | 1011.1 |
| 20260509151304 | 80 | 42 | 5.0 | 12.0 | 0.00 | 0.00 | 0.00 | 1 | 1011.1 |
| 20260509151204 | 80 | 44 | 6.0 | 12.0 | 0.00 | 0.00 | 0.00 | 1 | 1011.1 |
| 20260509151104 | 80 | 44 | 6.0 | 12.0 | 0.00 | 0.00 | 0.00 | 1 | 1011.1 |
| 20260509151004 | 80 | 46 | 6.0 | 11.0 | 0.00 | 0.00 | 0.00 | 1 | 1011.1 |
| 20260509150904 | 79 | 45 | 6.0 | 11.0 | 0.00 | 0.00 | 0.00 | 1 | 1011.1 |
| 20260509150804 | 79 | 47 | 6.0 | 11.0 | 0.00 | 0.00 | 0.00 | 1 | 1011.1 |
| 20260509150704 | 79 | 48 | 6.0 | 11.0 | 0.00 | 0.00 | 0.00 | 1 | 1011.1 |
| 20260509150604 | 78 | 49 | 6.0 | 11.0 | 0.00 | 0.00 | 0.00 | 1 | 1011.1 |
| 20260509150504 | 78 | 52 | 6.0 | 11.0 | 0.00 | 0.00 | 0.00 | 1 | 1011.1 |
| 20260509150404 | 78 | 52 | 6.0 | 11.0 | 0.00 | 0.00 | 0.00 | 1 | 1011.1 |
| 20260509150304 | 78 | 52 | 6.0 | 10.0 | 0.00 | 0.00 | 0.00 | 1 | 1011.1 |
| 20260509150204 | 78 | 51 | 5.0 | 10.0 | 0.00 | 0.00 | 0.00 | 1 | 1011.1 |
| 20260509150104 | 78 | 51 | 5.0 | 9.0 | 0.00 | 0.00 | 0.00 | 1 | 1011.0 |
| 20260509150004 | 78 | 50 | 5.0 | 9.0 | 0.00 | 0.00 | 0.00 | 1 | 1011.1 |
| 20260509145904 | 78 | 51 | 5.0 | 9.0 | 0.00 | 0.00 | 0.00 | 1 | 1011.1 |
| 20260509145804 | 78 | 52 | 5.0 | 9.0 | 0.00 | 0.00 | 0.00 | 1 | 1011.1 |
| 20260509145725 | 78 | 49 | 5.0 | 11.0 | 0.00 | 0.00 | 0.00 | 1 | 1011.1 |
| 20260509145604 | 78 | 46 | 5.0 | 11.0 | 0.00 | 0.00 | 0.00 | 1 | 1011.1 |
| 20260509145504 | 78 | 42 | 5.0 | 11.0 | 0.00 | 0.00 | 0.00 | 1 | 1011.1 |
| 20260509145425 | 78 | 42 | 5.0 | 11.0 | 0.00 | 0.00 | 0.00 | 1 | 1011.1 |
| 20260509145306 | 78 | 40 | 5.0 | 11.0 | 0.00 | 0.00 | 0.00 | 1 | 1011.1 |
| 20260509145204 | 78 | 37 | 5.0 | 11.0 | 0.00 | 0.00 | 0.00 | 1 | 1011.1 |
| 20260509145125 | 77 | 36 | 5.0 | 11.0 | 0.00 | 0.00 | 0.00 | 1 | 1011.1 |
| 20260509145004 | 77 | 35 | 5.0 | 11.0 | 0.00 | 0.00 | 0.00 | 1 | 1011.1 |
| 20260509144704 | 77 | 36 | 5.0 | 10.0 | 0.00 | 0.00 | 0.00 | 1 | 1011.0 |
| 20260509144625 | 77 | 36 | 5.0 | 11.0 | 0.00 | 0.00 | 0.00 | 1 | 1011.0 |
| 20260509144504 | 77 | 30 | 4.0 | 11.0 | 0.00 | 0.00 | 0.00 | 1 | 1011.0 |
| 20260509144404 | 77 | 25 | 4.0 | 11.0 | 0.00 | 0.00 | 0.00 | 1 | 1011.0 |
| 20260509144304 | 77 | 23 | 4.0 | 11.0 | 0.00 | 0.00 | 0.00 | 1 | 1011.0 |
| 20260509144204 | 77 | 26 | 4.0 | 11.0 | 0.00 | 0.00 | 0.00 | 1 | 1011.0 |
| 20260509144125 | 77 | 26 | 4.0 | 11.0 | 0.00 | 0.00 | 0.00 | 1 | 1011.0 |
| 20260509144004 | 76 | 27 | 5.0 | 11.0 | 0.00 | 0.00 | 0.00 | 1 | 1011.0 |
| 20260509143904 | 76 | 24 | 5.0 | 11.0 | 0.00 | 0.00 | 0.00 | 1 | 1011.0 |
| 20260509143804 | 76 | 25 | 5.0 | 11.0 | 0.00 | 0.00 | 0.00 | 1 | 1011.0 |
| 20260509143704 | 76 | 22 | 5.0 | 11.0 | 0.00 | 0.00 | 0.00 | 1 | 1011.0 |
| 20260509143625 | 76 | 21 | 5.0 | 10.0 | 0.00 | 0.00 | 0.00 | 1 | 1011.0 |
| 20260509143504 | 76 | 28 | 5.0 | 10.0 | 0.00 | 0.00 | 0.00 | 1 | 1010.9 |
| 20260509143425 | 76 | 27 | 5.0 | 10.0 | 0.00 | 0.00 | 0.00 | 1 | 1010.9 |
| 20260509143325 | 76 | 29 | 5.0 | 10.0 | 0.00 | 0.00 | 0.00 | 1 | 1010.9 |
| 20260509143204 | 75 | 30 | 5.0 | 10.0 | 0.00 | 0.00 | 0.00 | 1 | 1010.9 |
| 20260509143125 | 75 | 31 | 5.0 | 10.0 | 0.00 | 0.00 | 0.00 | 1 | 1010.9 |
| 20260509143003 | 75 | 32 | 5.0 | 10.0 | 0.00 | 0.00 | 0.00 | 1 | 1010.9 |
| 20260509142904 | 75 | 34 | 5.0 | 10.0 | 0.00 | 0.00 | 0.00 | 1 | 1010.9 |
| 20260509142804 | 75 | 31 | 5.0 | 12.0 | 0.00 | 0.00 | 0.00 | 1 | 1010.9 |
| 20260509142704 | 75 | 30 | 5.0 | 12.0 | 0.00 | 0.00 | 0.00 | 1 | 1010.9 |
| 20260509142604 | 75 | 30 | 5.0 | 12.0 | 0.00 | 0.00 | 0.00 | 1 | 1010.9 |
| 20260509142504 | 75 | 23 | 5.0 | 12.0 | 0.00 | 0.00 | 0.00 | 1 | 1010.9 |
| 20260509142425 | 75 | 21 | 6.0 | 12.0 | 0.00 | 0.00 | 0.00 | 1 | 1010.8 |
| 20260509142307 | 75 | 20 | 6.0 | 12.0 | 0.00 | 0.00 | 0.00 | 1 | 1010.8 |
| 20260509142204 | 75 | 17 | 6.0 | 12.0 | 0.00 | 0.00 | 0.00 | 1 | 1010.8 |
| 20260509142104 | 75 | 11 | 6.0 | 12.0 | 0.00 | 0.00 | 0.00 | 1 | 1010.8 |
| 20260509142025 | 75 | 10 | 5.0 | 12.0 | 0.00 | 0.00 | 0.00 | 1 | 1010.8 |
| 20260509141904 | 76 | 2 | 5.0 | 12.0 | 0.00 | 0.00 | 0.00 | 1 | 1010.8 |
| 20260509141804 | 76 | 358 | 5.0 | 11.0 | 0.00 | 0.00 | 0.00 | 1 | 1010.8 |
| 20260509141704 | 76 | 359 | 5.0 | 11.0 | 0.00 | 0.00 | 0.00 | 1 | 1010.7 |
| 20260509141604 | 76 | 359 | 5.0 | 12.0 | 0.00 | 0.00 | 0.00 | 1 | 1010.6 |
| 20260509141504 | 76 | 1 | 5.0 | 12.0 | 0.00 | 0.00 | 0.00 | 1 | 1010.6 |
| 20260509141425 | 76 | 3 | 5.0 | 12.0 | 0.00 | 0.00 | 0.00 | 1 | 1010.6 |
| 20260509141304 | 76 | 2 | 5.0 | 12.0 | 0.00 | 0.00 | 0.00 | 1 | 1010.6 |
| 20260509141204 | 76 | 1 | 5.0 | 12.0 | 0.00 | 0.00 | 0.00 | 1 | 1010.6 |
| 20260509141104 | 77 | 360 | 5.0 | 12.0 | 0.00 | 0.00 | 0.00 | 1 | 1010.7 |
| 20260509141004 | 77 | 357 | 5.0 | 12.0 | 0.00 | 0.00 | 0.00 | 1 | 1010.7 |
| 20260509140904 | 77 | 357 | 5.0 | 12.0 | 0.00 | 0.00 | 0.00 | 1 | 1010.6 |
| 20260509140825 | 77 | 356 | 5.0 | 12.0 | 0.00 | 0.00 | 0.00 | 1 | 1010.6 |
| 20260509140725 | 77 | 352 | 5.0 | 12.0 | 0.00 | 0.00 | 0.00 | 1 | 1010.5 |
| 20260509140604 | 77 | 345 | 4.0 | 10.0 | 0.00 | 0.00 | 0.00 | 1 | 1010.5 |
| 20260509140504 | 77 | 349 | 4.0 | 10.0 | 0.00 | 0.00 | 0.00 | 1 | 1010.4 |
| 20260509140404 | 77 | 349 | 4.0 | 10.0 | 0.00 | 0.00 | 0.00 | 1 | 1010.4 |
| 20260509140304 | 78 | 353 | 4.0 | 9.0 | 0.00 | 0.00 | 0.00 | 1 | 1010.4 |
| 20260509140204 | 78 | 353 | 4.0 | 9.0 | 0.00 | 0.00 | 0.00 | 1 | 1010.3 |
| 20260509140104 | 78 | 355 | 4.0 | 8.0 | 0.00 | 0.00 | 0.00 | 1 | 1010.3 |
| 20260509140005 | 78 | 3 | 4.0 | 8.0 | 0.00 | 0.00 | 0.00 | 1 | 1010.4 |
| 20260509135904 | 78 | 10 | 4.0 | 8.0 | 0.00 | 0.00 | 0.00 | 1 | 1010.4 |
| 20260509135804 | 78 | 20 | 3.0 | 8.0 | 0.00 | 0.00 | 0.00 | 1 | 1010.4 |
| 20260509135704 | 78 | 28 | 4.0 | 8.0 | 0.00 | 0.00 | 0.00 | 1 | 1010.4 |
| 20260509135604 | 78 | 31 | 4.0 | 7.0 | 0.00 | 0.00 | 0.00 | 1 | 1010.4 |
| 20260509135525 | 78 | 32 | 4.0 | 7.0 | 0.00 | 0.00 | 0.00 | 1 | 1010.4 |
| 20260509135404 | 77 | 33 | 4.0 | 7.0 | 0.00 | 0.00 | 0.00 | 1 | 1010.4 |
| 20260509135306 | 77 | 31 | 4.0 | 7.0 | 0.00 | 0.00 | 0.00 | 1 | 1010.4 |
| 20260509135204 | 77 | 31 | 3.0 | 6.0 | 0.00 | 0.00 | 0.00 | 1 | 1010.4 |
| 20260509135104 | 77 | 32 | 3.0 | 6.0 | 0.00 | 0.00 | 0.00 | 1 | 1010.5 |
| 20260509135004 | 77 | 27 | 3.0 | 6.0 | 0.00 | 0.00 | 0.00 | 1 | 1010.5 |
| 20260509134904 | 77 | 23 | 3.0 | 6.0 | 0.00 | 0.00 | 0.00 | 1 | 1010.5 |
| 20260509134803 | 77 | 16 | 3.0 | 6.0 | 0.00 | 0.00 | 0.00 | 1 | 1010.6 |
| 20260509134703 | 77 | 6 | 3.0 | 8.0 | 0.00 | 0.00 | 0.00 | 1 | 1010.6 |
| 20260509134604 | 77 | 1 | 3.0 | 8.0 | 0.00 | 0.00 | 0.00 | 1 | 1010.6 |
| 20260509134504 | 77 | 340 | 3.0 | 8.0 | 0.00 | 0.00 | 0.00 | 1 | 1010.6 |
| 20260509134404 | 77 | 337 | 3.0 | 8.0 | 0.00 | 0.00 | 0.00 | 1 | 1010.6 |
| 20260509134304 | 77 | 340 | 3.0 | 8.0 | 0.00 | 0.00 | 0.00 | 1 | 1010.6 |
| 20260509134204 | 76 | 347 | 2.0 | 8.0 | 0.00 | 0.00 | 0.00 | 1 | 1010.5 |
| 20260509134104 | 76 | 357 | 2.0 | 8.0 | 0.00 | 0.00 | 0.00 | 1 | 1010.5 |
| 20260509134004 | 76 | 4 | 2.0 | 8.0 | 0.00 | 0.00 | 0.00 | 1 | 1010.5 |
| 20260509133904 | 76 | 16 | 2.0 | 8.0 | 0.00 | 0.00 | 0.00 | 1 | 1010.5 |
| 20260509133804 | 76 | 29 | 2.0 | 8.0 | 0.00 | 0.00 | 0.00 | 1 | 1010.5 |
| 20260509133704 | 76 | 42 | 2.0 | 6.0 | 0.00 | 0.00 | 0.00 | 1 | 1010.5 |
| 20260509133604 | 76 | 46 | 2.0 | 6.0 | 0.00 | 0.00 | 0.00 | 1 | 1010.5 |
| 20260509133504 | 76 | 60 | 2.0 | 5.0 | 0.00 | 0.00 | 0.00 | 1 | 1010.6 |
| 20260509133404 | 76 | 64 | 2.0 | 4.0 | 0.00 | 0.00 | 0.00 | 1 | 1010.7 |
| 20260509133303 | 75 | 66 | 2.0 | 4.0 | 0.00 | 0.00 | 0.00 | 1 | 1010.7 |
| 20260509133204 | 75 | 67 | 2.0 | 4.0 | 0.00 | 0.00 | 0.00 | 1 | 1010.8 |
| 20260509133125 | 75 | 68 | 2.0 | 4.0 | 0.00 | 0.00 | 0.00 | 1 | 1010.9 |
| 20260509133004 | 75 | 71 | 2.0 | 4.0 | 0.00 | 0.00 | 0.00 | 1 | 1010.9 |
| 20260509132925 | 75 | 73 | 2.0 | 4.0 | 0.00 | 0.00 | 0.00 | 1 | 1010.9 |
| 20260509132804 | 75 | 76 | 2.0 | 4.0 | 0.00 | 0.00 | 0.00 | 1 | 1010.8 |
| 20260509132704 | 75 | 77 | 2.0 | 4.0 | 0.00 | 0.00 | 0.00 | 1 | 1010.9 |
| 20260509132604 | 74 | 78 | 2.0 | 4.0 | 0.00 | 0.00 | 0.00 | 1 | 1010.8 |
| 20260509132504 | 74 | 81 | 2.0 | 4.0 | 0.00 | 0.00 | 0.00 | 1 | 1010.8 |
| 20260509132404 | 74 | 84 | 2.0 | 4.0 | 0.00 | 0.00 | 0.00 | 1 | 1010.9 |
| 20260509132306 | 74 | 84 | 2.0 | 4.0 | 0.00 | 0.00 | 0.00 | 1 | 1010.8 |
| 20260509132204 | 74 | 84 | 2.0 | 4.0 | 0.00 | 0.00 | 0.00 | 1 | 1010.9 |
| 20260509132104 | 74 | 84 | 2.0 | 4.0 | 0.00 | 0.00 | 0.00 | 1 | 1010.9 |
| 20260509132025 | 74 | 84 | 2.0 | 4.0 | 0.00 | 0.00 | 0.00 | 1 | 1010.9 |
| 20260509131903 | 74 | 83 | 2.0 | 4.0 | 0.00 | 0.00 | 0.00 | 1 | 1010.9 |
| 20260509131803 | 74 | 83 | 2.0 | 4.0 | 0.00 | 0.00 | 0.00 | 1 | 1010.9 |
| 20260509131704 | 73 | 83 | 2.0 | 4.0 | 0.00 | 0.00 | 0.00 | 1 | 1011.0 |
| 20260509131604 | 73 | 86 | 2.0 | 4.0 | 0.00 | 0.00 | 0.00 | 1 | 1011.0 |
| 20260509131504 | 73 | 87 | 2.0 | 4.0 | 0.00 | 0.00 | 0.00 | 1 | 1011.1 |
| 20260509131404 | 73 | 88 | 2.0 | 4.0 | 0.00 | 0.00 | 0.00 | 1 | 1011.0 |
| 20260509131304 | 73 | 90 | 2.0 | 4.0 | 0.00 | 0.00 | 0.00 | 1 | 1011.1 |
| 20260509131204 | 73 | 92 | 2.0 | 4.0 | 0.00 | 0.00 | 0.00 | 1 | 1011.1 |
| 20260509131104 | 73 | 93 | 1.0 | 4.0 | 0.00 | 0.00 | 0.00 | 1 | 1011.0 |
| 20260509131003 | 73 | 94 | 1.0 | 4.0 | 0.00 | 0.00 | 0.00 | 1 | 1011.1 |
| 20260509130904 | 73 | 96 | 1.0 | 4.0 | 0.00 | 0.00 | 0.00 | 1 | 1011.1 |
| 20260509130804 | 73 | 99 | 1.0 | 4.0 | 0.00 | 0.00 | 0.00 | 1 | 1011.0 |
| 20260509130725 | 73 | 104 | 1.0 | 4.0 | 0.00 | 0.00 | 0.00 | 1 | 1011.1 |
| 20260509130625 | 73 | 107 | 0.0 | 3.0 | 0.00 | 0.00 | 0.00 | 1 | 1011.1 |
| 20260509130504 | 73 | 107 | 0.0 | 2.0 | 0.00 | 0.00 | 0.00 | 1 | 1011.1 |
| 20260509130404 | 73 | 106 | 0.0 | 2.0 | 0.00 | 0.00 | 0.00 | 1 | 1011.2 |
| 20260509130304 | 73 | 105 | 0.0 | 2.0 | 0.00 | 0.00 | 0.00 | 1 | 1011.2 |
| 20260509130204 | 73 | 0 | 0.0 | 0.0 | 0.00 | 0.00 | 0.00 | 1 | 1011.2 |
| 20260509130104 | 73 | 0 | 0.0 | 0.0 | 0.00 | 0.00 | 0.00 | 1 | 1011.1 |
| 20260509130004 | 73 | 0 | 0.0 | 0.0 | 0.00 | 0.00 | 0.00 | 1 | 1011.1 |
| 20260509125904 | 73 | 0 | 0.0 | 0.0 | 0.00 | 0.00 | 0.00 | 1 | 1011.1 |
| 20260509125804 | 72 | 0 | 0.0 | 0.0 | 0.00 | 0.00 | 0.00 | 1 | 1011.1 |
| 20260509125704 | 72 | 0 | 0.0 | 0.0 | 0.00 | 0.00 | 0.00 | 1 | 1011.0 |
| 20260509125625 | 72 | 0 | 0.0 | 0.0 | 0.00 | 0.00 | 0.00 | 1 | 1011.0 |
| 20260509125504 | 72 | 0 | 0.0 | 0.0 | 0.00 | 0.00 | 0.00 | 1 | 1011.0 |
| 20260509125404 | 72 | 0 | 0.0 | 0.0 | 0.00 | 0.00 | 0.00 | 1 | 1011.1 |
| 20260509125307 | 72 | 0 | 0.0 | 0.0 | 0.00 | 0.00 | 0.00 | 1 | 1011.1 |
| 20260509125203 | 72 | 0 | 0.0 | 0.0 | 0.00 | 0.00 | 0.00 | 1 | 1011.0 |
| 20260509125104 | 72 | 0 | 0.0 | 0.0 | 0.00 | 0.00 | 0.00 | 1 | 1011.1 |
| 20260509125004 | 72 | 0 | 0.0 | 0.0 | 0.00 | 0.00 | 0.00 | 1 | 1011.0 |
| 20260509124904 | 72 | 0 | 0.0 | 0.0 | 0.00 | 0.00 | 0.00 | 1 | 1011.0 |
| 20260509124803 | 72 | 0 | 0.0 | 0.0 | 0.00 | 0.00 | 0.00 | 1 | 1011.0 |
| 20260509124704 | 72 | 0 | 0.0 | 0.0 | 0.00 | 0.00 | 0.00 | 1 | 1011.0 |
| 20260509124604 | 72 | 0 | 0.0 | 0.0 | 0.00 | 0.00 | 0.00 | 1 | 1011.0 |
| 20260509124504 | 72 | 0 | 0.0 | 0.0 | 0.00 | 0.00 | 0.00 | 1 | 1010.9 |
| 20260509124404 | 72 | 0 | 0.0 | 0.0 | 0.00 | 0.00 | 0.00 | 1 | 1010.7 |
| 20260509124304 | 72 | 0 | 0.0 | 0.0 | 0.00 | 0.00 | 0.00 | 1 | 1010.7 |
| 20260509124204 | 72 | 0 | 0.0 | 0.0 | 0.00 | 0.00 | 0.00 | 1 | 1010.7 |
| 20260509124125 | 72 | 0 | 0.0 | 0.0 | 0.00 | 0.00 | 0.00 | 1 | 1010.6 |
| 20260509124003 | 72 | 0 | 0.0 | 0.0 | 0.00 | 0.00 | 0.00 | 1 | 1010.6 |
| 20260509123904 | 72 | 0 | 0.0 | 0.0 | 0.00 | 0.00 | 0.00 | 1 | 1010.7 |
| 20260509123804 | 72 | 0 | 0.0 | 3.0 | 0.00 | 0.00 | 0.00 | 1 | 1010.6 |
| 20260509123703 | 72 | 0 | 0.0 | 3.0 | 0.00 | 0.00 | 0.00 | 1 | 1010.6 |
| 20260509123604 | 72 | 0 | 0.0 | 3.0 | 0.00 | 0.00 | 0.00 | 1 | 1010.6 |
| 20260509123504 | 72 | 0 | 0.0 | 3.0 | 0.00 | 0.00 | 0.00 | 1 | 1010.7 |
| 20260509123404 | 72 | 0 | 0.0 | 3.0 | 0.00 | 0.00 | 0.00 | 1 | 1010.7 |
| 20260509123304 | 72 | 0 | 0.0 | 3.0 | 0.00 | 0.00 | 0.00 | 1 | 1010.7 |
| 20260509123204 | 73 | 203 | 0.0 | 3.0 | 0.00 | 0.00 | 0.00 | 1 | 1010.7 |
| 20260509123104 | 73 | 203 | 0.0 | 3.0 | 0.00 | 0.00 | 0.00 | 1 | 1010.7 |
| 20260509123003 | 73 | 203 | 0.0 | 3.0 | 0.00 | 0.00 | 0.00 | 1 | 1010.7 |
| 20260509122904 | 73 | 203 | 0.0 | 3.0 | 0.00 | 0.00 | 0.00 | 1 | 1010.7 |
| 20260509122803 | 73 | 203 | 0.0 | 3.0 | 0.00 | 0.00 | 0.00 | 1 | 1010.7 |
| 20260509122704 | 72 | 203 | 0.0 | 3.0 | 0.00 | 0.00 | 0.00 | 1 | 1010.6 |
| 20260509122604 | 72 | 203 | 0.0 | 3.0 | 0.00 | 0.00 | 0.00 | 1 | 1010.6 |
| 20260509122504 | 72 | 203 | 1.0 | 3.0 | 0.00 | 0.00 | 0.00 | 1 | 1010.6 |
| 20260509122403 | 72 | 203 | 1.0 | 4.0 | 0.00 | 0.00 | 0.00 | 1 | 1010.7 |
| 20260509122306 | 72 | 203 | 1.0 | 4.0 | 0.00 | 0.00 | 0.00 | 1 | 1010.7 |
| 20260509122203 | 72 | 203 | 1.0 | 4.0 | 0.00 | 0.00 | 0.00 | 1 | 1010.7 |
| 20260509122125 | 72 | 202 | 1.0 | 4.0 | 0.00 | 0.00 | 0.00 | 1 | 1010.7 |
| 20260509122025 | 72 | 202 | 1.0 | 4.0 | 0.00 | 0.00 | 0.00 | 1 | 1010.8 |
| 20260509121903 | 72 | 202 | 1.0 | 4.0 | 0.00 | 0.00 | 0.00 | 1 | 1010.7 |
| 20260509121804 | 72 | 201 | 1.0 | 4.0 | 0.00 | 0.00 | 0.00 | 1 | 1010.7 |
| 20260509121703 | 72 | 201 | 1.0 | 4.0 | 0.00 | 0.00 | 0.00 | 1 | 1010.6 |
| 20260509121604 | 72 | 201 | 1.0 | 4.0 | 0.00 | 0.00 | 0.00 | 1 | 1010.5 |
| 20260509121504 | 72 | 201 | 1.0 | 4.0 | 0.00 | 0.00 | 0.00 | 1 | 1010.5 |
| 20260509121425 | 72 | 200 | 0.0 | 3.0 | 0.00 | 0.00 | 0.00 | 1 | 1010.5 |
| 20260509121304 | 72 | 198 | 0.0 | 3.0 | 0.00 | 0.00 | 0.00 | 1 | 1010.5 |
| 20260509121204 | 72 | 192 | 0.0 | 2.0 | 0.00 | 0.00 | 0.00 | 1 | 1010.6 |
| 20260509121104 | 72 | 0 | 0.0 | 0.0 | 0.00 | 0.00 | 0.00 | 1 | 1010.6 |
| 20260509121003 | 72 | 0 | 0.0 | 0.0 | 0.00 | 0.00 | 0.00 | 1 | 1010.7 |
| 20260509120925 | 72 | 0 | 0.0 | 0.0 | 0.00 | 0.00 | 0.00 | 1 | 1010.6 |
| 20260509120803 | 72 | 0 | 0.0 | 0.0 | 0.00 | 0.00 | 0.00 | 1 | 1010.6 |
| 20260509120704 | 72 | 0 | 0.0 | 0.0 | 0.00 | 0.00 | 0.00 | 1 | 1010.6 |
| 20260509120624 | 72 | 0 | 0.0 | 0.0 | 0.00 | 0.00 | 0.00 | 1 | 1010.6 |
| 20260509120504 | 72 | 0 | 0.0 | 0.0 | 0.00 | 0.00 | 0.00 | 1 | 1010.6 |
| 20260509120404 | 72 | 0 | 0.0 | 0.0 | 0.00 | 0.00 | 0.00 | 1 | 1010.7 |
| 20260509120325 | 72 | 0 | 0.0 | 0.0 | 0.00 | 0.00 | 0.00 | 1 | 1010.7 |
| 20260509120224 | 72 | 0 | 0.0 | 0.0 | 0.00 | 0.00 | 0.00 | 1 | 1010.7 |
| 20260509120104 | 72 | 0 | 0.0 | 0.0 | 0.00 | 0.00 | 0.00 | 1 | 1010.7 |
| 20260509120004 | 72 | 0 | 0.0 | 0.0 | 0.00 | 0.00 | 0.00 | 1 | 1010.6 |
| 20260509115904 | 72 | 0 | 0.0 | 0.0 | 0.00 | 0.00 | 0.00 | 1 | 1010.7 |
| 20260509115804 | 72 | 0 | 0.0 | 0.0 | 0.00 | 0.00 | 0.00 | 1 | 1010.7 |
| 20260509115704 | 72 | 0 | 0.0 | 0.0 | 0.00 | 0.00 | 0.00 | 1 | 1010.7 |
| 20260509115604 | 72 | 0 | 0.0 | 0.0 | 0.00 | 0.00 | 0.00 | 1 | 1010.7 |
| 20260509115504 | 72 | 0 | 0.0 | 0.0 | 0.00 | 0.00 | 0.00 | 1 | 1010.7 |
| 20260509115403 | 72 | 163 | 0.0 | 4.0 | 0.00 | 0.00 | 0.00 | 1 | 1010.7 |
| 20260509115306 | 72 | 163 | 0.0 | 4.0 | 0.00 | 0.00 | 0.00 | 1 | 1010.7 |
| 20260509115204 | 72 | 163 | 0.0 | 4.0 | 0.00 | 0.00 | 0.00 | 1 | 1010.7 |
| 20260509115104 | 72 | 163 | 0.0 | 4.0 | 0.00 | 0.00 | 0.00 | 1 | 1010.8 |
| 20260509115004 | 72 | 163 | 0.0 | 4.0 | 0.00 | 0.00 | 0.00 | 1 | 1010.9 |
| 20260509114925 | 72 | 163 | 0.0 | 4.0 | 0.00 | 0.00 | 0.00 | 1 | 1011.0 |
| 20260509114804 | 72 | 163 | 0.0 | 4.0 | 0.00 | 0.00 | 0.00 | 1 | 1011.0 |
| 20260509114725 | 72 | 160 | 1.0 | 4.0 | 0.00 | 0.00 | 0.00 | 1 | 1011.1 |
| 20260509114604 | 72 | 154 | 1.0 | 6.0 | 0.00 | 0.00 | 0.00 | 1 | 1011.2 |
| 20260509114504 | 72 | 152 | 1.0 | 6.0 | 0.00 | 0.00 | 0.00 | 1 | 1011.3 |
| 20260509114404 | 72 | 150 | 1.0 | 6.0 | 0.00 | 0.00 | 0.00 | 1 | 1011.3 |
| 20260509114325 | 72 | 149 | 1.0 | 6.0 | 0.00 | 0.00 | 0.00 | 1 | 1011.3 |
| 20260509114204 | 72 | 149 | 1.0 | 6.0 | 0.00 | 0.00 | 0.00 | 1 | 1011.3 |
| 20260509114104 | 72 | 149 | 1.0 | 6.0 | 0.00 | 0.00 | 0.00 | 1 | 1011.3 |
| 20260509114004 | 72 | 149 | 2.0 | 6.0 | 0.00 | 0.00 | 0.00 | 1 | 1011.3 |
| 20260509113925 | 72 | 149 | 2.0 | 6.0 | 0.00 | 0.00 | 0.00 | 1 | 1011.4 |
| 20260509113825 | 72 | 149 | 2.0 | 6.0 | 0.00 | 0.00 | 0.00 | 1 | 1011.4 |
| 20260509113704 | 72 | 150 | 2.0 | 6.0 | 0.00 | 0.00 | 0.00 | 1 | 1011.4 |
| 20260509113604 | 72 | 150 | 2.0 | 6.0 | 0.00 | 0.00 | 0.00 | 1 | 1011.4 |
| 20260509113503 | 72 | 150 | 2.0 | 6.0 | 0.00 | 0.00 | 0.00 | 1 | 1011.3 |
| 20260509113404 | 72 | 150 | 2.0 | 6.0 | 0.00 | 0.00 | 0.00 | 1 | 1011.4 |
| 20260509113304 | 72 | 151 | 2.0 | 6.0 | 0.00 | 0.00 | 0.00 | 1 | 1011.4 |
| 20260509113225 | 72 | 151 | 2.0 | 6.0 | 0.00 | 0.00 | 0.00 | 1 | 1011.5 |
| 20260509113104 | 72 | 150 | 2.0 | 6.0 | 0.00 | 0.00 | 0.00 | 1 | 1011.6 |
| 20260509113004 | 72 | 149 | 2.0 | 6.0 | 0.00 | 0.00 | 0.00 | 1 | 1011.6 |
| 20260509112904 | 72 | 149 | 2.0 | 6.0 | 0.00 | 0.00 | 0.00 | 1 | 1011.6 |
| 20260509112804 | 72 | 149 | 2.0 | 6.0 | 0.00 | 0.00 | 0.00 | 1 | 1011.6 |
| 20260509112704 | 72 | 148 | 2.0 | 6.0 | 0.00 | 0.00 | 0.00 | 1 | 1011.7 |
| 20260509112604 | 72 | 150 | 2.0 | 5.0 | 0.00 | 0.00 | 0.00 | 1 | 1011.7 |
| 20260509112504 | 72 | 149 | 2.0 | 5.0 | 0.00 | 0.00 | 0.00 | 1 | 1011.8 |
| 20260509112404 | 72 | 149 | 2.0 | 5.0 | 0.00 | 0.00 | 0.00 | 1 | 1011.9 |
| 20260509112306 | 72 | 150 | 2.0 | 5.0 | 0.00 | 0.00 | 0.00 | 1 | 1011.9 |
| 20260509112225 | 72 | 150 | 3.0 | 5.0 | 0.00 | 0.00 | 0.00 | 1 | 1011.9 |
| 20260509112103 | 72 | 154 | 2.0 | 5.0 | 0.00 | 0.00 | 0.00 | 1 | 1012.0 |
| 20260509112004 | 72 | 175 | 2.0 | 5.0 | 0.00 | 0.00 | 0.00 | 1 | 1012.0 |
| 20260509111904 | 72 | 292 | 2.0 | 5.0 | 0.00 | 0.00 | 0.00 | 1 | 1012.0 |
| 20260509111804 | 72 | 314 | 2.0 | 5.0 | 0.00 | 0.00 | 0.00 | 1 | 1012.0 |
| 20260509111703 | 72 | 319 | 2.0 | 5.0 | 0.00 | 0.00 | 0.00 | 1 | 1012.0 |
| 20260509111604 | 72 | 324 | 2.0 | 5.0 | 0.00 | 0.00 | 0.00 | 1 | 1012.0 |
| 20260509111504 | 72 | 325 | 2.0 | 5.0 | 0.00 | 0.00 | 0.00 | 1 | 1012.0 |
| 20260509111404 | 72 | 325 | 2.0 | 4.0 | 0.00 | 0.00 | 0.00 | 1 | 1011.9 |
| 20260509111304 | 72 | 325 | 2.0 | 4.0 | 0.00 | 0.00 | 0.00 | 1 | 1011.9 |
| 20260509111204 | 72 | 325 | 2.0 | 4.0 | 0.00 | 0.00 | 0.00 | 1 | 1011.9 |
| 20260509111104 | 72 | 325 | 1.0 | 4.0 | 0.00 | 0.00 | 0.00 | 1 | 1011.9 |
| 20260509111004 | 72 | 326 | 1.0 | 3.0 | 0.00 | 0.00 | 0.00 | 1 | 1011.9 |
| 20260509110904 | 72 | 326 | 1.0 | 3.0 | 0.00 | 0.00 | 0.00 | 1 | 1011.8 |
| 20260509110825 | 72 | 326 | 1.0 | 3.0 | 0.00 | 0.00 | 0.00 | 1 | 1011.9 |
| 20260509110704 | 72 | 326 | 1.0 | 3.0 | 0.00 | 0.00 | 0.00 | 1 | 1011.9 |
| 20260509110604 | 72 | 326 | 0.0 | 3.0 | 0.00 | 0.00 | 0.00 | 1 | 1011.9 |
| 20260509110503 | 72 | 326 | 0.0 | 3.0 | 0.00 | 0.00 | 0.00 | 1 | 1011.9 |
| 20260509110404 | 72 | 326 | 0.0 | 2.0 | 0.00 | 0.00 | 0.00 | 1 | 1011.9 |
| 20260509110304 | 72 | 326 | 0.0 | 1.0 | 0.00 | 0.00 | 0.00 | 1 | 1011.8 |
| 20260509110203 | 72 | 326 | 0.0 | 1.0 | 0.00 | 0.00 | 0.00 | 1 | 1011.8 |
| 20260509110104 | 72 | 326 | 0.0 | 2.0 | 0.00 | 0.00 | 0.00 | 1 | 1011.8 |
| 20260509110004 | 72 | 326 | 1.0 | 2.0 | 0.00 | 0.00 | 0.00 | 1 | 1011.9 |
| 20260509105903 | 72 | 326 | 1.0 | 2.0 | 0.00 | 0.00 | 0.00 | 1 | 1011.8 |
| 20260509105825 | 72 | 326 | 1.0 | 2.0 | 0.00 | 0.00 | 0.00 | 1 | 1011.7 |
| 20260509105704 | 72 | 326 | 1.0 | 3.0 | 0.00 | 0.00 | 0.00 | 1 | 1011.8 |
| 20260509105604 | 72 | 326 | 1.0 | 3.0 | 0.00 | 0.00 | 0.00 | 1 | 1011.7 |
| 20260509105503 | 72 | 326 | 1.0 | 3.0 | 0.00 | 0.00 | 0.00 | 1 | 1011.7 |
| 20260509105425 | 72 | 326 | 1.0 | 3.0 | 0.00 | 0.00 | 0.00 | 1 | 1011.8 |
| 20260509105306 | 72 | 326 | 1.0 | 3.0 | 0.00 | 0.00 | 0.00 | 1 | 1011.9 |
| 20260509105204 | 72 | 326 | 1.0 | 3.0 | 0.00 | 0.00 | 0.00 | 1 | 1012.0 |
| 20260509105103 | 72 | 326 | 1.0 | 3.0 | 0.00 | 0.00 | 0.00 | 1 | 1012.0 |
| 20260509105004 | 72 | 326 | 1.0 | 3.0 | 0.00 | 0.00 | 0.00 | 1 | 1012.0 |
| 20260509104904 | 72 | 326 | 1.0 | 3.0 | 0.00 | 0.00 | 0.00 | 1 | 1012.1 |
| 20260509104803 | 72 | 326 | 1.0 | 3.0 | 0.00 | 0.00 | 0.00 | 1 | 1012.1 |
| 20260509104704 | 72 | 326 | 1.0 | 3.0 | 0.00 | 0.00 | 0.00 | 1 | 1012.1 |
| 20260509104604 | 72 | 326 | 1.0 | 3.0 | 0.00 | 0.00 | 0.00 | 1 | 1012.1 |
| 20260509104503 | 72 | 326 | 1.0 | 3.0 | 0.00 | 0.00 | 0.00 | 1 | 1012.0 |
| 20260509104425 | 72 | 326 | 1.0 | 3.0 | 0.00 | 0.00 | 0.00 | 1 | 1012.0 |
| 20260509104304 | 72 | 326 | 1.0 | 3.0 | 0.00 | 0.00 | 0.00 | 1 | 1012.0 |
| 20260509104204 | 72 | 326 | 1.0 | 3.0 | 0.00 | 0.00 | 0.00 | 1 | 1012.0 |
| 20260509104108 | 72 | 326 | 1.0 | 3.0 | 0.00 | 0.00 | 0.00 | 1 | 1011.9 |
| 20260509104004 | 72 | 326 | 1.0 | 3.0 | 0.00 | 0.00 | 0.00 | 1 | 1011.9 |
| 20260509103905 | 72 | 326 | 0.0 | 3.0 | 0.00 | 0.00 | 0.00 | 1 | 1011.9 |
| 20260509103804 | 72 | 326 | 0.0 | 3.0 | 0.00 | 0.00 | 0.00 | 1 | 1011.9 |
| 20260509103703 | 72 | 326 | 0.0 | 3.0 | 0.00 | 0.00 | 0.00 | 1 | 1011.8 |
| 20260509103604 | 72 | 0 | 0.0 | 0.0 | 0.00 | 0.00 | 0.00 | 1 | 1011.8 |
| 20260509103504 | 72 | 0 | 0.0 | 0.0 | 0.00 | 0.00 | 0.00 | 1 | 1011.9 |
| 20260509103404 | 72 | 0 | 0.0 | 0.0 | 0.00 | 0.00 | 0.00 | 1 | 1011.9 |
| 20260509103304 | 72 | 0 | 0.0 | 0.0 | 0.00 | 0.00 | 0.00 | 1 | 1012.0 |
| 20260509103225 | 72 | 0 | 0.0 | 0.0 | 0.00 | 0.00 | 0.00 | 1 | 1012.0 |
| 20260509103104 | 72 | 0 | 0.0 | 0.0 | 0.00 | 0.00 | 0.00 | 1 | 1012.0 |
| 20260509103004 | 72 | 0 | 0.0 | 0.0 | 0.00 | 0.00 | 0.00 | 1 | 1012.0 |
| 20260509102904 | 73 | 0 | 0.0 | 0.0 | 0.00 | 0.00 | 0.00 | 1 | 1012.0 |
| 20260509102804 | 73 | 0 | 0.0 | 0.0 | 0.00 | 0.00 | 0.00 | 1 | 1012.0 |
| 20260509102704 | 73 | 0 | 0.0 | 0.0 | 0.00 | 0.00 | 0.00 | 1 | 1012.0 |
| 20260509102625 | 73 | 0 | 0.0 | 0.0 | 0.00 | 0.00 | 0.00 | 1 | 1012.0 |
| 20260509102525 | 72 | 0 | 0.0 | 0.0 | 0.00 | 0.00 | 0.00 | 1 | 1012.1 |
| 20260509102425 | 72 | 0 | 0.0 | 0.0 | 0.00 | 0.00 | 0.00 | 1 | 1012.1 |
| 20260509102305 | 72 | 0 | 0.0 | 0.0 | 0.00 | 0.00 | 0.00 | 1 | 1012.0 |
| 20260509102225 | 72 | 0 | 0.0 | 0.0 | 0.00 | 0.00 | 0.00 | 1 | 1012.0 |
| 20260509102104 | 72 | 0 | 0.0 | 0.0 | 0.00 | 0.00 | 0.00 | 1 | 1012.0 |
| 20260509102004 | 72 | 0 | 0.0 | 0.0 | 0.00 | 0.00 | 0.00 | 1 | 1012.0 |
| 20260509101903 | 72 | 0 | 0.0 | 0.0 | 0.00 | 0.00 | 0.00 | 1 | 1012.0 |
| 20260509101804 | 72 | 0 | 0.0 | 0.0 | 0.00 | 0.00 | 0.00 | 1 | 1012.0 |
| 20260509101704 | 72 | 0 | 0.0 | 0.0 | 0.00 | 0.00 | 0.00 | 1 | 1011.9 |
| 20260509101604 | 72 | 0 | 0.0 | 0.0 | 0.00 | 0.00 | 0.00 | 1 | 1011.9 |
| 20260509101503 | 72 | 0 | 0.0 | 0.0 | 0.00 | 0.00 | 0.00 | 1 | 1011.9 |
| 20260509101404 | 72 | 0 | 0.0 | 0.0 | 0.00 | 0.00 | 0.00 | 1 | 1011.9 |
| 20260509101303 | 72 | 0 | 0.0 | 0.0 | 0.00 | 0.00 | 0.00 | 1 | 1011.8 |
| 20260509101204 | 72 | 0 | 0.0 | 0.0 | 0.00 | 0.00 | 0.00 | 1 | 1011.8 |
| 20260509101104 | 72 | 0 | 0.0 | 0.0 | 0.00 | 0.00 | 0.00 | 1 | 1011.7 |
| 20260509101004 | 72 | 0 | 0.0 | 0.0 | 0.00 | 0.00 | 0.00 | 1 | 1011.7 |
| 20260509100903 | 72 | 0 | 0.0 | 0.0 | 0.00 | 0.00 | 0.00 | 1 | 1011.7 |
| 20260509100804 | 72 | 0 | 0.0 | 0.0 | 0.00 | 0.00 | 0.00 | 1 | 1011.6 |
| 20260509100704 | 72 | 0 | 0.0 | 0.0 | 0.00 | 0.00 | 0.00 | 1 | 1011.6 |
| 20260509100624 | 72 | 0 | 0.0 | 0.0 | 0.00 | 0.00 | 0.00 | 1 | 1011.5 |
| 20260509100524 | 72 | 0 | 0.0 | 0.0 | 0.00 | 0.00 | 0.00 | 1 | 1011.5 |
| 20260509100404 | 72 | 0 | 0.0 | 0.0 | 0.00 | 0.00 | 0.00 | 1 | 1011.4 |
| 20260509100304 | 72 | 0 | 0.0 | 0.0 | 0.00 | 0.00 | 0.00 | 1 | 1011.4 |
| 20260509100225 | 72 | 0 | 0.0 | 0.0 | 0.00 | 0.00 | 0.00 | 1 | 1011.3 |
| 20260509100103 | 72 | 0 | 0.0 | 0.0 | 0.00 | 0.00 | 0.00 | 1 | 1011.3 |
| 20260509100004 | 72 | 0 | 0.0 | 0.0 | 0.00 | 0.00 | 0.00 | 1 | 1011.3 |
| 20260509095903 | 72 | 0 | 0.0 | 0.0 | 0.00 | 0.00 | 0.00 | 1 | 1011.2 |
| 20260509095803 | 72 | 0 | 0.0 | 0.0 | 0.00 | 0.00 | 0.00 | 1 | 1011.1 |
| 20260509095725 | 72 | 0 | 0.0 | 0.0 | 0.00 | 0.00 | 0.00 | 1 | 1011.1 |
| 20260509095603 | 72 | 0 | 0.0 | 0.0 | 0.00 | 0.00 | 0.00 | 1 | 1011.1 |
| 20260509095504 | 72 | 0 | 0.0 | 0.0 | 0.00 | 0.00 | 0.00 | 1 | 1011.1 |
| 20260509095404 | 72 | 0 | 0.0 | 0.0 | 0.00 | 0.00 | 0.00 | 1 | 1011.0 |
| 20260509095325 | 72 | 0 | 0.0 | 0.0 | 0.00 | 0.00 | 0.00 | 1 | 1011.0 |
| 20260509095225 | 72 | 0 | 0.0 | 0.0 | 0.00 | 0.00 | 0.00 | 1 | 1011.0 |
| 20260509095104 | 72 | 0 | 0.0 | 0.0 | 0.00 | 0.00 | 0.00 | 1 | 1011.0 |
| 20260509095025 | 72 | 0 | 0.0 | 0.0 | 0.00 | 0.00 | 0.00 | 1 | 1010.9 |
| 20260509094904 | 72 | 0 | 0.0 | 0.0 | 0.00 | 0.00 | 0.00 | 1 | 1010.9 |
| 20260509094804 | 72 | 0 | 0.0 | 0.0 | 0.00 | 0.00 | 0.00 | 1 | 1010.9 |
| 20260509094703 | 72 | 0 | 0.0 | 0.0 | 0.00 | 0.00 | 0.00 | 1 | 1010.8 |
| 20260509094604 | 72 | 0 | 0.0 | 0.0 | 0.00 | 0.00 | 0.00 | 1 | 1010.7 |
| 20260509094504 | 72 | 0 | 0.0 | 0.0 | 0.00 | 0.00 | 0.00 | 1 | 1010.7 |
| 20260509094404 | 72 | 0 | 0.0 | 0.0 | 0.00 | 0.00 | 0.00 | 1 | 1010.6 |
| 20260509094303 | 72 | 0 | 0.0 | 0.0 | 0.00 | 0.00 | 0.00 | 1 | 1010.6 |
| 20260509094204 | 72 | 0 | 0.0 | 0.0 | 0.00 | 0.00 | 0.00 | 1 | 1010.6 |
| 20260509094103 | 72 | 0 | 0.0 | 0.0 | 0.00 | 0.00 | 0.00 | 1 | 1010.5 |
| 20260509094004 | 72 | 0 | 0.0 | 0.0 | 0.00 | 0.00 | 0.00 | 1 | 1010.5 |
| 20260509093904 | 72 | 0 | 0.0 | 0.0 | 0.00 | 0.00 | 0.00 | 1 | 1010.5 |
| 20260509093825 | 72 | 0 | 0.0 | 0.0 | 0.00 | 0.00 | 0.00 | 1 | 1010.5 |
| 20260509093704 | 72 | 0 | 0.0 | 0.0 | 0.00 | 0.00 | 0.00 | 1 | 1010.5 |
| 20260509093604 | 72 | 0 | 0.0 | 0.0 | 0.00 | 0.00 | 0.00 | 1 | 1010.5 |
| 20260509093504 | 72 | 0 | 0.0 | 0.0 | 0.00 | 0.00 | 0.00 | 1 | 1010.6 |
| 20260509093403 | 72 | 0 | 0.0 | 0.0 | 0.00 | 0.00 | 0.00 | 1 | 1010.5 |
| 20260509093303 | 72 | 0 | 0.0 | 0.0 | 0.00 | 0.00 | 0.00 | 1 | 1010.4 |
| 20260509093204 | 72 | 0 | 0.0 | 0.0 | 0.00 | 0.00 | 0.00 | 1 | 1010.4 |
| 20260509093104 | 72 | 0 | 0.0 | 0.0 | 0.00 | 0.00 | 0.00 | 1 | 1010.4 |
| 20260509093003 | 72 | 0 | 0.0 | 0.0 | 0.00 | 0.00 | 0.00 | 1 | 1010.4 |
| 20260509092904 | 72 | 0 | 0.0 | 0.0 | 0.00 | 0.00 | 0.00 | 1 | 1010.4 |
| 20260509092824 | 72 | 0 | 0.0 | 0.0 | 0.00 | 0.00 | 0.00 | 1 | 1010.4 |
| 20260509092704 | 72 | 0 | 0.0 | 0.0 | 0.00 | 0.00 | 0.00 | 1 | 1010.4 |
| 20260509092603 | 72 | 0 | 0.0 | 0.0 | 0.00 | 0.00 | 0.00 | 1 | 1010.4 |
| 20260509092504 | 72 | 0 | 0.0 | 0.0 | 0.00 | 0.00 | 0.00 | 1 | 1010.4 |
| 20260509092403 | 72 | 0 | 0.0 | 0.0 | 0.00 | 0.00 | 0.00 | 1 | 1010.4 |
| 20260509092305 | 72 | 0 | 0.0 | 0.0 | 0.00 | 0.00 | 0.00 | 1 | 1010.4 |
| 20260509092204 | 72 | 0 | 0.0 | 0.0 | 0.00 | 0.00 | 0.00 | 1 | 1010.3 |
| 20260509092103 | 72 | 0 | 0.0 | 0.0 | 0.00 | 0.00 | 0.00 | 1 | 1010.4 |
| 20260509092004 | 72 | 0 | 0.0 | 0.0 | 0.00 | 0.00 | 0.00 | 1 | 1010.3 |
| 20260509091925 | 72 | 0 | 0.0 | 0.0 | 0.00 | 0.00 | 0.00 | 1 | 1010.3 |
| 20260509091804 | 72 | 0 | 0.0 | 0.0 | 0.00 | 0.00 | 0.00 | 1 | 1010.4 |
| 20260509091704 | 72 | 0 | 0.0 | 0.0 | 0.00 | 0.00 | 0.00 | 1 | 1010.3 |
| 20260509091604 | 72 | 0 | 0.0 | 0.0 | 0.00 | 0.00 | 0.00 | 1 | 1010.4 |
| 20260509091504 | 72 | 0 | 0.0 | 0.0 | 0.00 | 0.00 | 0.00 | 1 | 1010.3 |
| 20260509091404 | 72 | 0 | 0.0 | 0.0 | 0.00 | 0.00 | 0.00 | 1 | 1010.4 |
| 20260509091325 | 72 | 0 | 0.0 | 0.0 | 0.00 | 0.00 | 0.00 | 1 | 1010.4 |
| 20260509091203 | 72 | 0 | 0.0 | 0.0 | 0.00 | 0.00 | 0.00 | 1 | 1010.4 |
| 20260509091103 | 72 | 0 | 0.0 | 0.0 | 0.00 | 0.00 | 0.00 | 1 | 1010.4 |
| 20260509091025 | 72 | 0 | 0.0 | 0.0 | 0.00 | 0.00 | 0.00 | 1 | 1010.4 |
| 20260509090924 | 72 | 0 | 0.0 | 0.0 | 0.00 | 0.00 | 0.00 | 1 | 1010.5 |
| 20260509090804 | 72 | 0 | 0.0 | 0.0 | 0.00 | 0.00 | 0.00 | 1 | 1010.4 |
| 20260509090704 | 72 | 0 | 0.0 | 0.0 | 0.00 | 0.00 | 0.00 | 1 | 1010.4 |
| 20260509090625 | 72 | 0 | 0.0 | 0.0 | 0.00 | 0.00 | 0.00 | 1 | 1010.4 |
| 20260509090525 | 72 | 0 | 0.0 | 0.0 | 0.00 | 0.00 | 0.00 | 1 | 1010.4 |
| 20260509090404 | 72 | 0 | 0.0 | 0.0 | 0.00 | 0.00 | 0.00 | 1 | 1010.4 |
| 20260509090324 | 72 | 0 | 0.0 | 0.0 | 0.00 | 0.00 | 0.00 | 1 | 1010.4 |
| 20260509090203 | 72 | 0 | 0.0 | 0.0 | 0.00 | 0.00 | 0.00 | 1 | 1010.5 |
| 20260509090125 | 72 | 0 | 0.0 | 0.0 | 0.00 | 0.00 | 0.00 | 1 | 1010.5 |
| 20260509090004 | 72 | 0 | 0.0 | 0.0 | 0.00 | 0.00 | 0.00 | 1 | 1010.4 |
| 20260509085925 | 72 | 0 | 0.0 | 0.0 | 0.00 | 0.00 | 0.00 | 1 | 1010.4 |
| 20260509085803 | 72 | 0 | 0.0 | 0.0 | 0.00 | 0.00 | 0.00 | 1 | 1010.4 |
| 20260509085703 | 72 | 0 | 0.0 | 0.0 | 0.00 | 0.00 | 0.00 | 1 | 1010.4 |
| 20260509085603 | 72 | 0 | 0.0 | 0.0 | 0.00 | 0.00 | 0.00 | 1 | 1010.5 |
| 20260509085504 | 72 | 0 | 0.0 | 0.0 | 0.00 | 0.00 | 0.00 | 1 | 1010.5 |
| 20260509085425 | 72 | 0 | 0.0 | 0.0 | 0.00 | 0.00 | 0.00 | 1 | 1010.5 |
| 20260509085306 | 72 | 0 | 0.0 | 0.0 | 0.00 | 0.00 | 0.00 | 1 | 1010.6 |
| 20260509085203 | 72 | 0 | 0.0 | 0.0 | 0.00 | 0.00 | 0.00 | 1 | 1010.6 |
| 20260509085104 | 72 | 0 | 0.0 | 0.0 | 0.00 | 0.00 | 0.00 | 1 | 1010.6 |
| 20260509085003 | 72 | 0 | 0.0 | 0.0 | 0.00 | 0.00 | 0.00 | 1 | 1010.5 |
| 20260509084904 | 72 | 0 | 0.0 | 0.0 | 0.00 | 0.00 | 0.00 | 1 | 1010.5 |
| 20260509084804 | 72 | 0 | 0.0 | 0.0 | 0.00 | 0.00 | 0.00 | 1 | 1010.5 |
| 20260509084704 | 72 | 0 | 0.0 | 0.0 | 0.00 | 0.00 | 0.00 | 1 | 1010.5 |
| 20260509084604 | 72 | 0 | 0.0 | 0.0 | 0.00 | 0.00 | 0.00 | 1 | 1010.6 |
| 20260509084503 | 72 | 0 | 0.0 | 0.0 | 0.00 | 0.00 | 0.00 | 1 | 1010.5 |
| 20260509084404 | 72 | 0 | 0.0 | 0.0 | 0.00 | 0.00 | 0.00 | 1 | 1010.5 |
| 20260509084303 | 72 | 0 | 0.0 | 0.0 | 0.00 | 0.00 | 0.00 | 1 | 1010.6 |
| 20260509084225 | 72 | 0 | 0.0 | 0.0 | 0.00 | 0.00 | 0.00 | 1 | 1010.6 |
| 20260509084104 | 72 | 0 | 0.0 | 0.0 | 0.00 | 0.00 | 0.00 | 1 | 1010.6 |
| 20260509084025 | 72 | 0 | 0.0 | 0.0 | 0.00 | 0.00 | 0.00 | 1 | 1010.7 |
| 20260509083904 | 72 | 0 | 0.0 | 0.0 | 0.00 | 0.00 | 0.00 | 1 | 1010.7 |
| 20260509083804 | 72 | 0 | 0.0 | 0.0 | 0.00 | 0.00 | 0.00 | 1 | 1010.7 |
| 20260509083724 | 72 | 0 | 0.0 | 0.0 | 0.00 | 0.00 | 0.00 | 1 | 1010.6 |
| 20260509083625 | 72 | 0 | 0.0 | 0.0 | 0.00 | 0.00 | 0.00 | 1 | 1010.7 |
| 20260509083504 | 72 | 0 | 0.0 | 0.0 | 0.00 | 0.00 | 0.00 | 1 | 1010.8 |
| 20260509083403 | 73 | 0 | 0.0 | 0.0 | 0.00 | 0.00 | 0.00 | 1 | 1010.9 |
| 20260509083304 | 73 | 0 | 0.0 | 0.0 | 0.00 | 0.00 | 0.00 | 1 | 1010.9 |
| 20260509083204 | 73 | 0 | 0.0 | 0.0 | 0.00 | 0.00 | 0.00 | 1 | 1010.9 |
| 20260509083104 | 73 | 0 | 0.0 | 0.0 | 0.00 | 0.00 | 0.00 | 1 | 1010.9 |
| 20260509083024 | 73 | 0 | 0.0 | 0.0 | 0.00 | 0.00 | 0.00 | 1 | 1010.9 |
| 20260509082924 | 73 | 0 | 0.0 | 0.0 | 0.00 | 0.00 | 0.00 | 1 | 1011.0 |
| 20260509082803 | 72 | 0 | 0.0 | 0.0 | 0.00 | 0.00 | 0.00 | 1 | 1011.0 |
| 20260509082704 | 72 | 0 | 0.0 | 0.0 | 0.00 | 0.00 | 0.00 | 1 | 1011.1 |
| 20260509082603 | 72 | 0 | 0.0 | 0.0 | 0.00 | 0.00 | 0.00 | 1 | 1011.1 |
| 20260509082504 | 72 | 0 | 0.0 | 0.0 | 0.00 | 0.00 | 0.00 | 1 | 1011.1 |
| 20260509082425 | 72 | 0 | 0.0 | 0.0 | 0.00 | 0.00 | 0.00 | 1 | 1011.1 |
| 20260509082306 | 72 | 0 | 0.0 | 0.0 | 0.00 | 0.00 | 0.00 | 1 | 1011.2 |
| 20260509082204 | 72 | 0 | 0.0 | 0.0 | 0.00 | 0.00 | 0.00 | 1 | 1011.1 |
| 20260509082125 | 72 | 0 | 0.0 | 0.0 | 0.00 | 0.00 | 0.00 | 1 | 1011.1 |
| 20260509082004 | 72 | 0 | 0.0 | 0.0 | 0.00 | 0.00 | 0.00 | 1 | 1011.0 |
| 20260509081903 | 72 | 0 | 0.0 | 0.0 | 0.00 | 0.00 | 0.00 | 1 | 1010.9 |
| 20260509081804 | 72 | 0 | 0.0 | 0.0 | 0.00 | 0.00 | 0.00 | 1 | 1010.8 |
| 20260509081704 | 72 | 0 | 0.0 | 0.0 | 0.00 | 0.00 | 0.00 | 1 | 1010.8 |
| 20260509081604 | 72 | 0 | 0.0 | 0.0 | 0.00 | 0.00 | 0.00 | 1 | 1010.8 |
| 20260509081503 | 72 | 0 | 0.0 | 0.0 | 0.00 | 0.00 | 0.00 | 1 | 1010.8 |
| 20260509081404 | 72 | 0 | 0.0 | 0.0 | 0.00 | 0.00 | 0.00 | 1 | 1010.8 |
| 20260509081304 | 72 | 0 | 0.0 | 0.0 | 0.00 | 0.00 | 0.00 | 1 | 1010.8 |
| 20260509081203 | 72 | 0 | 0.0 | 0.0 | 0.00 | 0.00 | 0.00 | 1 | 1010.8 |
| 20260509081104 | 72 | 0 | 0.0 | 0.0 | 0.00 | 0.00 | 0.00 | 1 | 1010.8 |
| 20260509081004 | 72 | 0 | 0.0 | 0.0 | 0.00 | 0.00 | 0.00 | 1 | 1010.9 |
| 20260509080904 | 72 | 0 | 0.0 | 0.0 | 0.00 | 0.00 | 0.00 | 1 | 1010.9 |
| 20260509080804 | 72 | 0 | 0.0 | 0.0 | 0.00 | 0.00 | 0.00 | 1 | 1010.9 |
| 20260509080703 | 72 | 0 | 0.0 | 0.0 | 0.00 | 0.00 | 0.00 | 1 | 1011.0 |
| 20260509080604 | 72 | 0 | 0.0 | 0.0 | 0.00 | 0.00 | 0.00 | 1 | 1010.9 |
| 20260509080504 | 72 | 0 | 0.0 | 0.0 | 0.00 | 0.00 | 0.00 | 1 | 1011.0 |
| 20260509080403 | 72 | 0 | 0.0 | 0.0 | 0.00 | 0.00 | 0.00 | 1 | 1011.0 |
| 20260509080303 | 72 | 0 | 0.0 | 0.0 | 0.00 | 0.00 | 0.00 | 1 | 1011.0 |
| 20260509080204 | 72 | 0 | 0.0 | 0.0 | 0.00 | 0.00 | 0.00 | 1 | 1011.0 |
| 20260509080104 | 72 | 0 | 0.0 | 0.0 | 0.00 | 0.00 | 0.00 | 1 | 1011.0 |
| 20260509080004 | 72 | 0 | 0.0 | 0.0 | 0.00 | 0.00 | 0.00 | 1 | 1010.9 |
| 20260509075903 | 72 | 0 | 0.0 | 0.0 | 0.00 | 0.00 | 0.00 | 1 | 1010.9 |
| 20260509075804 | 72 | 0 | 0.0 | 0.0 | 0.00 | 0.00 | 0.00 | 1 | 1011.0 |
| 20260509075725 | 72 | 0 | 0.0 | 0.0 | 0.00 | 0.00 | 0.00 | 1 | 1011.1 |
| 20260509075603 | 72 | 0 | 0.0 | 0.0 | 0.00 | 0.00 | 0.00 | 1 | 1011.1 |
| 20260509075525 | 72 | 0 | 0.0 | 0.0 | 0.00 | 0.00 | 0.00 | 1 | 1011.1 |
| 20260509075403 | 72 | 0 | 0.0 | 0.0 | 0.00 | 0.00 | 0.00 | 1 | 1011.1 |
| 20260509075306 | 72 | 0 | 0.0 | 0.0 | 0.00 | 0.00 | 0.00 | 1 | 1011.2 |
| 20260509075204 | 72 | 0 | 0.0 | 0.0 | 0.00 | 0.00 | 0.00 | 1 | 1011.1 |
| 20260509075104 | 72 | 0 | 0.0 | 0.0 | 0.00 | 0.00 | 0.00 | 1 | 1011.2 |
| 20260509075004 | 72 | 0 | 0.0 | 0.0 | 0.00 | 0.00 | 0.00 | 1 | 1011.1 |
| 20260509074924 | 72 | 0 | 0.0 | 0.0 | 0.00 | 0.00 | 0.00 | 1 | 1011.1 |
| 20260509074804 | 72 | 0 | 0.0 | 0.0 | 0.00 | 0.00 | 0.00 | 1 | 1011.0 |
| 20260509074704 | 72 | 0 | 0.0 | 0.0 | 0.00 | 0.00 | 0.00 | 1 | 1011.0 |
| 20260509074624 | 72 | 0 | 0.0 | 0.0 | 0.00 | 0.00 | 0.00 | 1 | 1011.0 |
| 20260509074503 | 72 | 0 | 0.0 | 0.0 | 0.00 | 0.00 | 0.00 | 1 | 1011.0 |
| 20260509074424 | 72 | 0 | 0.0 | 0.0 | 0.00 | 0.00 | 0.00 | 1 | 1011.0 |
| 20260509074303 | 72 | 0 | 0.0 | 0.0 | 0.00 | 0.00 | 0.00 | 1 | 1011.1 |
| 20260509074203 | 72 | 0 | 0.0 | 0.0 | 0.00 | 0.00 | 0.00 | 1 | 1011.1 |
| 20260509074103 | 72 | 0 | 0.0 | 0.0 | 0.00 | 0.00 | 0.00 | 1 | 1011.1 |
| 20260509074004 | 72 | 0 | 0.0 | 0.0 | 0.00 | 0.00 | 0.00 | 1 | 1011.1 |
| 20260509073903 | 72 | 326 | 0.0 | 1.0 | 0.00 | 0.00 | 0.00 | 1 | 1011.1 |
| 20260509073804 | 72 | 326 | 0.0 | 1.0 | 0.00 | 0.00 | 0.00 | 1 | 1011.1 |
| 20260509073704 | 72 | 326 | 0.0 | 1.0 | 0.00 | 0.00 | 0.00 | 1 | 1011.1 |
| 20260509073604 | 72 | 326 | 0.0 | 1.0 | 0.00 | 0.00 | 0.00 | 1 | 1011.1 |
| 20260509073504 | 72 | 326 | 0.0 | 2.0 | 0.00 | 0.00 | 0.00 | 1 | 1011.2 |
| 20260509073403 | 72 | 326 | 1.0 | 2.0 | 0.00 | 0.00 | 0.00 | 1 | 1011.1 |
| 20260509073304 | 72 | 326 | 1.0 | 2.0 | 0.00 | 0.00 | 0.00 | 1 | 1011.2 |
| 20260509073203 | 72 | 326 | 1.0 | 2.0 | 0.00 | 0.00 | 0.00 | 1 | 1011.1 |
| 20260509073104 | 72 | 326 | 1.0 | 2.0 | 0.00 | 0.00 | 0.00 | 1 | 1011.2 |
| 20260509073004 | 73 | 326 | 1.0 | 2.0 | 0.00 | 0.00 | 0.00 | 1 | 1011.2 |
| 20260509072903 | 73 | 326 | 1.0 | 2.0 | 0.00 | 0.00 | 0.00 | 1 | 1011.2 |
| 20260509072804 | 73 | 326 | 1.0 | 2.0 | 0.00 | 0.00 | 0.00 | 1 | 1011.3 |
| 20260509072703 | 73 | 326 | 1.0 | 2.0 | 0.00 | 0.00 | 0.00 | 1 | 1011.3 |
| 20260509072603 | 73 | 326 | 0.0 | 2.0 | 0.00 | 0.00 | 0.00 | 1 | 1011.3 |
| 20260509072524 | 73 | 326 | 0.0 | 2.0 | 0.00 | 0.00 | 0.00 | 1 | 1011.3 |
| 20260509072403 | 73 | 326 | 0.0 | 2.0 | 0.00 | 0.00 | 0.00 | 1 | 1011.3 |
| 20260509072306 | 73 | 326 | 0.0 | 1.0 | 0.00 | 0.00 | 0.00 | 1 | 1011.3 |
| 20260509072203 | 73 | 326 | 0.0 | 1.0 | 0.00 | 0.00 | 0.00 | 1 | 1011.3 |
| 20260509072104 | 73 | 0 | 0.0 | 0.0 | 0.00 | 0.00 | 0.00 | 1 | 1011.3 |
| 20260509072003 | 73 | 326 | 0.0 | 1.0 | 0.00 | 0.00 | 0.00 | 1 | 1011.3 |
| 20260509071903 | 73 | 326 | 0.0 | 1.0 | 0.00 | 0.00 | 0.00 | 1 | 1011.4 |
| 20260509071803 | 73 | 326 | 0.0 | 1.0 | 0.00 | 0.00 | 0.00 | 1 | 1011.4 |
| 20260509071703 | 73 | 326 | 0.0 | 1.0 | 0.00 | 0.00 | 0.00 | 1 | 1011.4 |
| 20260509071604 | 73 | 326 | 0.0 | 1.0 | 0.00 | 0.00 | 0.00 | 1 | 1011.4 |
| 20260509071504 | 73 | 326 | 0.0 | 1.0 | 0.00 | 0.00 | 0.00 | 1 | 1011.3 |
| 20260509071403 | 73 | 326 | 0.0 | 1.0 | 0.00 | 0.00 | 0.00 | 1 | 1011.3 |
| 20260509071324 | 73 | 326 | 0.0 | 1.0 | 0.00 | 0.00 | 0.00 | 1 | 1011.4 |
| 20260509071204 | 73 | 326 | 0.0 | 1.0 | 0.00 | 0.00 | 0.00 | 1 | 1011.4 |
| 20260509071125 | 73 | 326 | 0.0 | 1.0 | 0.00 | 0.00 | 0.00 | 1 | 1011.4 |
| 20260509071003 | 73 | 326 | 0.0 | 1.0 | 0.00 | 0.00 | 0.00 | 1 | 1011.3 |
| 20260509070904 | 73 | 326 | 0.0 | 1.0 | 0.00 | 0.00 | 0.00 | 1 | 1011.3 |
| 20260509070804 | 73 | 326 | 0.0 | 1.0 | 0.00 | 0.00 | 0.00 | 1 | 1011.4 |
| 20260509070725 | 73 | 326 | 0.0 | 1.0 | 0.00 | 0.00 | 0.00 | 1 | 1011.4 |
| 20260509070604 | 73 | 326 | 0.0 | 1.0 | 0.00 | 0.00 | 0.00 | 1 | 1011.4 |
| 20260509070503 | 73 | 326 | 0.0 | 1.0 | 0.00 | 0.00 | 0.00 | 1 | 1011.4 |
| 20260509070403 | 73 | 326 | 0.0 | 1.0 | 0.00 | 0.00 | 0.00 | 1 | 1011.4 |
| 20260509070303 | 73 | 326 | 0.0 | 1.0 | 0.00 | 0.00 | 0.00 | 1 | 1011.4 |
| 20260509070225 | 73 | 326 | 0.0 | 1.0 | 0.00 | 0.00 | 0.00 | 1 | 1011.4 |
| 20260509070104 | 73 | 326 | 0.0 | 1.0 | 0.00 | 0.00 | 0.00 | 1 | 1011.4 |
| 20260509070003 | 73 | 326 | 0.0 | 1.0 | 0.00 | 0.00 | 0.00 | 1 | 1011.3 |
| 20260509065904 | 73 | 326 | 0.0 | 1.0 | 0.00 | 0.00 | 0.00 | 1 | 1011.3 |
| 20260509065805 | 73 | 326 | 0.0 | 1.0 | 0.00 | 0.00 | 0.00 | 1 | 1011.2 |
| 20260509065704 | 73 | 326 | 0.0 | 1.0 | 0.00 | 0.00 | 0.00 | 1 | 1011.2 |
| 20260509065603 | 73 | 0 | 0.0 | 0.0 | 0.00 | 0.00 | 0.00 | 1 | 1011.1 |
| 20260509065504 | 73 | 0 | 0.0 | 0.0 | 0.00 | 0.00 | 0.00 | 1 | 1011.1 |
| 20260509065403 | 73 | 0 | 0.0 | 0.0 | 0.00 | 0.00 | 0.00 | 1 | 1011.0 |
| 20260509065325 | 73 | 0 | 0.0 | 0.0 | 0.00 | 0.00 | 0.00 | 1 | 1011.0 |
| 20260509065203 | 73 | 0 | 0.0 | 0.0 | 0.00 | 0.00 | 0.00 | 1 | 1011.0 |
| 20260509065104 | 73 | 0 | 0.0 | 0.0 | 0.00 | 0.00 | 0.00 | 1 | 1010.9 |
| 20260509065025 | 73 | 0 | 0.0 | 0.0 | 0.00 | 0.00 | 0.00 | 1 | 1010.9 |
| 20260509064904 | 73 | 0 | 0.0 | 0.0 | 0.00 | 0.00 | 0.00 | 1 | 1010.9 |
| 20260509064803 | 73 | 0 | 0.0 | 0.0 | 0.00 | 0.00 | 0.00 | 1 | 1010.9 |
| 20260509064703 | 73 | 0 | 0.0 | 0.0 | 0.00 | 0.00 | 0.00 | 1 | 1011.0 |
| 20260509064603 | 73 | 0 | 0.0 | 0.0 | 0.00 | 0.00 | 0.00 | 1 | 1010.9 |
| 20260509064503 | 73 | 326 | 0.0 | 1.0 | 0.00 | 0.00 | 0.00 | 1 | 1010.9 |
| 20260509064424 | 73 | 326 | 0.0 | 2.0 | 0.00 | 0.00 | 0.00 | 1 | 1010.9 |
| 20260509064304 | 73 | 326 | 0.0 | 2.0 | 0.00 | 0.00 | 0.00 | 1 | 1010.9 |
| 20260509064203 | 73 | 326 | 1.0 | 4.0 | 0.00 | 0.00 | 0.00 | 1 | 1010.9 |
| 20260509064104 | 73 | 330 | 1.0 | 6.0 | 0.00 | 0.00 | 0.00 | 1 | 1010.9 |
| 20260509064004 | 73 | 330 | 1.0 | 6.0 | 0.00 | 0.00 | 0.00 | 1 | 1010.9 |
| 20260509063904 | 73 | 329 | 1.0 | 6.0 | 0.00 | 0.00 | 0.00 | 1 | 1010.9 |
| 20260509063825 | 73 | 325 | 2.0 | 6.0 | 0.00 | 0.00 | 0.00 | 1 | 1011.0 |
| 20260509063704 | 73 | 321 | 2.0 | 6.0 | 0.00 | 0.00 | 0.00 | 1 | 1011.0 |
| 20260509063604 | 73 | 320 | 2.0 | 6.0 | 0.00 | 0.00 | 0.00 | 1 | 1011.1 |
| 20260509063504 | 73 | 318 | 2.0 | 6.0 | 0.00 | 0.00 | 0.00 | 1 | 1011.1 |
| 20260509063404 | 73 | 315 | 2.0 | 6.0 | 0.00 | 0.00 | 0.00 | 1 | 1011.1 |
| 20260509063304 | 73 | 311 | 2.0 | 6.0 | 0.00 | 0.00 | 0.00 | 1 | 1011.1 |
| 20260509063204 | 73 | 306 | 2.0 | 6.0 | 0.00 | 0.00 | 0.00 | 1 | 1011.2 |
| 20260509063103 | 73 | 300 | 2.0 | 5.0 | 0.00 | 0.00 | 0.00 | 1 | 1011.1 |
| 20260509063004 | 73 | 300 | 2.0 | 5.0 | 0.00 | 0.00 | 0.00 | 1 | 1011.1 |
| 20260509062903 | 73 | 301 | 2.0 | 5.0 | 0.00 | 0.00 | 0.00 | 1 | 1011.1 |
| 20260509062804 | 73 | 304 | 2.0 | 5.0 | 0.00 | 0.00 | 0.00 | 1 | 1011.1 |
| 20260509062704 | 73 | 306 | 2.0 | 5.0 | 0.00 | 0.00 | 0.00 | 1 | 1011.0 |
| 20260509062604 | 73 | 307 | 2.0 | 5.0 | 0.00 | 0.00 | 0.00 | 1 | 1011.0 |
| 20260509062504 | 73 | 308 | 2.0 | 5.0 | 0.00 | 0.00 | 0.00 | 1 | 1011.0 |
| 20260509062404 | 73 | 310 | 2.0 | 5.0 | 0.00 | 0.00 | 0.00 | 1 | 1011.0 |
| 20260509062306 | 73 | 313 | 2.0 | 8.0 | 0.00 | 0.00 | 0.00 | 1 | 1010.9 |
| 20260509062204 | 73 | 321 | 2.0 | 8.0 | 0.00 | 0.00 | 0.00 | 1 | 1010.9 |
| 20260509062103 | 73 | 324 | 2.0 | 8.0 | 0.00 | 0.00 | 0.00 | 1 | 1010.8 |
| 20260509062004 | 73 | 325 | 3.0 | 8.0 | 0.00 | 0.00 | 0.00 | 1 | 1010.7 |
| 20260509061924 | 73 | 326 | 3.0 | 8.0 | 0.00 | 0.00 | 0.00 | 1 | 1010.8 |
| 20260509061804 | 73 | 329 | 3.0 | 8.0 | 0.00 | 0.00 | 0.00 | 1 | 1010.8 |
| 20260509061703 | 73 | 333 | 3.0 | 8.0 | 0.00 | 0.00 | 0.00 | 1 | 1010.8 |
| 20260509061603 | 73 | 338 | 3.0 | 8.0 | 0.00 | 0.00 | 0.00 | 1 | 1010.7 |
| 20260509061504 | 73 | 344 | 3.0 | 8.0 | 0.00 | 0.00 | 0.00 | 1 | 1010.8 |
| 20260509061404 | 73 | 349 | 3.0 | 8.0 | 0.00 | 0.00 | 0.00 | 1 | 1010.8 |
| 20260509061325 | 73 | 349 | 3.0 | 8.0 | 0.00 | 0.00 | 0.00 | 1 | 1010.8 |
| 20260509061224 | 73 | 356 | 3.0 | 8.0 | 0.00 | 0.00 | 0.00 | 1 | 1010.7 |
| 20260509061103 | 73 | 5 | 3.0 | 8.0 | 0.00 | 0.00 | 0.00 | 1 | 1010.8 |
| 20260509061004 | 73 | 16 | 3.0 | 8.0 | 0.00 | 0.00 | 0.00 | 1 | 1010.7 |
| 20260509060904 | 73 | 21 | 3.0 | 8.0 | 0.00 | 0.00 | 0.00 | 1 | 1010.7 |
| 20260509060824 | 73 | 23 | 3.0 | 8.0 | 0.00 | 0.00 | 0.00 | 1 | 1010.7 |
| 20260509060704 | 73 | 25 | 4.0 | 8.0 | 0.00 | 0.00 | 0.00 | 1 | 1010.6 |
| 20260509060603 | 73 | 25 | 4.0 | 8.0 | 0.00 | 0.00 | 0.00 | 1 | 1010.6 |
| 20260509060504 | 73 | 28 | 4.0 | 8.0 | 0.00 | 0.00 | 0.00 | 1 | 1010.6 |
| 20260509060404 | 73 | 29 | 3.0 | 8.0 | 0.00 | 0.00 | 0.00 | 1 | 1010.6 |
| 20260509060303 | 73 | 34 | 3.0 | 8.0 | 0.00 | 0.00 | 0.00 | 1 | 1010.6 |
| 20260509060204 | 73 | 33 | 3.0 | 8.0 | 0.00 | 0.00 | 0.00 | 1 | 1010.6 |
| 20260509060104 | 73 | 32 | 3.0 | 8.0 | 0.00 | 0.00 | 0.00 | 1 | 1010.6 |
| 20260509060005 | 73 | 33 | 3.0 | 8.0 | 0.00 | 0.00 | 0.00 | 1 | 1010.6 |
| 20260509055903 | 73 | 35 | 2.0 | 8.0 | 0.00 | 0.00 | 0.00 | 1 | 1010.7 |
| 20260509055804 | 73 | 37 | 3.0 | 7.0 | 0.00 | 0.00 | 0.00 | 1 | 1010.7 |
| 20260509055725 | 73 | 34 | 3.0 | 8.0 | 0.00 | 0.00 | 0.00 | 1 | 1010.7 |
| 20260509055603 | 73 | 35 | 3.0 | 8.0 | 0.00 | 0.00 | 0.00 | 1 | 1010.7 |
| 20260509055504 | 73 | 35 | 3.0 | 8.0 | 0.00 | 0.00 | 0.00 | 1 | 1010.8 |
| 20260509055424 | 73 | 34 | 3.0 | 8.0 | 0.00 | 0.00 | 0.00 | 1 | 1010.8 |
| 20260509055306 | 73 | 26 | 4.0 | 9.0 | 0.00 | 0.00 | 0.00 | 1 | 1010.7 |
| 20260509055204 | 73 | 26 | 4.0 | 9.0 | 0.00 | 0.00 | 0.00 | 1 | 1010.7 |
| 20260509055103 | 73 | 23 | 5.0 | 9.0 | 0.00 | 0.00 | 0.00 | 1 | 1010.7 |
| 20260509055003 | 74 | 15 | 5.0 | 12.0 | 0.00 | 0.00 | 0.00 | 1 | 1010.8 |
| 20260509054904 | 74 | 15 | 5.0 | 12.0 | 0.00 | 0.00 | 0.00 | 1 | 1010.8 |
| 20260509054803 | 74 | 12 | 5.0 | 12.0 | 0.00 | 0.00 | 0.00 | 1 | 1010.9 |
| 20260509054704 | 74 | 11 | 5.0 | 12.0 | 0.00 | 0.00 | 0.00 | 1 | 1010.9 |
| 20260509054604 | 74 | 10 | 5.0 | 12.0 | 0.00 | 0.00 | 0.00 | 1 | 1010.8 |
| 20260509054503 | 74 | 5 | 5.0 | 12.0 | 0.00 | 0.00 | 0.00 | 1 | 1010.8 |
| 20260509054403 | 74 | 358 | 5.0 | 12.0 | 0.00 | 0.00 | 0.00 | 1 | 1010.7 |
| 20260509054303 | 74 | 3 | 5.0 | 12.0 | 0.00 | 0.00 | 0.00 | 1 | 1010.6 |
| 20260509054204 | 74 | 5 | 4.0 | 12.0 | 0.00 | 0.00 | 0.00 | 1 | 1010.7 |
| 20260509054103 | 74 | 8 | 4.0 | 12.0 | 0.00 | 0.00 | 0.00 | 1 | 1010.5 |
| 20260509054004 | 74 | 17 | 4.0 | 8.0 | 0.00 | 0.00 | 0.00 | 1 | 1010.4 |
| 20260509053904 | 74 | 18 | 3.0 | 7.0 | 0.00 | 0.00 | 0.00 | 1 | 1010.4 |
| 20260509053803 | 74 | 20 | 3.0 | 7.0 | 0.00 | 0.00 | 0.00 | 1 | 1010.4 |
| 20260509053703 | 74 | 23 | 3.0 | 7.0 | 0.00 | 0.00 | 0.00 | 1 | 1010.3 |
| 20260509053603 | 74 | 23 | 3.0 | 7.0 | 0.00 | 0.00 | 0.00 | 1 | 1010.3 |
| 20260509053504 | 74 | 27 | 3.0 | 6.0 | 0.00 | 0.00 | 0.00 | 1 | 1010.3 |
| 20260509053404 | 74 | 35 | 3.0 | 6.0 | 0.00 | 0.00 | 0.00 | 1 | 1010.2 |
| 20260509053303 | 74 | 33 | 3.0 | 7.0 | 0.00 | 0.00 | 0.00 | 1 | 1010.2 |
| 20260509053225 | 74 | 29 | 3.0 | 7.0 | 0.00 | 0.00 | 0.00 | 1 | 1010.2 |
| 20260509053104 | 74 | 22 | 3.0 | 7.0 | 0.00 | 0.00 | 0.00 | 1 | 1010.2 |
| 20260509053024 | 74 | 20 | 3.0 | 7.0 | 0.00 | 0.00 | 0.00 | 1 | 1010.1 |
| 20260509052904 | 74 | 12 | 3.0 | 7.0 | 0.00 | 0.00 | 0.00 | 1 | 1010.1 |
| 20260509052804 | 74 | 9 | 3.0 | 7.0 | 0.00 | 0.00 | 0.00 | 1 | 1010.1 |
| 20260509052724 | 74 | 7 | 3.0 | 7.0 | 0.00 | 0.00 | 0.00 | 1 | 1010.1 |
| 20260509052603 | 74 | 4 | 3.0 | 7.0 | 0.00 | 0.00 | 0.00 | 1 | 1010.1 |
| 20260509052503 | 74 | 360 | 3.0 | 7.0 | 0.00 | 0.00 | 0.00 | 1 | 1010.1 |
| 20260509052403 | 74 | 358 | 3.0 | 7.0 | 0.00 | 0.00 | 0.00 | 1 | 1010.2 |
| 20260509052306 | 74 | 355 | 2.0 | 7.0 | 0.00 | 0.00 | 0.00 | 1 | 1010.1 |
| 20260509052203 | 74 | 357 | 2.0 | 5.0 | 0.00 | 0.00 | 0.00 | 1 | 1010.2 |
| 20260509052104 | 74 | 358 | 2.0 | 5.0 | 0.00 | 0.00 | 0.00 | 1 | 1010.1 |
| 20260509052003 | 74 | 360 | 2.0 | 5.0 | 0.00 | 0.00 | 0.00 | 1 | 1010.1 |
| 20260509051904 | 74 | 2 | 2.0 | 5.0 | 0.00 | 0.00 | 0.00 | 1 | 1010.1 |
| 20260509051804 | 74 | 2 | 2.0 | 5.0 | 0.00 | 0.00 | 0.00 | 1 | 1010.1 |
| 20260509051725 | 74 | 2 | 2.0 | 5.0 | 0.00 | 0.00 | 0.00 | 1 | 1010.1 |
| 20260509051603 | 75 | 2 | 2.0 | 5.0 | 0.00 | 0.00 | 0.00 | 1 | 1010.0 |
| 20260509051503 | 75 | 2 | 2.0 | 5.0 | 0.00 | 0.00 | 0.00 | 1 | 1010.1 |
| 20260509051403 | 75 | 1 | 2.0 | 5.0 | 0.00 | 0.00 | 0.00 | 1 | 1010.1 |
| 20260509051303 | 75 | 1 | 2.0 | 5.0 | 0.00 | 0.00 | 0.00 | 1 | 1010.1 |
| 20260509051204 | 75 | 1 | 2.0 | 5.0 | 0.00 | 0.00 | 0.00 | 1 | 1010.1 |
| 20260509051103 | 75 | 360 | 2.0 | 5.0 | 0.00 | 0.00 | 0.00 | 1 | 1010.0 |
| 20260509051004 | 75 | 360 | 2.0 | 5.0 | 0.00 | 0.00 | 0.00 | 1 | 1010.0 |
| 20260509050903 | 75 | 357 | 3.0 | 6.0 | 0.00 | 0.00 | 0.00 | 1 | 1010.0 |
| 20260509050804 | 75 | 355 | 2.0 | 6.0 | 0.00 | 0.00 | 0.00 | 1 | 1010.0 |
| 20260509050724 | 75 | 355 | 2.0 | 6.0 | 0.00 | 0.00 | 0.00 | 1 | 1010.0 |
| 20260509050603 | 75 | 352 | 2.0 | 6.0 | 0.00 | 0.00 | 0.00 | 1 | 1010.0 |
| 20260509050525 | 75 | 351 | 2.0 | 6.0 | 0.00 | 0.00 | 0.00 | 1 | 1010.0 |
| 20260509050404 | 75 | 349 | 2.0 | 6.0 | 0.00 | 0.00 | 0.00 | 1 | 1010.0 |
| 20260509050324 | 75 | 347 | 2.0 | 6.0 | 0.00 | 0.00 | 0.00 | 1 | 1010.0 |
| 20260509050203 | 75 | 346 | 2.0 | 6.0 | 0.00 | 0.00 | 0.00 | 1 | 1010.0 |
| 20260509050003 | 75 | 342 | 2.0 | 6.0 | 0.00 | 0.00 | 0.00 | 1 | 1010.0 |
| 20260509045903 | 75 | 343 | 2.0 | 5.0 | 0.00 | 0.00 | 0.00 | 1 | 1010.0 |
| 20260509045803 | 75 | 344 | 2.0 | 5.0 | 0.00 | 0.00 | 0.00 | 1 | 1010.0 |
| 20260509045704 | 75 | 345 | 2.0 | 5.0 | 0.00 | 0.00 | 0.00 | 1 | 1010.0 |
| 20260509045603 | 75 | 345 | 2.0 | 5.0 | 0.00 | 0.00 | 0.00 | 1 | 1010.0 |
| 20260509045503 | 75 | 347 | 2.0 | 5.0 | 0.00 | 0.00 | 0.00 | 1 | 1010.0 |
| 20260509045404 | 75 | 347 | 2.0 | 5.0 | 0.00 | 0.00 | 0.00 | 1 | 1010.0 |
| 20260509045306 | 75 | 348 | 2.0 | 5.0 | 0.00 | 0.00 | 0.00 | 1 | 1010.0 |
| 20260509045225 | 75 | 348 | 2.0 | 5.0 | 0.00 | 0.00 | 0.00 | 1 | 1010.0 |
| 20260509045125 | 75 | 349 | 2.0 | 5.0 | 0.00 | 0.00 | 0.00 | 1 | 1010.0 |
| 20260509045004 | 75 | 350 | 2.0 | 5.0 | 0.00 | 0.00 | 0.00 | 1 | 1010.0 |
| 20260509044904 | 75 | 350 | 1.0 | 5.0 | 0.00 | 0.00 | 0.00 | 1 | 1010.1 |
| 20260509044804 | 75 | 350 | 2.0 | 5.0 | 0.00 | 0.00 | 0.00 | 1 | 1010.0 |
| 20260509044724 | 75 | 351 | 2.0 | 5.0 | 0.00 | 0.00 | 0.00 | 1 | 1010.1 |
| 20260509044603 | 75 | 351 | 2.0 | 5.0 | 0.00 | 0.00 | 0.00 | 1 | 1010.1 |
| 20260509044504 | 75 | 351 | 2.0 | 5.0 | 0.00 | 0.00 | 0.00 | 1 | 1010.1 |
| 20260509044403 | 75 | 351 | 2.0 | 5.0 | 0.00 | 0.00 | 0.00 | 1 | 1010.1 |
| 20260509044304 | 75 | 351 | 2.0 | 5.0 | 0.00 | 0.00 | 0.00 | 1 | 1010.1 |
| 20260509044224 | 75 | 351 | 2.0 | 5.0 | 0.00 | 0.00 | 0.00 | 1 | 1010.1 |
| 20260509044103 | 75 | 352 | 2.0 | 5.0 | 0.00 | 0.00 | 0.00 | 1 | 1010.1 |
| 20260509044024 | 75 | 353 | 2.0 | 5.0 | 0.00 | 0.00 | 0.00 | 1 | 1010.1 |
| 20260509043904 | 75 | 353 | 2.0 | 5.0 | 0.00 | 0.00 | 0.00 | 1 | 1010.2 |
| 20260509043803 | 75 | 354 | 2.0 | 5.0 | 0.00 | 0.00 | 0.00 | 1 | 1010.2 |
| 20260509043703 | 75 | 354 | 2.0 | 5.0 | 0.00 | 0.00 | 0.00 | 1 | 1010.2 |
| 20260509043604 | 75 | 355 | 2.0 | 5.0 | 0.00 | 0.00 | 0.00 | 1 | 1010.2 |
| 20260509043504 | 75 | 355 | 2.0 | 5.0 | 0.00 | 0.00 | 0.00 | 1 | 1010.3 |
| 20260509043404 | 75 | 356 | 2.0 | 5.0 | 0.00 | 0.00 | 0.00 | 1 | 1010.2 |
| 20260509043303 | 75 | 356 | 2.0 | 5.0 | 0.00 | 0.00 | 0.00 | 1 | 1010.2 |
| 20260509043224 | 75 | 357 | 1.0 | 5.0 | 0.00 | 0.00 | 0.00 | 1 | 1010.3 |
| 20260509043104 | 75 | 358 | 1.0 | 4.0 | 0.00 | 0.00 | 0.00 | 1 | 1010.3 |
| 20260509043004 | 75 | 358 | 1.0 | 4.0 | 0.00 | 0.00 | 0.00 | 1 | 1010.2 |
| 20260509042924 | 75 | 358 | 2.0 | 4.0 | 0.00 | 0.00 | 0.00 | 1 | 1010.3 |
| 20260509042803 | 75 | 358 | 2.0 | 4.0 | 0.00 | 0.00 | 0.00 | 1 | 1010.2 |
| 20260509042704 | 75 | 359 | 2.0 | 6.0 | 0.00 | 0.00 | 0.00 | 1 | 1010.3 |
| 20260509042604 | 75 | 359 | 2.0 | 6.0 | 0.00 | 0.00 | 0.00 | 1 | 1010.3 |
| 20260509042504 | 75 | 360 | 2.0 | 6.0 | 0.00 | 0.00 | 0.00 | 1 | 1010.3 |
| 20260509042404 | 75 | 2 | 3.0 | 6.0 | 0.00 | 0.00 | 0.00 | 1 | 1010.3 |
| 20260509042306 | 75 | 5 | 3.0 | 6.0 | 0.00 | 0.00 | 0.00 | 1 | 1010.3 |
| 20260509042203 | 75 | 7 | 3.0 | 6.0 | 0.00 | 0.00 | 0.00 | 1 | 1010.4 |
| 20260509042104 | 75 | 9 | 3.0 | 6.0 | 0.00 | 0.00 | 0.00 | 1 | 1010.4 |
| 20260509042004 | 75 | 13 | 3.0 | 6.0 | 0.00 | 0.00 | 0.00 | 1 | 1010.4 |
| 20260509041903 | 75 | 17 | 3.0 | 6.0 | 0.00 | 0.00 | 0.00 | 1 | 1010.4 |
| 20260509041803 | 75 | 21 | 2.0 | 6.0 | 0.00 | 0.00 | 0.00 | 1 | 1010.4 |
| 20260509041703 | 75 | 26 | 2.0 | 5.0 | 0.00 | 0.00 | 0.00 | 1 | 1010.4 |
| 20260509041603 | 75 | 29 | 2.0 | 5.0 | 0.00 | 0.00 | 0.00 | 1 | 1010.4 |
| 20260509041503 | 75 | 33 | 2.0 | 5.0 | 0.00 | 0.00 | 0.00 | 1 | 1010.4 |
| 20260509041403 | 75 | 38 | 2.0 | 5.0 | 0.00 | 0.00 | 0.00 | 1 | 1010.4 |
| 20260509041304 | 75 | 39 | 2.0 | 4.0 | 0.00 | 0.00 | 0.00 | 1 | 1010.4 |
| 20260509041203 | 75 | 39 | 2.0 | 4.0 | 0.00 | 0.00 | 0.00 | 1 | 1010.5 |
| 20260509041124 | 75 | 39 | 2.0 | 4.0 | 0.00 | 0.00 | 0.00 | 1 | 1010.4 |
| 20260509041004 | 75 | 39 | 2.0 | 4.0 | 0.00 | 0.00 | 0.00 | 1 | 1010.4 |
| 20260509040924 | 75 | 40 | 2.0 | 4.0 | 0.00 | 0.00 | 0.00 | 1 | 1010.5 |
| 20260509040804 | 75 | 40 | 2.0 | 4.0 | 0.00 | 0.00 | 0.00 | 1 | 1010.5 |
| 20260509040704 | 75 | 40 | 2.0 | 4.0 | 0.00 | 0.00 | 0.00 | 1 | 1010.5 |
| 20260509040603 | 75 | 40 | 2.0 | 4.0 | 0.00 | 0.00 | 0.00 | 1 | 1010.5 |
| 20260509040504 | 75 | 40 | 2.0 | 4.0 | 0.00 | 0.00 | 0.00 | 1 | 1010.5 |
| 20260509040425 | 75 | 40 | 2.0 | 4.0 | 0.00 | 0.00 | 0.00 | 1 | 1010.5 |
| 20260509040304 | 75 | 40 | 1.0 | 4.0 | 0.00 | 0.00 | 0.00 | 1 | 1010.5 |
| 20260509040224 | 75 | 40 | 2.0 | 4.0 | 0.00 | 0.00 | 0.00 | 1 | 1010.5 |
| 20260509040124 | 75 | 40 | 2.0 | 4.0 | 0.00 | 0.00 | 0.00 | 1 | 1010.5 |
| 20260509040004 | 75 | 40 | 2.0 | 4.0 | 0.00 | 0.00 | 0.00 | 1 | 1010.4 |
| 20260509035924 | 75 | 40 | 2.0 | 4.0 | 0.00 | 0.00 | 0.00 | 1 | 1010.5 |
| 20260509035804 | 75 | 40 | 2.0 | 4.0 | 0.00 | 0.00 | 0.00 | 1 | 1010.4 |
| 20260509035704 | 75 | 40 | 2.0 | 4.0 | 0.00 | 0.00 | 0.00 | 1 | 1010.4 |
| 20260509035603 | 75 | 40 | 2.0 | 4.0 | 0.00 | 0.00 | 0.00 | 1 | 1010.4 |
| 20260509035503 | 75 | 40 | 2.0 | 4.0 | 0.00 | 0.00 | 0.00 | 1 | 1010.4 |
| 20260509035404 | 75 | 40 | 2.0 | 4.0 | 0.00 | 0.00 | 0.00 | 1 | 1010.3 |
| 20260509035306 | 75 | 40 | 2.0 | 4.0 | 0.00 | 0.00 | 0.00 | 1 | 1010.2 |
| 20260509035203 | 75 | 40 | 2.0 | 4.0 | 0.00 | 0.00 | 0.00 | 1 | 1010.2 |
| 20260509035104 | 75 | 40 | 2.0 | 4.0 | 0.00 | 0.00 | 0.00 | 1 | 1010.2 |
| 20260509035003 | 75 | 40 | 2.0 | 5.0 | 0.00 | 0.00 | 0.00 | 1 | 1010.2 |
| 20260509034924 | 75 | 39 | 2.0 | 5.0 | 0.00 | 0.00 | 0.00 | 1 | 1010.2 |
| 20260509034803 | 75 | 39 | 2.0 | 5.0 | 0.00 | 0.00 | 0.00 | 1 | 1010.2 |
| 20260509034703 | 75 | 38 | 2.0 | 5.0 | 0.00 | 0.00 | 0.00 | 1 | 1010.2 |
| 20260509034625 | 75 | 38 | 2.0 | 5.0 | 0.00 | 0.00 | 0.00 | 1 | 1010.2 |
| 20260509034503 | 75 | 37 | 2.0 | 5.0 | 0.00 | 0.00 | 0.00 | 1 | 1010.2 |
| 20260509034403 | 75 | 33 | 2.0 | 6.0 | 0.00 | 0.00 | 0.00 | 1 | 1010.2 |
| 20260509034304 | 75 | 26 | 2.0 | 6.0 | 0.00 | 0.00 | 0.00 | 1 | 1010.2 |
| 20260509034204 | 75 | 21 | 2.0 | 6.0 | 0.00 | 0.00 | 0.00 | 1 | 1010.1 |
| 20260509034103 | 75 | 16 | 2.0 | 6.0 | 0.00 | 0.00 | 0.00 | 1 | 1010.1 |
| 20260509034004 | 75 | 7 | 2.0 | 6.0 | 0.00 | 0.00 | 0.00 | 1 | 1010.1 |
| 20260509033924 | 75 | 4 | 2.0 | 6.0 | 0.00 | 0.00 | 0.00 | 1 | 1010.1 |
| 20260509033803 | 75 | 354 | 2.0 | 6.0 | 0.00 | 0.00 | 0.00 | 1 | 1010.1 |
| 20260509033703 | 75 | 344 | 2.0 | 6.0 | 0.00 | 0.00 | 0.00 | 1 | 1010.0 |
| 20260509033624 | 75 | 341 | 2.0 | 6.0 | 0.00 | 0.00 | 0.00 | 1 | 1010.1 |
| 20260509033503 | 75 | 329 | 2.0 | 6.0 | 0.00 | 0.00 | 0.00 | 1 | 1010.1 |
| 20260509033403 | 75 | 322 | 2.0 | 5.0 | 0.00 | 0.00 | 0.00 | 1 | 1010.0 |
| 20260509033304 | 75 | 320 | 2.0 | 4.0 | 0.00 | 0.00 | 0.00 | 1 | 1010.1 |
| 20260509033203 | 75 | 320 | 2.0 | 4.0 | 0.00 | 0.00 | 0.00 | 1 | 1010.0 |
| 20260509033103 | 75 | 319 | 2.0 | 4.0 | 0.00 | 0.00 | 0.00 | 1 | 1010.0 |
| 20260509033003 | 75 | 317 | 2.0 | 4.0 | 0.00 | 0.00 | 0.00 | 1 | 1010.0 |
| 20260509032904 | 75 | 317 | 2.0 | 4.0 | 0.00 | 0.00 | 0.00 | 1 | 1010.0 |
| 20260509032804 | 75 | 316 | 2.0 | 4.0 | 0.00 | 0.00 | 0.00 | 1 | 1010.0 |
| 20260509032703 | 75 | 316 | 2.0 | 4.0 | 0.00 | 0.00 | 0.00 | 1 | 1010.0 |
| 20260509032603 | 75 | 316 | 1.0 | 4.0 | 0.00 | 0.00 | 0.00 | 1 | 1010.0 |
| 20260509032503 | 75 | 316 | 1.0 | 4.0 | 0.00 | 0.00 | 0.00 | 1 | 1010.0 |
| 20260509032403 | 75 | 316 | 1.0 | 4.0 | 0.00 | 0.00 | 0.00 | 1 | 1010.0 |
| 20260509032306 | 75 | 316 | 1.0 | 4.0 | 0.00 | 0.00 | 0.00 | 1 | 1010.0 |
| 20260509032203 | 75 | 316 | 1.0 | 4.0 | 0.00 | 0.00 | 0.00 | 1 | 1010.0 |
| 20260509032103 | 75 | 316 | 1.0 | 4.0 | 0.00 | 0.00 | 0.00 | 1 | 1010.0 |
| 20260509032025 | 75 | 316 | 1.0 | 4.0 | 0.00 | 0.00 | 0.00 | 1 | 1010.0 |
| 20260509031903 | 75 | 316 | 1.0 | 4.0 | 0.00 | 0.00 | 0.00 | 1 | 1010.0 |
| 20260509031803 | 75 | 316 | 1.0 | 4.0 | 0.00 | 0.00 | 0.00 | 1 | 1010.0 |
| 20260509031704 | 75 | 316 | 1.0 | 4.0 | 0.00 | 0.00 | 0.00 | 1 | 1010.0 |
| 20260509031603 | 75 | 316 | 1.0 | 3.0 | 0.00 | 0.00 | 0.00 | 1 | 1010.0 |
| 20260509031524 | 75 | 316 | 1.0 | 3.0 | 0.00 | 0.00 | 0.00 | 1 | 1010.0 |
| 20260509031403 | 75 | 316 | 1.0 | 3.0 | 0.00 | 0.00 | 0.00 | 1 | 1010.0 |
| 20260509031325 | 75 | 316 | 1.0 | 3.0 | 0.00 | 0.00 | 0.00 | 1 | 1010.1 |
| 20260509031203 | 75 | 316 | 1.0 | 3.0 | 0.00 | 0.00 | 0.00 | 1 | 1010.0 |
| 20260509031104 | 75 | 316 | 1.0 | 3.0 | 0.00 | 0.00 | 0.00 | 1 | 1010.0 |
| 20260509031004 | 75 | 316 | 1.0 | 2.0 | 0.00 | 0.00 | 0.00 | 1 | 1010.0 |
| 20260509030903 | 75 | 316 | 1.0 | 2.0 | 0.00 | 0.00 | 0.00 | 1 | 1010.0 |
| 20260509030803 | 75 | 316 | 1.0 | 2.0 | 0.00 | 0.00 | 0.00 | 1 | 1010.0 |
| 20260509030703 | 75 | 316 | 1.0 | 2.0 | 0.00 | 0.00 | 0.00 | 1 | 1010.0 |
| 20260509030603 | 75 | 316 | 1.0 | 2.0 | 0.00 | 0.00 | 0.00 | 1 | 1010.0 |
| 20260509030503 | 75 | 316 | 1.0 | 2.0 | 0.00 | 0.00 | 0.00 | 1 | 1010.1 |
| 20260509030425 | 75 | 316 | 1.0 | 2.0 | 0.00 | 0.00 | 0.00 | 1 | 1010.0 |
| 20260509030303 | 75 | 316 | 0.0 | 2.0 | 0.00 | 0.00 | 0.00 | 1 | 1010.0 |
| 20260509030203 | 75 | 316 | 0.0 | 2.0 | 0.00 | 0.00 | 0.00 | 1 | 1010.1 |
| 20260509030003 | 75 | 316 | 0.0 | 2.0 | 0.00 | 0.00 | 0.00 | 1 | 1010.1 |
| 20260509025903 | 75 | 316 | 1.0 | 2.0 | 0.00 | 0.00 | 0.00 | 1 | 1010.1 |
| 20260509025825 | 75 | 316 | 1.0 | 2.0 | 0.00 | 0.00 | 0.00 | 1 | 1010.0 |
| 20260509025704 | 75 | 316 | 1.0 | 2.0 | 0.00 | 0.00 | 0.00 | 1 | 1010.0 |
| 20260509025604 | 75 | 316 | 1.0 | 2.0 | 0.00 | 0.00 | 0.00 | 1 | 1010.0 |
| 20260509025503 | 75 | 316 | 1.0 | 2.0 | 0.00 | 0.00 | 0.00 | 1 | 1010.0 |
| 20260509025404 | 75 | 316 | 0.0 | 2.0 | 0.00 | 0.00 | 0.00 | 1 | 1010.0 |
| 20260509025306 | 75 | 316 | 1.0 | 2.0 | 0.00 | 0.00 | 0.00 | 1 | 1010.0 |
| 20260509025203 | 75 | 316 | 1.0 | 2.0 | 0.00 | 0.00 | 0.00 | 1 | 1010.0 |
| 20260509025104 | 75 | 316 | 1.0 | 2.0 | 0.00 | 0.00 | 0.00 | 1 | 1009.9 |
| 20260509025025 | 75 | 316 | 1.0 | 4.0 | 0.00 | 0.00 | 0.00 | 1 | 1010.0 |
| 20260509024903 | 75 | 315 | 1.0 | 4.0 | 0.00 | 0.00 | 0.00 | 1 | 1009.9 |
| 20260509024825 | 76 | 315 | 1.0 | 4.0 | 0.00 | 0.00 | 0.00 | 1 | 1009.9 |
| 20260509024725 | 76 | 315 | 1.0 | 4.0 | 0.00 | 0.00 | 0.00 | 1 | 1009.9 |
| 20260509024603 | 76 | 315 | 1.0 | 4.0 | 0.00 | 0.00 | 0.00 | 1 | 1009.9 |
| 20260509024503 | 76 | 315 | 1.0 | 4.0 | 0.00 | 0.00 | 0.00 | 1 | 1009.9 |
| 20260509024403 | 76 | 315 | 1.0 | 4.0 | 0.00 | 0.00 | 0.00 | 1 | 1009.8 |
| 20260509024303 | 76 | 315 | 1.0 | 4.0 | 0.00 | 0.00 | 0.00 | 1 | 1009.8 |
| 20260509024204 | 76 | 315 | 1.0 | 4.0 | 0.00 | 0.00 | 0.00 | 1 | 1009.8 |
| 20260509024103 | 76 | 314 | 1.0 | 4.0 | 0.00 | 0.00 | 0.00 | 1 | 1009.7 |
| 20260509024003 | 76 | 314 | 1.0 | 3.0 | 0.00 | 0.00 | 0.00 | 1 | 1009.7 |
| 20260509023903 | 76 | 314 | 1.0 | 3.0 | 0.00 | 0.00 | 0.00 | 1 | 1009.7 |
| 20260509023803 | 76 | 315 | 1.0 | 5.0 | 0.00 | 0.00 | 0.00 | 1 | 1009.8 |
| 20260509023704 | 76 | 316 | 1.0 | 5.0 | 0.00 | 0.00 | 0.00 | 1 | 1009.7 |
| 20260509023603 | 76 | 316 | 2.0 | 5.0 | 0.00 | 0.00 | 0.00 | 1 | 1009.8 |
| 20260509023503 | 76 | 317 | 2.0 | 5.0 | 0.00 | 0.00 | 0.00 | 1 | 1009.7 |
| 20260509023403 | 76 | 318 | 2.0 | 5.0 | 0.00 | 0.00 | 0.00 | 1 | 1009.7 |
| 20260509023303 | 76 | 318 | 2.0 | 5.0 | 0.00 | 0.00 | 0.00 | 1 | 1009.7 |
| 20260509023203 | 76 | 319 | 2.0 | 5.0 | 0.00 | 0.00 | 0.00 | 1 | 1009.7 |
| 20260509023104 | 76 | 319 | 2.0 | 5.0 | 0.00 | 0.00 | 0.00 | 1 | 1009.7 |
| 20260509023025 | 76 | 320 | 2.0 | 5.0 | 0.00 | 0.00 | 0.00 | 1 | 1009.6 |
| 20260509022924 | 76 | 320 | 2.0 | 5.0 | 0.00 | 0.00 | 0.00 | 1 | 1009.6 |
| 20260509022803 | 76 | 322 | 2.0 | 4.0 | 0.00 | 0.00 | 0.00 | 1 | 1009.6 |
| 20260509022704 | 76 | 322 | 2.0 | 4.0 | 0.00 | 0.00 | 0.00 | 1 | 1009.6 |
| 20260509022603 | 76 | 322 | 1.0 | 4.0 | 0.00 | 0.00 | 0.00 | 1 | 1009.5 |
| 20260509022525 | 76 | 322 | 1.0 | 4.0 | 0.00 | 0.00 | 0.00 | 1 | 1009.5 |
| 20260509022403 | 76 | 321 | 1.0 | 4.0 | 0.00 | 0.00 | 0.00 | 1 | 1009.5 |
| 20260509022306 | 76 | 321 | 1.0 | 4.0 | 0.00 | 0.00 | 0.00 | 1 | 1009.5 |
| 20260509022204 | 76 | 321 | 1.0 | 4.0 | 0.00 | 0.00 | 0.00 | 1 | 1009.5 |
| 20260509022103 | 76 | 320 | 1.0 | 4.0 | 0.00 | 0.00 | 0.00 | 1 | 1009.5 |
| 20260509022003 | 76 | 320 | 1.0 | 4.0 | 0.00 | 0.00 | 0.00 | 1 | 1009.6 |
| 20260509021904 | 76 | 320 | 1.0 | 4.0 | 0.00 | 0.00 | 0.00 | 1 | 1009.5 |
| 20260509021804 | 76 | 319 | 1.0 | 4.0 | 0.00 | 0.00 | 0.00 | 1 | 1009.5 |
| 20260509021704 | 76 | 319 | 1.0 | 4.0 | 0.00 | 0.00 | 0.00 | 1 | 1009.5 |
| 20260509021603 | 76 | 319 | 1.0 | 4.0 | 0.00 | 0.00 | 0.00 | 1 | 1009.5 |
| 20260509021525 | 76 | 319 | 1.0 | 4.0 | 0.00 | 0.00 | 0.00 | 1 | 1009.5 |
| 20260509021403 | 76 | 319 | 1.0 | 4.0 | 0.00 | 0.00 | 0.00 | 1 | 1009.4 |
| 20260509021304 | 76 | 319 | 1.0 | 4.0 | 0.00 | 0.00 | 0.00 | 1 | 1009.5 |
| 20260509021224 | 76 | 319 | 1.0 | 4.0 | 0.00 | 0.00 | 0.00 | 1 | 1009.4 |
| 20260509021104 | 76 | 319 | 1.0 | 4.0 | 0.00 | 0.00 | 0.00 | 1 | 1009.4 |
| 20260509021003 | 76 | 319 | 1.0 | 4.0 | 0.00 | 0.00 | 0.00 | 1 | 1009.4 |
| 20260509020904 | 76 | 319 | 1.0 | 7.0 | 0.00 | 0.00 | 0.00 | 1 | 1009.4 |
| 20260509020803 | 76 | 319 | 1.0 | 7.0 | 0.00 | 0.00 | 0.00 | 1 | 1009.3 |
| 20260509020703 | 76 | 319 | 1.0 | 7.0 | 0.00 | 0.00 | 0.00 | 1 | 1009.3 |
| 20260509020603 | 77 | 319 | 2.0 | 7.0 | 0.00 | 0.00 | 0.00 | 1 | 1009.4 |
| 20260509020525 | 77 | 319 | 2.0 | 7.0 | 0.00 | 0.00 | 0.00 | 1 | 1009.4 |
| 20260509020403 | 77 | 320 | 2.0 | 7.0 | 0.00 | 0.00 | 0.00 | 1 | 1009.3 |
| 20260509020304 | 77 | 321 | 2.0 | 7.0 | 0.00 | 0.00 | 0.00 | 1 | 1009.3 |
| 20260509020203 | 77 | 322 | 2.0 | 7.0 | 0.00 | 0.00 | 0.00 | 1 | 1009.3 |
| 20260509020124 | 77 | 322 | 2.0 | 7.0 | 0.00 | 0.00 | 0.00 | 1 | 1009.3 |
| 20260509020024 | 77 | 322 | 2.0 | 7.0 | 0.00 | 0.00 | 0.00 | 1 | 1009.3 |
| 20260509015925 | 77 | 322 | 3.0 | 7.0 | 0.00 | 0.00 | 0.00 | 1 | 1009.2 |
| 20260509015804 | 77 | 322 | 3.0 | 8.0 | 0.00 | 0.00 | 0.00 | 1 | 1009.2 |
| 20260509015724 | 77 | 323 | 3.0 | 8.0 | 0.00 | 0.00 | 0.00 | 1 | 1009.2 |
| 20260509015604 | 77 | 327 | 3.0 | 9.0 | 0.00 | 0.00 | 0.00 | 1 | 1009.1 |
| 20260509015503 | 77 | 327 | 4.0 | 9.0 | 0.00 | 0.00 | 0.00 | 1 | 1009.1 |
| 20260509015424 | 77 | 327 | 4.0 | 9.0 | 0.00 | 0.00 | 0.00 | 1 | 1009.1 |
| 20260509015306 | 77 | 326 | 4.0 | 9.0 | 0.00 | 0.00 | 0.00 | 1 | 1009.1 |
| 20260509015204 | 77 | 326 | 4.0 | 9.0 | 0.00 | 0.00 | 0.00 | 1 | 1009.2 |
| 20260509015103 | 77 | 325 | 4.0 | 9.0 | 0.00 | 0.00 | 0.00 | 1 | 1009.2 |
| 20260509015004 | 77 | 324 | 4.0 | 9.0 | 0.00 | 0.00 | 0.00 | 1 | 1009.2 |
| 20260509014904 | 77 | 327 | 4.0 | 9.0 | 0.00 | 0.00 | 0.00 | 1 | 1009.1 |
| 20260509014824 | 77 | 328 | 4.0 | 9.0 | 0.00 | 0.00 | 0.00 | 1 | 1009.2 |
| 20260509014703 | 77 | 328 | 4.0 | 9.0 | 0.00 | 0.00 | 0.00 | 1 | 1009.1 |
| 20260509014604 | 77 | 327 | 3.0 | 8.0 | 0.00 | 0.00 | 0.00 | 1 | 1009.1 |
| 20260509014524 | 77 | 329 | 3.0 | 8.0 | 0.00 | 0.00 | 0.00 | 1 | 1009.1 |
| 20260509014404 | 77 | 334 | 3.0 | 8.0 | 0.00 | 0.00 | 0.00 | 1 | 1009.2 |
| 20260509014303 | 77 | 339 | 3.0 | 8.0 | 0.00 | 0.00 | 0.00 | 1 | 1009.2 |
| 20260509014225 | 77 | 342 | 3.0 | 8.0 | 0.00 | 0.00 | 0.00 | 1 | 1009.2 |
| 20260509014103 | 77 | 347 | 3.0 | 7.0 | 0.00 | 0.00 | 0.00 | 1 | 1009.2 |
| 20260509014003 | 77 | 347 | 3.0 | 7.0 | 0.00 | 0.00 | 0.00 | 1 | 1009.2 |
| 20260509013903 | 77 | 343 | 3.0 | 7.0 | 0.00 | 0.00 | 0.00 | 1 | 1009.2 |
| 20260509013803 | 77 | 345 | 3.0 | 7.0 | 0.00 | 0.00 | 0.00 | 1 | 1009.1 |
| 20260509013704 | 77 | 348 | 3.0 | 7.0 | 0.00 | 0.00 | 0.00 | 1 | 1009.1 |
| 20260509013604 | 77 | 350 | 3.0 | 7.0 | 0.00 | 0.00 | 0.00 | 1 | 1009.2 |
| 20260509013503 | 77 | 345 | 3.0 | 7.0 | 0.00 | 0.00 | 0.00 | 1 | 1009.2 |
| 20260509013424 | 77 | 340 | 3.0 | 7.0 | 0.00 | 0.00 | 0.00 | 1 | 1009.2 |
| 20260509013304 | 78 | 326 | 3.0 | 7.0 | 0.00 | 0.00 | 0.00 | 1 | 1009.1 |
| 20260509013203 | 78 | 314 | 3.0 | 7.0 | 0.00 | 0.00 | 0.00 | 1 | 1009.1 |
| 20260509013103 | 78 | 313 | 3.0 | 7.0 | 0.00 | 0.00 | 0.00 | 1 | 1009.1 |
| 20260509013003 | 78 | 311 | 3.0 | 7.0 | 0.00 | 0.00 | 0.00 | 1 | 1009.1 |
| 20260509012903 | 78 | 307 | 3.0 | 6.0 | 0.00 | 0.00 | 0.00 | 1 | 1009.1 |
| 20260509012803 | 78 | 305 | 3.0 | 6.0 | 0.00 | 0.00 | 0.00 | 1 | 1009.1 |
| 20260509012703 | 78 | 300 | 3.0 | 6.0 | 0.00 | 0.00 | 0.00 | 1 | 1009.1 |
| 20260509012603 | 78 | 296 | 3.0 | 6.0 | 0.00 | 0.00 | 0.00 | 1 | 1009.1 |
| 20260509012503 | 78 | 299 | 3.0 | 6.0 | 0.00 | 0.00 | 0.00 | 1 | 1009.1 |
| 20260509012403 | 78 | 304 | 3.0 | 6.0 | 0.00 | 0.00 | 0.00 | 1 | 1009.1 |
| 20260509012306 | 78 | 309 | 2.0 | 6.0 | 0.00 | 0.00 | 0.00 | 1 | 1009.1 |
| 20260509012204 | 78 | 314 | 2.0 | 6.0 | 0.00 | 0.00 | 0.00 | 1 | 1009.1 |
| 20260509012103 | 78 | 316 | 2.0 | 6.0 | 0.00 | 0.00 | 0.00 | 1 | 1009.1 |
| 20260509012003 | 78 | 318 | 2.0 | 6.0 | 0.00 | 0.00 | 0.00 | 1 | 1009.2 |
| 20260509011903 | 78 | 315 | 2.0 | 6.0 | 0.00 | 0.00 | 0.00 | 1 | 1009.1 |
| 20260509011824 | 78 | 311 | 2.0 | 6.0 | 0.00 | 0.00 | 0.00 | 1 | 1009.1 |
| 20260509011704 | 78 | 305 | 2.0 | 6.0 | 0.00 | 0.00 | 0.00 | 1 | 1009.1 |
| 20260509011603 | 78 | 300 | 3.0 | 6.0 | 0.00 | 0.00 | 0.00 | 1 | 1009.1 |
| 20260509011503 | 78 | 297 | 3.0 | 6.0 | 0.00 | 0.00 | 0.00 | 1 | 1009.1 |
| 20260509011403 | 78 | 296 | 3.0 | 6.0 | 0.00 | 0.00 | 0.00 | 1 | 1009.1 |
| 20260509011304 | 78 | 294 | 3.0 | 6.0 | 0.00 | 0.00 | 0.00 | 1 | 1009.1 |
| 20260509011204 | 78 | 293 | 3.0 | 6.0 | 0.00 | 0.00 | 0.00 | 3 | 1009.2 |
| 20260509011104 | 78 | 292 | 3.0 | 6.0 | 0.00 | 0.00 | 0.00 | 3 | 1009.1 |
| 20260509011003 | 78 | 290 | 3.0 | 6.0 | 0.00 | 0.00 | 0.00 | 4 | 1009.1 |
| 20260509010903 | 78 | 294 | 3.0 | 6.0 | 0.00 | 0.00 | 0.00 | 4 | 1009.0 |
| 20260509010803 | 78 | 301 | 3.0 | 6.0 | 0.00 | 0.00 | 0.00 | 4 | 1009.1 |
| 20260509010704 | 78 | 307 | 3.0 | 6.0 | 0.00 | 0.00 | 0.00 | 5 | 1009.0 |
| 20260509010603 | 78 | 311 | 3.0 | 6.0 | 0.00 | 0.00 | 0.00 | 6 | 1009.0 |
| 20260509010503 | 78 | 315 | 2.0 | 7.0 | 0.00 | 0.00 | 0.00 | 6 | 1009.0 |
| 20260509010404 | 78 | 316 | 2.0 | 7.0 | 0.00 | 0.00 | 0.00 | 6 | 1009.0 |
| 20260509010325 | 78 | 316 | 3.0 | 7.0 | 0.00 | 0.00 | 0.00 | 6 | 1009.0 |
| 20260509010204 | 78 | 316 | 3.0 | 7.0 | 0.00 | 0.00 | 0.00 | 6 | 1009.0 |
| 20260509010103 | 78 | 314 | 3.0 | 7.0 | 0.00 | 0.00 | 0.00 | 7 | 1009.1 |
| 20260509010004 | 78 | 314 | 3.0 | 7.0 | 0.00 | 0.00 | 0.00 | 7 | 1009.1 |
| 20260509005904 | 78 | 310 | 3.0 | 7.0 | 0.00 | 0.00 | 0.00 | 7 | 1009.1 |
| 20260509005803 | 78 | 303 | 3.0 | 7.0 | 0.00 | 0.00 | 0.00 | 7 | 1009.0 |
| 20260509005703 | 78 | 300 | 3.0 | 7.0 | 0.00 | 0.00 | 0.00 | 7 | 1009.1 |
| 20260509005603 | 78 | 298 | 3.0 | 7.0 | 0.00 | 0.00 | 0.00 | 7 | 1009.0 |
| 20260509005524 | 78 | 299 | 3.0 | 7.0 | 0.00 | 0.00 | 0.00 | 6 | 1009.0 |
| 20260509005403 | 78 | 301 | 3.0 | 7.0 | 0.00 | 0.00 | 0.00 | 7 | 1009.1 |
| 20260509005306 | 78 | 302 | 3.0 | 7.0 | 0.00 | 0.00 | 0.00 | 7 | 1009.1 |
| 20260509005203 | 78 | 303 | 3.0 | 7.0 | 0.00 | 0.00 | 0.00 | 7 | 1009.0 |
| 20260509005103 | 78 | 305 | 3.0 | 7.0 | 0.00 | 0.00 | 0.00 | 6 | 1009.0 |
| 20260509005004 | 78 | 307 | 3.0 | 7.0 | 0.00 | 0.00 | 0.00 | 6 | 1009.0 |
| 20260509004903 | 78 | 313 | 3.0 | 7.0 | 0.00 | 0.00 | 0.00 | 6 | 1009.0 |
| 20260509004825 | 78 | 318 | 3.0 | 7.0 | 0.00 | 0.00 | 0.00 | 6 | 1009.0 |
| 20260509004703 | 78 | 327 | 3.0 | 7.0 | 0.00 | 0.00 | 0.00 | 6 | 1008.9 |
| 20260509004603 | 78 | 330 | 3.0 | 7.0 | 0.00 | 0.00 | 0.00 | 7 | 1008.9 |
| 20260509004525 | 78 | 333 | 2.0 | 6.0 | 0.00 | 0.00 | 0.00 | 7 | 1008.9 |
| 20260509004403 | 78 | 340 | 2.0 | 6.0 | 0.00 | 0.00 | 0.00 | 7 | 1009.0 |
| 20260509004303 | 79 | 342 | 3.0 | 7.0 | 0.00 | 0.00 | 0.00 | 8 | 1008.9 |
| 20260509004203 | 79 | 341 | 2.0 | 7.0 | 0.00 | 0.00 | 0.00 | 8 | 1008.9 |
| 20260509004103 | 79 | 341 | 2.0 | 7.0 | 0.00 | 0.00 | 0.00 | 8 | 1008.9 |
| 20260509004003 | 79 | 340 | 2.0 | 7.0 | 0.00 | 0.00 | 0.00 | 9 | 1008.9 |
| 20260509003903 | 79 | 339 | 2.0 | 7.0 | 0.00 | 0.00 | 0.00 | 9 | 1008.9 |
| 20260509003803 | 79 | 337 | 2.0 | 7.0 | 0.00 | 0.00 | 0.00 | 9 | 1008.9 |
| 20260509003703 | 79 | 334 | 2.0 | 7.0 | 0.00 | 0.00 | 0.00 | 9 | 1008.9 |
| 20260509003625 | 79 | 334 | 2.0 | 7.0 | 0.00 | 0.00 | 0.00 | 9 | 1008.9 |
| 20260509003524 | 79 | 333 | 2.0 | 7.0 | 0.00 | 0.00 | 0.00 | 10 | 1008.9 |
| 20260509003403 | 79 | 327 | 3.0 | 7.0 | 0.00 | 0.00 | 0.00 | 11 | 1008.9 |
| 20260509003303 | 79 | 317 | 2.0 | 7.0 | 0.00 | 0.00 | 0.00 | 11 | 1008.9 |
| 20260509003203 | 79 | 312 | 3.0 | 7.0 | 0.00 | 0.00 | 0.00 | 11 | 1008.9 |
| 20260509003104 | 79 | 313 | 3.0 | 7.0 | 0.00 | 0.00 | 0.00 | 11 | 1008.9 |
| 20260509003003 | 79 | 313 | 3.0 | 7.0 | 0.00 | 0.00 | 0.00 | 11 | 1008.9 |
| 20260509002903 | 79 | 314 | 3.0 | 7.0 | 0.00 | 0.00 | 0.00 | 12 | 1008.9 |
| 20260509002803 | 79 | 313 | 3.0 | 9.0 | 0.00 | 0.00 | 0.00 | 11 | 1008.9 |
| 20260509002704 | 79 | 311 | 3.0 | 9.0 | 0.00 | 0.00 | 0.00 | 12 | 1008.9 |
| 20260509002603 | 79 | 307 | 4.0 | 9.0 | 0.00 | 0.00 | 0.00 | 12 | 1008.8 |
| 20260509002503 | 79 | 304 | 4.0 | 9.0 | 0.00 | 0.00 | 0.00 | 13 | 1008.8 |
| 20260509002404 | 79 | 303 | 4.0 | 9.0 | 0.00 | 0.00 | 0.00 | 13 | 1008.9 |
| 20260509002306 | 79 | 302 | 4.0 | 9.0 | 0.00 | 0.00 | 0.00 | 13 | 1008.9 |
| 20260509002203 | 79 | 302 | 3.0 | 9.0 | 0.00 | 0.00 | 0.00 | 13 | 1008.9 |
| 20260509002103 | 79 | 298 | 3.0 | 9.0 | 0.00 | 0.00 | 0.00 | 13 | 1008.9 |
| 20260509002004 | 79 | 299 | 4.0 | 9.0 | 0.00 | 0.00 | 0.00 | 14 | 1008.8 |
| 20260509001904 | 79 | 298 | 3.0 | 9.0 | 0.00 | 0.00 | 0.00 | 14 | 1008.9 |
| 20260509001804 | 79 | 295 | 3.0 | 8.0 | 0.00 | 0.00 | 0.00 | 14 | 1008.9 |
| 20260509001703 | 79 | 296 | 3.0 | 8.0 | 0.00 | 0.00 | 0.00 | 15 | 1008.9 |
| 20260509001603 | 79 | 295 | 3.0 | 8.0 | 0.00 | 0.00 | 0.00 | 15 | 1008.9 |
| 20260509001503 | 79 | 298 | 3.0 | 8.0 | 0.00 | 0.00 | 0.00 | 16 | 1008.9 |
| 20260509001404 | 79 | 301 | 3.0 | 8.0 | 0.00 | 0.00 | 0.00 | 16 | 1008.9 |
| 20260509001303 | 79 | 302 | 3.0 | 8.0 | 0.00 | 0.00 | 0.00 | 16 | 1008.8 |
| 20260509001203 | 79 | 300 | 3.0 | 8.0 | 0.00 | 0.00 | 0.00 | 16 | 1008.8 |
| 20260509001104 | 79 | 296 | 3.0 | 8.0 | 0.00 | 0.00 | 0.00 | 16 | 1008.8 |
| 20260509001004 | 79 | 289 | 3.0 | 8.0 | 0.00 | 0.00 | 0.00 | 15 | 1008.8 |
| 20260509000903 | 79 | 282 | 4.0 | 8.0 | 0.00 | 0.00 | 0.00 | 15 | 1008.9 |
| 20260509000803 | 79 | 275 | 3.0 | 8.0 | 0.00 | 0.00 | 0.00 | 15 | 1008.8 |
| 20260509000725 | 79 | 270 | 3.0 | 8.0 | 0.00 | 0.00 | 0.00 | 15 | 1008.9 |
| 20260509000603 | 79 | 264 | 4.0 | 8.0 | 0.00 | 0.00 | 0.00 | 15 | 1008.9 |
| 20260509000503 | 79 | 259 | 3.0 | 8.0 | 0.00 | 0.00 | 0.00 | 15 | 1008.8 |
| 20260509000425 | 79 | 254 | 3.0 | 8.0 | 0.00 | 0.00 | 0.00 | 15 | 1008.8 |
| 20260509000304 | 79 | 252 | 3.0 | 8.0 | 0.00 | 0.00 | 0.00 | 15 | 1008.8 |
| 20260509000204 | 79 | 252 | 3.0 | 8.0 | 0.00 | 0.00 | 0.00 | 16 | 1008.8 |
| 20260509000103 | 79 | 252 | 3.0 | 8.0 | 0.00 | 0.00 | 0.00 | 17 | 1008.8 |
| 20260509000003 | 79 | 251 | 3.0 | 8.0 | 0.00 | 0.00 | 0.00 | 17 | 1008.8 |
| 20260508235925 | 79 | 251 | 3.0 | 8.0 | 0.00 | 0.00 | 0.00 | 18 | 1008.8 |
| 20260508235803 | 79 | 250 | 3.0 | 6.0 | 0.00 | 0.00 | 0.00 | 19 | 1008.8 |
| 20260508235703 | 79 | 251 | 3.0 | 6.0 | 0.00 | 0.00 | 0.00 | 19 | 1008.8 |
| 20260508235624 | 79 | 251 | 3.0 | 6.0 | 0.00 | 0.00 | 0.00 | 19 | 1008.8 |
| 20260508235503 | 79 | 253 | 3.0 | 7.0 | 0.00 | 0.00 | 0.00 | 20 | 1008.8 |
| 20260508235404 | 79 | 255 | 3.0 | 7.0 | 0.00 | 0.00 | 0.00 | 20 | 1008.9 |
| 20260508235325 | 79 | 256 | 3.0 | 7.0 | 0.00 | 0.00 | 0.00 | 21 | 1008.9 |
| 20260508235203 | 79 | 259 | 3.0 | 7.0 | 0.00 | 0.00 | 0.00 | 21 | 1008.9 |
| 20260508235103 | 79 | 261 | 3.0 | 7.0 | 0.00 | 0.00 | 0.00 | 21 | 1008.9 |
| 20260508235003 | 79 | 263 | 3.0 | 7.0 | 0.00 | 0.00 | 0.00 | 23 | 1009.0 |
| 20260508234903 | 79 | 267 | 3.0 | 7.0 | 0.00 | 0.00 | 0.00 | 23 | 1009.0 |
| 20260508234824 | 79 | 268 | 3.0 | 7.0 | 0.00 | 0.00 | 0.00 | 23 | 1009.0 |
| 20260508234704 | 79 | 270 | 3.0 | 7.0 | 0.00 | 0.00 | 0.00 | 23 | 1008.9 |
| 20260508234603 | 79 | 272 | 2.0 | 5.0 | 0.00 | 0.00 | 0.00 | 23 | 1009.0 |
| 20260508234503 | 79 | 274 | 2.0 | 5.0 | 0.00 | 0.00 | 0.00 | 23 | 1009.0 |
| 20260508234403 | 79 | 274 | 2.0 | 5.0 | 0.00 | 0.00 | 0.00 | 25 | 1009.0 |
| 20260508234303 | 79 | 276 | 2.0 | 5.0 | 0.00 | 0.00 | 0.00 | 25 | 1008.9 |
| 20260508234204 | 79 | 277 | 2.0 | 5.0 | 0.00 | 0.00 | 0.00 | 26 | 1009.0 |
| 20260508234104 | 80 | 278 | 2.0 | 5.0 | 0.00 | 0.00 | 0.00 | 25 | 1009.0 |
| 20260508234024 | 80 | 278 | 2.0 | 5.0 | 0.00 | 0.00 | 0.00 | 25 | 1009.0 |
| 20260508233904 | 80 | 280 | 2.0 | 5.0 | 0.00 | 0.00 | 0.00 | 26 | 1009.0 |
| 20260508233803 | 80 | 280 | 2.0 | 5.0 | 0.00 | 0.00 | 0.00 | 27 | 1009.0 |
| 20260508233703 | 80 | 281 | 2.0 | 5.0 | 0.00 | 0.00 | 0.00 | 27 | 1009.0 |
| 20260508233604 | 80 | 282 | 2.0 | 5.0 | 0.00 | 0.00 | 0.00 | 28 | 1009.0 |
| 20260508233503 | 80 | 283 | 2.0 | 5.0 | 0.00 | 0.00 | 0.00 | 28 | 1009.0 |
| 20260508233424 | 80 | 282 | 2.0 | 5.0 | 0.00 | 0.00 | 0.00 | 28 | 1009.0 |
| 20260508233303 | 80 | 281 | 2.0 | 4.0 | 0.00 | 0.00 | 0.00 | 29 | 1009.0 |
| 20260508233225 | 80 | 281 | 2.0 | 5.0 | 0.00 | 0.00 | 0.00 | 29 | 1008.9 |
| 20260508233124 | 80 | 279 | 2.0 | 5.0 | 0.00 | 0.00 | 0.00 | 29 | 1008.9 |
| 20260508233003 | 80 | 277 | 2.0 | 5.0 | 0.00 | 0.00 | 0.00 | 30 | 1008.9 |
| 20260508232903 | 80 | 276 | 2.0 | 5.0 | 0.00 | 0.00 | 0.00 | 30 | 1009.0 |
| 20260508232803 | 80 | 275 | 2.0 | 5.0 | 0.00 | 0.00 | 0.00 | 30 | 1009.0 |
| 20260508232703 | 80 | 274 | 3.0 | 5.0 | 0.00 | 0.00 | 0.00 | 31 | 1009.0 |
| 20260508232603 | 80 | 273 | 2.0 | 5.0 | 0.00 | 0.00 | 0.00 | 31 | 1009.0 |
| 20260508232503 | 80 | 271 | 2.0 | 5.0 | 0.00 | 0.00 | 0.00 | 31 | 1009.0 |
| 20260508232403 | 80 | 269 | 2.0 | 5.0 | 0.00 | 0.00 | 0.00 | 31 | 1009.0 |
| 20260508232306 | 80 | 267 | 2.0 | 5.0 | 0.00 | 0.00 | 0.00 | 30 | 1009.0 |
| 20260508232224 | 80 | 266 | 2.0 | 5.0 | 0.00 | 0.00 | 0.00 | 31 | 1009.0 |
| 20260508232103 | 80 | 265 | 2.0 | 5.0 | 0.00 | 0.00 | 0.00 | 30 | 1008.9 |
| 20260508232003 | 80 | 263 | 2.0 | 5.0 | 0.00 | 0.00 | 0.00 | 30 | 1009.0 |
| 20260508231924 | 80 | 263 | 2.0 | 5.0 | 0.00 | 0.00 | 0.00 | 30 | 1009.0 |
| 20260508231803 | 80 | 262 | 1.0 | 5.0 | 0.00 | 0.00 | 0.00 | 29 | 1008.9 |
| 20260508231704 | 80 | 260 | 1.0 | 5.0 | 0.00 | 0.00 | 0.00 | 29 | 1008.9 |
| 20260508231603 | 80 | 260 | 2.0 | 5.0 | 0.00 | 0.00 | 0.00 | 28 | 1008.8 |
| 20260508231503 | 80 | 258 | 1.0 | 5.0 | 0.00 | 0.00 | 0.00 | 28 | 1008.8 |
| 20260508231403 | 80 | 257 | 1.0 | 3.0 | 0.00 | 0.00 | 0.00 | 28 | 1008.8 |
| 20260508231304 | 80 | 258 | 1.0 | 3.0 | 0.00 | 0.00 | 0.00 | 27 | 1008.8 |
| 20260508231203 | 80 | 258 | 2.0 | 3.0 | 0.00 | 0.00 | 0.00 | 27 | 1008.8 |
| 20260508231103 | 80 | 258 | 1.0 | 3.0 | 0.00 | 0.00 | 0.00 | 28 | 1008.8 |
| 20260508231003 | 80 | 259 | 2.0 | 3.0 | 0.00 | 0.00 | 0.00 | 28 | 1008.8 |
| 20260508230903 | 80 | 259 | 2.0 | 3.0 | 0.00 | 0.00 | 0.00 | 29 | 1008.8 |
| 20260508230803 | 80 | 259 | 2.0 | 3.0 | 0.00 | 0.00 | 0.00 | 29 | 1008.8 |
| 20260508230703 | 80 | 260 | 2.0 | 3.0 | 0.00 | 0.00 | 0.00 | 29 | 1008.8 |
| 20260508230603 | 80 | 260 | 2.0 | 3.0 | 0.00 | 0.00 | 0.00 | 29 | 1008.8 |
| 20260508230503 | 80 | 261 | 2.0 | 4.0 | 0.00 | 0.00 | 0.00 | 29 | 1008.8 |
| 20260508230403 | 80 | 261 | 2.0 | 4.0 | 0.00 | 0.00 | 0.00 | 30 | 1008.8 |
| 20260508230303 | 80 | 261 | 2.0 | 4.0 | 0.00 | 0.00 | 0.00 | 30 | 1008.8 |
| 20260508230203 | 80 | 261 | 1.0 | 4.0 | 0.00 | 0.00 | 0.00 | 30 | 1008.8 |
| 20260508230104 | 80 | 261 | 2.0 | 4.0 | 0.00 | 0.00 | 0.00 | 30 | 1008.8 |
| 20260508230004 | 80 | 262 | 2.0 | 4.0 | 0.00 | 0.00 | 0.00 | 29 | 1008.8 |
| 20260508225924 | 80 | 263 | 2.0 | 4.0 | 0.00 | 0.00 | 0.00 | 29 | 1008.8 |
| 20260508225825 | 80 | 264 | 2.0 | 4.0 | 0.00 | 0.00 | 0.00 | 29 | 1008.9 |
| 20260508225703 | 80 | 265 | 2.0 | 4.0 | 0.00 | 0.00 | 0.00 | 29 | 1008.8 |
| 20260508225604 | 80 | 265 | 2.0 | 4.0 | 0.00 | 0.00 | 0.00 | 29 | 1008.8 |
| 20260508225503 | 79 | 267 | 2.0 | 4.0 | 0.00 | 0.00 | 0.00 | 28 | 1008.9 |
| 20260508225404 | 79 | 267 | 2.0 | 4.0 | 0.00 | 0.00 | 0.00 | 28 | 1008.8 |
| 20260508225306 | 79 | 267 | 2.0 | 4.0 | 0.00 | 0.00 | 0.00 | 28 | 1008.9 |
| 20260508225203 | 79 | 266 | 2.0 | 4.0 | 0.00 | 0.00 | 0.00 | 29 | 1008.9 |
| 20260508225103 | 79 | 266 | 2.0 | 5.0 | 0.00 | 0.00 | 0.00 | 29 | 1008.9 |
| 20260508225024 | 80 | 266 | 2.0 | 5.0 | 0.00 | 0.00 | 0.00 | 29 | 1008.8 |
| 20260508224903 | 80 | 265 | 2.0 | 5.0 | 0.00 | 0.00 | 0.00 | 30 | 1008.9 |
| 20260508224824 | 80 | 264 | 2.0 | 5.0 | 0.00 | 0.00 | 0.00 | 29 | 1008.8 |
| 20260508224703 | 80 | 264 | 2.0 | 6.0 | 0.00 | 0.00 | 0.00 | 29 | 1008.8 |
| 20260508224603 | 80 | 263 | 2.0 | 6.0 | 0.00 | 0.00 | 0.00 | 30 | 1008.8 |
| 20260508224503 | 80 | 263 | 2.0 | 6.0 | 0.00 | 0.00 | 0.00 | 29 | 1008.9 |
| 20260508224424 | 80 | 263 | 2.0 | 6.0 | 0.00 | 0.00 | 0.00 | 29 | 1008.8 |
| 20260508224324 | 80 | 263 | 3.0 | 6.0 | 0.00 | 0.00 | 0.00 | 31 | 1008.9 |
| 20260508224204 | 80 | 264 | 3.0 | 6.0 | 0.00 | 0.00 | 0.00 | 31 | 1008.9 |
| 20260508224104 | 80 | 264 | 2.0 | 6.0 | 0.00 | 0.00 | 0.00 | 32 | 1008.8 |
| 20260508224003 | 80 | 264 | 2.0 | 6.0 | 0.00 | 0.00 | 0.00 | 33 | 1008.8 |
| 20260508223904 | 80 | 264 | 2.0 | 6.0 | 0.00 | 0.00 | 0.00 | 34 | 1008.8 |
| 20260508223803 | 80 | 264 | 2.0 | 6.0 | 0.00 | 0.00 | 0.00 | 34 | 1008.8 |
| 20260508223704 | 80 | 267 | 2.0 | 5.0 | 0.00 | 0.00 | 0.00 | 33 | 1008.8 |
| 20260508223603 | 80 | 267 | 3.0 | 6.0 | 0.00 | 0.00 | 0.00 | 33 | 1008.7 |
| 20260508223504 | 80 | 264 | 3.0 | 6.0 | 0.00 | 0.00 | 0.00 | 33 | 1008.7 |
| 20260508223403 | 80 | 271 | 3.0 | 6.0 | 0.00 | 0.00 | 0.00 | 34 | 1008.8 |
| 20260508223324 | 80 | 273 | 3.0 | 6.0 | 0.00 | 0.00 | 0.00 | 34 | 1008.7 |
| 20260508223203 | 80 | 271 | 3.0 | 6.0 | 0.00 | 0.00 | 0.00 | 34 | 1008.8 |
| 20260508223124 | 80 | 272 | 3.0 | 6.0 | 0.00 | 0.00 | 0.00 | 34 | 1008.7 |
| 20260508223003 | 80 | 280 | 3.0 | 6.0 | 0.00 | 0.00 | 0.00 | 35 | 1008.7 |
| 20260508222903 | 80 | 280 | 3.0 | 6.0 | 0.00 | 0.00 | 0.00 | 34 | 1008.7 |
| 20260508222824 | 80 | 280 | 3.0 | 6.0 | 0.00 | 0.00 | 0.00 | 34 | 1008.7 |
| 20260508222703 | 80 | 277 | 3.0 | 6.0 | 0.00 | 0.00 | 0.00 | 34 | 1008.7 |
| 20260508222603 | 80 | 277 | 3.0 | 5.0 | 0.00 | 0.00 | 0.00 | 34 | 1008.7 |
| 20260508222524 | 80 | 280 | 3.0 | 6.0 | 0.00 | 0.00 | 0.00 | 34 | 1008.7 |
| 20260508222403 | 80 | 272 | 3.0 | 7.0 | 0.00 | 0.00 | 0.00 | 34 | 1008.7 |
| 20260508222306 | 80 | 270 | 3.0 | 7.0 | 0.00 | 0.00 | 0.00 | 34 | 1008.7 |
| 20260508222203 | 80 | 269 | 3.0 | 7.0 | 0.00 | 0.00 | 0.00 | 34 | 1008.8 |
| 20260508222103 | 80 | 266 | 3.0 | 9.0 | 0.00 | 0.00 | 0.00 | 35 | 1008.8 |
| 20260508222003 | 80 | 261 | 3.0 | 9.0 | 0.00 | 0.00 | 0.00 | 34 | 1008.8 |
| 20260508221903 | 80 | 260 | 3.0 | 9.0 | 0.00 | 0.00 | 0.00 | 34 | 1008.8 |
| 20260508221803 | 80 | 259 | 3.0 | 9.0 | 0.00 | 0.00 | 0.00 | 34 | 1008.8 |
| 20260508221703 | 80 | 258 | 3.0 | 9.0 | 0.00 | 0.00 | 0.00 | 34 | 1008.9 |
| 20260508221624 | 80 | 258 | 3.0 | 9.0 | 0.00 | 0.00 | 0.00 | 34 | 1008.9 |
| 20260508221525 | 80 | 257 | 3.0 | 9.0 | 0.00 | 0.00 | 0.00 | 34 | 1008.9 |
| 20260508221404 | 80 | 256 | 3.0 | 9.0 | 0.00 | 0.00 | 0.00 | 34 | 1008.8 |
| 20260508221303 | 80 | 256 | 3.0 | 9.0 | 0.00 | 0.00 | 0.00 | 34 | 1008.8 |
| 20260508221203 | 80 | 256 | 3.0 | 9.0 | 0.00 | 0.00 | 0.00 | 35 | 1008.8 |
| 20260508221103 | 80 | 255 | 2.0 | 6.0 | 0.00 | 0.00 | 0.00 | 34 | 1008.8 |
| 20260508221004 | 80 | 254 | 2.0 | 6.0 | 0.00 | 0.00 | 0.00 | 34 | 1008.9 |
| 20260508220904 | 80 | 252 | 2.0 | 6.0 | 0.00 | 0.00 | 0.00 | 33 | 1008.9 |
| 20260508220803 | 80 | 251 | 2.0 | 6.0 | 0.00 | 0.00 | 0.00 | 34 | 1008.9 |
| 20260508220703 | 80 | 251 | 2.0 | 6.0 | 0.00 | 0.00 | 0.00 | 35 | 1008.9 |
| 20260508220603 | 80 | 250 | 3.0 | 6.0 | 0.00 | 0.00 | 0.00 | 35 | 1008.9 |
| 20260508220504 | 80 | 250 | 3.0 | 6.0 | 0.00 | 0.00 | 0.00 | 35 | 1008.9 |
| 20260508220403 | 80 | 249 | 3.0 | 6.0 | 0.00 | 0.00 | 0.00 | 34 | 1008.9 |
| 20260508220303 | 80 | 248 | 3.0 | 6.0 | 0.00 | 0.00 | 0.00 | 34 | 1009.0 |
| 20260508220203 | 80 | 248 | 3.0 | 6.0 | 0.00 | 0.00 | 0.00 | 34 | 1008.9 |
| 20260508220103 | 80 | 248 | 3.0 | 6.0 | 0.00 | 0.00 | 0.00 | 34 | 1009.0 |
| 20260508220004 | 80 | 248 | 3.0 | 6.0 | 0.00 | 0.00 | 0.00 | 35 | 1009.0 |
| 20260508215903 | 80 | 249 | 3.0 | 6.0 | 0.00 | 0.00 | 0.00 | 34 | 1009.0 |
| 20260508215803 | 80 | 250 | 3.0 | 6.0 | 0.00 | 0.00 | 0.00 | 35 | 1008.9 |
| 20260508215703 | 80 | 251 | 2.0 | 5.0 | 0.00 | 0.00 | 0.00 | 34 | 1009.0 |
| 20260508215603 | 80 | 252 | 2.0 | 5.0 | 0.00 | 0.00 | 0.00 | 35 | 1008.9 |
| 20260508215503 | 80 | 256 | 2.0 | 5.0 | 0.00 | 0.00 | 0.00 | 34 | 1009.0 |
| 20260508215403 | 80 | 260 | 2.0 | 5.0 | 0.00 | 0.00 | 0.00 | 35 | 1009.0 |
| 20260508215306 | 80 | 265 | 2.0 | 5.0 | 0.00 | 0.00 | 0.00 | 35 | 1009.0 |
| 20260508215224 | 80 | 268 | 2.0 | 5.0 | 0.00 | 0.00 | 0.00 | 35 | 1009.1 |
| 20260508215104 | 80 | 274 | 2.0 | 5.0 | 0.00 | 0.00 | 0.00 | 35 | 1009.0 |
| 20260508215003 | 80 | 280 | 2.0 | 5.0 | 0.00 | 0.00 | 0.00 | 36 | 1009.1 |
| 20260508214904 | 80 | 281 | 3.0 | 5.0 | 0.00 | 0.00 | 0.00 | 36 | 1009.1 |
| 20260508214803 | 80 | 279 | 3.0 | 5.0 | 0.00 | 0.00 | 0.00 | 36 | 1009.1 |
| 20260508214703 | 80 | 277 | 3.0 | 5.0 | 0.00 | 0.00 | 0.00 | 37 | 1009.1 |
| 20260508214625 | 80 | 277 | 3.0 | 5.0 | 0.00 | 0.00 | 0.00 | 37 | 1009.2 |
| 20260508214503 | 80 | 275 | 3.0 | 5.0 | 0.00 | 0.00 | 0.00 | 36 | 1009.2 |
| 20260508214424 | 80 | 273 | 3.0 | 5.0 | 0.00 | 0.00 | 0.00 | 36 | 1009.1 |
| 20260508214325 | 80 | 268 | 3.0 | 5.0 | 0.00 | 0.00 | 0.00 | 36 | 1009.1 |
| 20260508214204 | 80 | 262 | 3.0 | 5.0 | 0.00 | 0.00 | 0.00 | 36 | 1009.1 |
| 20260508214103 | 80 | 260 | 3.0 | 5.0 | 0.00 | 0.00 | 0.00 | 36 | 1009.1 |
| 20260508214003 | 80 | 256 | 3.0 | 5.0 | 0.00 | 0.00 | 0.00 | 36 | 1009.1 |
| 20260508213925 | 80 | 254 | 3.0 | 5.0 | 0.00 | 0.00 | 0.00 | 35 | 1009.1 |
| 20260508213803 | 80 | 254 | 3.0 | 6.0 | 0.00 | 0.00 | 0.00 | 35 | 1009.1 |
| 20260508213703 | 80 | 256 | 3.0 | 6.0 | 0.00 | 0.00 | 0.00 | 36 | 1009.1 |
| 20260508213624 | 80 | 258 | 3.0 | 6.0 | 0.00 | 0.00 | 0.00 | 35 | 1009.1 |
| 20260508213503 | 80 | 263 | 3.0 | 6.0 | 0.00 | 0.00 | 0.00 | 35 | 1009.1 |
| 20260508213424 | 80 | 264 | 3.0 | 6.0 | 0.00 | 0.00 | 0.00 | 36 | 1009.2 |
| 20260508213303 | 80 | 267 | 3.0 | 6.0 | 0.00 | 0.00 | 0.00 | 36 | 1009.1 |
| 20260508213203 | 80 | 269 | 3.0 | 6.0 | 0.00 | 0.00 | 0.00 | 36 | 1009.1 |
| 20260508213103 | 80 | 269 | 3.0 | 6.0 | 0.00 | 0.00 | 0.00 | 37 | 1009.1 |
| 20260508213003 | 80 | 269 | 3.0 | 6.0 | 0.00 | 0.00 | 0.00 | 37 | 1009.1 |
| 20260508212903 | 80 | 269 | 3.0 | 6.0 | 0.00 | 0.00 | 0.00 | 37 | 1009.1 |
| 20260508212824 | 80 | 269 | 3.0 | 5.0 | 0.00 | 0.00 | 0.00 | 37 | 1009.1 |
| 20260508212704 | 80 | 267 | 3.0 | 5.0 | 0.00 | 0.00 | 0.00 | 37 | 1009.2 |
| 20260508212603 | 80 | 265 | 3.0 | 5.0 | 0.00 | 0.00 | 0.00 | 37 | 1009.2 |
| 20260508212503 | 80 | 263 | 3.0 | 7.0 | 0.00 | 0.00 | 0.00 | 37 | 1009.2 |
| 20260508212404 | 80 | 260 | 3.0 | 7.0 | 0.00 | 0.00 | 0.00 | 38 | 1009.3 |
| 20260508212306 | 80 | 259 | 3.0 | 7.0 | 0.00 | 0.00 | 0.00 | 37 | 1009.3 |
| 20260508212203 | 80 | 257 | 3.0 | 7.0 | 0.00 | 0.00 | 0.00 | 37 | 1009.3 |
| 20260508212103 | 80 | 256 | 3.0 | 7.0 | 0.00 | 0.00 | 0.00 | 37 | 1009.3 |
| 20260508212003 | 80 | 256 | 3.0 | 7.0 | 0.00 | 0.00 | 0.00 | 37 | 1009.3 |
| 20260508211903 | 80 | 257 | 3.0 | 7.0 | 0.00 | 0.00 | 0.00 | 37 | 1009.3 |
| 20260508211803 | 80 | 257 | 3.0 | 7.0 | 0.00 | 0.00 | 0.00 | 37 | 1009.3 |
| 20260508211703 | 80 | 258 | 3.0 | 7.0 | 0.00 | 0.00 | 0.00 | 38 | 1009.3 |
| 20260508211603 | 80 | 258 | 3.0 | 7.0 | 0.00 | 0.00 | 0.00 | 39 | 1009.3 |
| 20260508211524 | 80 | 258 | 3.0 | 7.0 | 0.00 | 0.00 | 0.00 | 39 | 1009.4 |
| 20260508211403 | 80 | 258 | 3.0 | 6.0 | 0.00 | 0.00 | 0.00 | 39 | 1009.4 |
| 20260508211303 | 80 | 260 | 3.0 | 6.0 | 0.00 | 0.00 | 0.00 | 39 | 1009.4 |
| 20260508211203 | 80 | 262 | 3.0 | 6.0 | 0.00 | 0.00 | 0.00 | 38 | 1009.5 |
| 20260508211103 | 80 | 264 | 3.0 | 6.0 | 0.00 | 0.00 | 0.00 | 38 | 1009.5 |
| 20260508211003 | 80 | 266 | 3.0 | 6.0 | 0.00 | 0.00 | 0.00 | 39 | 1009.5 |
| 20260508210904 | 80 | 267 | 3.0 | 6.0 | 0.00 | 0.00 | 0.00 | 40 | 1009.6 |
| 20260508210803 | 80 | 266 | 3.0 | 6.0 | 0.00 | 0.00 | 0.00 | 39 | 1009.5 |
| 20260508210703 | 81 | 259 | 3.0 | 6.0 | 0.00 | 0.00 | 0.00 | 39 | 1009.6 |
| 20260508210603 | 81 | 257 | 3.0 | 6.0 | 0.00 | 0.00 | 0.00 | 39 | 1009.6 |
| 20260508210503 | 81 | 258 | 3.0 | 6.0 | 0.00 | 0.00 | 0.00 | 38 | 1009.6 |
| 20260508210403 | 81 | 258 | 3.0 | 6.0 | 0.00 | 0.00 | 0.00 | 39 | 1009.6 |
| 20260508210303 | 81 | 257 | 3.0 | 6.0 | 0.00 | 0.00 | 0.00 | 39 | 1009.6 |
| 20260508210203 | 81 | 252 | 3.0 | 7.0 | 0.00 | 0.00 | 0.00 | 39 | 1009.6 |
| 20260508210103 | 81 | 249 | 3.0 | 7.0 | 0.00 | 0.00 | 0.00 | 39 | 1009.6 |
| 20260508210003 | 81 | 247 | 4.0 | 7.0 | 0.00 | 0.00 | 0.00 | 39 | 1009.6 |
| 20260508205904 | 81 | 245 | 4.0 | 7.0 | 0.00 | 0.00 | 0.00 | 39 | 1009.7 |
| 20260508205803 | 81 | 242 | 3.0 | 7.0 | 0.00 | 0.00 | 0.00 | 39 | 1009.7 |
| 20260508205703 | 81 | 245 | 3.0 | 7.0 | 0.00 | 0.00 | 0.00 | 38 | 1009.7 |
| 20260508205603 | 81 | 245 | 3.0 | 7.0 | 0.00 | 0.00 | 0.00 | 38 | 1009.7 |
| 20260508205503 | 81 | 242 | 3.0 | 7.0 | 0.00 | 0.00 | 0.00 | 39 | 1009.7 |
| 20260508205403 | 81 | 238 | 3.0 | 7.0 | 0.00 | 0.00 | 0.00 | 39 | 1009.7 |
| 20260508205306 | 81 | 234 | 3.0 | 7.0 | 0.00 | 0.00 | 0.00 | 39 | 1009.7 |
| 20260508205203 | 81 | 233 | 3.0 | 7.0 | 0.00 | 0.00 | 0.00 | 39 | 1009.7 |
| 20260508205103 | 81 | 231 | 3.0 | 7.0 | 0.00 | 0.00 | 0.00 | 40 | 1009.8 |
| 20260508205003 | 81 | 229 | 3.0 | 7.0 | 0.00 | 0.00 | 0.00 | 40 | 1009.8 |
| 20260508204903 | 81 | 226 | 3.0 | 7.0 | 0.00 | 0.00 | 0.00 | 40 | 1009.8 |
| 20260508204803 | 81 | 230 | 3.0 | 7.0 | 0.00 | 0.00 | 0.00 | 40 | 1009.9 |
| 20260508204704 | 81 | 232 | 3.0 | 7.0 | 0.00 | 0.00 | 0.00 | 40 | 1009.9 |
| 20260508204603 | 81 | 234 | 3.0 | 7.0 | 0.00 | 0.00 | 0.00 | 39 | 1009.8 |
| 20260508204524 | 81 | 235 | 3.0 | 7.0 | 0.00 | 0.00 | 0.00 | 39 | 1009.8 |
| 20260508204403 | 81 | 244 | 3.0 | 7.0 | 0.00 | 0.00 | 0.00 | 38 | 1009.8 |
| 20260508204324 | 81 | 248 | 3.0 | 7.0 | 0.00 | 0.00 | 0.00 | 38 | 1009.9 |
| 20260508204203 | 81 | 252 | 3.0 | 7.0 | 0.00 | 0.00 | 0.00 | 36 | 1009.9 |
| 20260508204103 | 81 | 254 | 3.0 | 7.0 | 0.00 | 0.00 | 0.00 | 37 | 1009.8 |
| 20260508204003 | 81 | 259 | 3.0 | 9.0 | 0.00 | 0.00 | 0.00 | 36 | 1009.9 |
| 20260508203904 | 80 | 258 | 3.0 | 9.0 | 0.00 | 0.00 | 0.00 | 36 | 1009.9 |
| 20260508203803 | 80 | 254 | 3.0 | 9.0 | 0.00 | 0.00 | 0.00 | 35 | 1009.9 |
| 20260508203703 | 80 | 251 | 4.0 | 9.0 | 0.00 | 0.00 | 0.00 | 33 | 1009.9 |
| 20260508203603 | 80 | 248 | 4.0 | 9.0 | 0.00 | 0.00 | 0.00 | 35 | 1009.9 |
| 20260508203503 | 80 | 246 | 4.0 | 9.0 | 0.00 | 0.00 | 0.00 | 35 | 1009.9 |
| 20260508203403 | 80 | 243 | 3.0 | 9.0 | 0.00 | 0.00 | 0.00 | 34 | 1010.0 |
| 20260508203303 | 80 | 240 | 3.0 | 9.0 | 0.00 | 0.00 | 0.00 | 35 | 1010.0 |
| 20260508203203 | 80 | 241 | 3.0 | 9.0 | 0.00 | 0.00 | 0.00 | 36 | 1010.0 |
| 20260508203103 | 80 | 242 | 3.0 | 9.0 | 0.00 | 0.00 | 0.00 | 34 | 1010.0 |
| 20260508203003 | 80 | 238 | 3.0 | 8.0 | 0.00 | 0.00 | 0.00 | 33 | 1010.0 |
| 20260508202924 | 80 | 235 | 3.0 | 7.0 | 0.00 | 0.00 | 0.00 | 35 | 1010.0 |
| 20260508202803 | 79 | 235 | 3.0 | 7.0 | 0.00 | 0.00 | 0.00 | 35 | 1010.1 |
| 20260508202703 | 79 | 234 | 3.0 | 7.0 | 0.00 | 0.00 | 0.00 | 34 | 1010.2 |
| 20260508202603 | 79 | 231 | 3.0 | 7.0 | 0.00 | 0.00 | 0.00 | 35 | 1010.2 |
| 20260508202503 | 79 | 226 | 3.0 | 7.0 | 0.00 | 0.00 | 0.00 | 35 | 1010.2 |
| 20260508202403 | 79 | 225 | 3.0 | 7.0 | 0.00 | 0.00 | 0.00 | 35 | 1010.2 |
| 20260508202306 | 79 | 223 | 3.0 | 7.0 | 0.00 | 0.00 | 0.00 | 35 | 1010.2 |
| 20260508202203 | 79 | 219 | 3.0 | 7.0 | 0.00 | 0.00 | 0.00 | 36 | 1010.3 |
| 20260508202103 | 79 | 214 | 3.0 | 7.0 | 0.00 | 0.00 | 0.00 | 34 | 1010.3 |
| 20260508202003 | 79 | 211 | 3.0 | 6.0 | 0.00 | 0.00 | 0.00 | 33 | 1010.3 |
| 20260508201924 | 79 | 211 | 3.0 | 6.0 | 0.00 | 0.00 | 0.00 | 34 | 1010.3 |
| 20260508201803 | 79 | 210 | 3.0 | 6.0 | 0.00 | 0.00 | 0.00 | 34 | 1010.4 |
| 20260508201703 | 79 | 210 | 3.0 | 6.0 | 0.00 | 0.00 | 0.00 | 33 | 1010.4 |
| 20260508201603 | 79 | 210 | 3.0 | 6.0 | 0.00 | 0.00 | 0.00 | 33 | 1010.4 |
| 20260508201503 | 79 | 209 | 3.0 | 5.0 | 0.00 | 0.00 | 0.00 | 33 | 1010.4 |
| 20260508201403 | 79 | 208 | 2.0 | 5.0 | 0.00 | 0.00 | 0.00 | 34 | 1010.4 |
| 20260508201303 | 79 | 206 | 3.0 | 5.0 | 0.00 | 0.00 | 0.00 | 34 | 1010.4 |